     2              OBSERVATION DATA    GPS                 RINEX VERSION / TYPE
teqc 2000Jul20 Karen Wendt 20030613 21:06:34UTC             PGM / RUN BY / DATE
                                                            COMMENT
L2: 1 -> 1; 150 -> 5; 250 -> 9                              COMMENT
L2: 1 -> 1; 150 -> 5; 250 -> 9                              COMMENT
L2: 1 -> 1; 150 -> 5; 250 -> 9                              COMMENT
L2: 1 -> 1; 150 -> 5; 250 -> 9                              COMMENT
L2: 1 -> 1; 150 -> 5; 250 -> 9                              COMMENT
L2: 1 -> 1; 150 -> 5; 250 -> 9                              COMMENT
L2: 1 -> 1; 150 -> 5; 250 -> 9                              COMMENT
L2: 1 -> 1; 150 -> 5; 250 -> 9                              COMMENT
L2: 1 -> 1; 150 -> 5; 250 -> 9                              COMMENT
L2: 1 -> 1; 150 -> 5; 250 -> 9                              COMMENT
L2: 1 -> 1; 150 -> 5; 250 -> 9                              COMMENT
L2: 1 -> 1; 150 -> 5; 250 -> 9                              COMMENT
L2: 1 -> 1; 150 -> 5; 250 -> 9                              COMMENT
L2: 1 -> 1; 150 -> 5; 250 -> 9                              COMMENT
Original Marker Name: 1pdi 1_PDI_1986_USGS                  COMMENT
Campaign Name: USGS Death Valley 2003                       COMMENT
4-Character Station Name: 1PDI                              COMMENT
6-Character Antenna Code: DMRCHT                            COMMENT
Vertical Measurement Point: BCR                             COMMENT
Vertical Offset to Rinex Ref. Point: 0.0348                 COMMENT
Radial Measurement Point: ECF                               COMMENT
Radial Offset to Rinex Ref. Point: 0.1897                   COMMENT
Antenna Height from Field Measurement: 0.6140 m             COMMENT
Additional Antenna Identification Info.:                    COMMENT
Turborogue and Ashtech Choke Ring                           COMMENT
Original XYZ: -2258176.2055 -4596736.6644 3790525.9779      COMMENT
New XYZ position is based on association with SCEC monument COMMENT
E1G0H9Q6+0011. Position of that monument is believed to be  COMMENT
valid to within 1 m horizontally; vertical accuracy         COMMENT
should be no worse than 3-times this value.                 COMMENT
                                                            COMMENT
Revised Rinex header created by UCSD GPS archive for        COMMENT
GSAC on 20-Apr-2005 (2005:110) 16:33:03 GMT                 COMMENT
For assistance contact dagnew@ucsd.edu                      COMMENT
or anderson@python.ucsd.edu                                 COMMENT
                                                            COMMENT
1 PDI 1986                                                  MARKER NAME
JMS US GEOLOGICAL SURVEY                                    OBSERVER / AGENCY
LP03360 ASHTECH Z-XII3 CC00                                 REC # / TYPE / VERS
CR14330 DORNE-MARGOL. TYPE T                                ANT # / TYPE
 -2258195.0000 -4596713.0000  3790513.0000                  APPROX POSITION XYZ
        0.5492        0.0000        0.0000                  ANTENNA: DELTA H/E/N
     1     1     0                                          WAVELENGTH FACT L1/2
     5    C1    L1    L2    P1    P2                        # / TYPES OF OBSERV
    30                                                      INTERVAL
  2003     6     9    17    42   30.000000                  TIME OF FIRST OBS
  2003     6     9    23    59   30.000000                  TIME OF LAST OBS
                                                            END OF HEADER
 03  6  9 17 42 30.0000000  0 10G23G15G21G16G18G 6G 2G29G26G17
  22814527.674     -285169.69349   -207411.80646  22814527.261
  22814535.417     -265631.97849   -190896.04443
  20794657.438     -107803.46949    -78250.39847  20794656.629    20794660.822
  23638086.543      -33793.95149    -22731.11645  23638085.614    23638093.165
  21183344.523     -214388.81949   -155489.45147  21183343.946
  21183349.138      123210.63749     81346.82443
                   -145402.98649   -107927.66944                  25327964.193
  23333583.841       60638.41449     43819.87446  23333583.816
  23333590.248      -56920.18349    -42021.77743
  21094816.305      -39597.01849    -28916.94447  21094815.283    21094821.717
 03  6  9 17 43  0.0000000  0 10G23G15G21G16G18G 6G 2G29G26G17
  22530428.368    -1778118.30649  -1370748.30046  22530428.569
  22530436.711    -1751213.35049  -1129653.19546                  21936534.290
  20522320.939    -1538940.39649  -1193422.02447  20522320.343    20522324.587
  23370284.247    -1441104.03449  -1119336.41745  23370283.989    23370290.831
  20904018.718    -1682254.34449  -1299280.74647  20904018.439
  20904023.615    -1232893.74049  -1062833.16347                  21110141.333
  25052972.803    -1590434.08649  -1233925.95545  25052975.186    25052985.363
  23072478.340    -1311482.72949  -1025365.46346  23072477.636
  23072484.304    -1469376.34449  -1094930.12946                  21402500.024
  20826974.174    -1447116.90649  -1125685.70747  20826973.216    20826979.607
 03  6  9 17 43 30.0000000  0 10G23G15G21G16G18G 6G 2G29G26G17
  22516858.614    -1849429.22949  -1426315.18546  22516858.493    22516866.696
  21924324.287    -1815345.54249  -1179626.29746  21924323.137    21924330.388
  20520498.309    -1548518.88849  -1200885.80747  20520497.655    20520501.898
  23373048.272    -1426578.31349  -1108017.75045  23373048.246    23373054.962
  20895240.029    -1728387.71349  -1335228.79547  20895239.587    20895244.742
  21122628.977    -1167238.55349  -1011673.34247  21122628.609    21122635.187
  25048543.647    -1613716.58549  -1252068.19045  25048544.673    25048553.002
  23081934.513    -1261789.14849   -986643.21146  23081933.990    23081940.676
  21404308.963    -1459838.25549  -1087497.85247  21404308.945    21404315.074
  20829641.498    -1433099.62149  -1114763.16747  20829640.600    20829647.011
 03  6  9 17 44  0.0000000  0 10G23G15G21G16G18G 6G 2G29G26G17
  22503349.624    -1920420.60549  -1481633.06846  22503349.305    22503357.450
  21912145.113    -1879346.72249  -1229497.32446  21912144.188    21912151.386
  20518721.767    -1557855.03949  -1208160.73247  20518721.075    20518725.327
  23375911.287    -1411534.03449  -1096294.96745  23375910.954    23375917.818
  20886539.988    -1774106.97749  -1370854.18147  20886539.509    20886544.631
  21135207.248    -1101139.46449   -960167.62347  21135206.941    21135213.471
  25044196.027    -1636567.51049  -1269874.12045  25044196.773    25044204.668
  23091485.565    -1211597.89249   -947533.15746  23091485.128    23091491.840
  21406253.047    -1449622.12649  -1079537.23947  21406253.000    21406259.087
  20832351.068    -1418860.76949  -1103667.96647  20832350.214    20832356.601
 03  6  9 17 44 30.0000000  0 10G23G15G21G16G18G 6G 2G29G26G17
  22489900.516    -1991096.65049  -1536705.24646  22489900.086    22489908.193
  21899990.219    -1943221.04849  -1279269.50346  21899989.333    21899996.506
  20516990.571    -1566952.81949  -1215249.92047  20516989.893    20516994.129
  23378871.708    -1395977.45249  -1084173.00445  23378871.304    23378878.219
  20877917.903    -1819416.67049  -1406160.41647  20877917.379    20877922.525
  21147868.791    -1034602.84949   -908320.97847  21147868.505    21147874.995
  25039929.013    -1658991.59249  -1287347.45145  25039929.288    25039937.658
  23101130.141    -1160915.29349   -908040.23246  23101129.780    23101136.423
  21408325.185    -1438733.11249  -1071052.29147  21408325.145    21408331.212
  20835102.013    -1404404.44749  -1092403.31847  20835101.190    20835107.577
 03  6  9 17 45  0.0000000  0 10G23G15G21G16G18G 6G 2G29G26G17
  22476511.314    -2061457.62549  -1591531.92246  22476510.845    22476518.883
  21887859.409    -2006968.97849  -1328943.18446  21887858.591    21887865.706
  20515304.514    -1575813.37049  -1222154.25347  20515303.831    20515308.083
  23381929.184    -1379910.86249  -1071653.63045  23381928.747    23381935.697
  20869373.567    -1864317.24349  -1441147.85147  20869373.074    20869378.204
  21160613.107     -967631.16849   -856135.32047  21160612.812    21160619.341
  25035743.087    -1680989.65449  -1304488.82345  25035743.046    25035751.796
  23110867.802    -1109743.84849   -868166.40546  23110867.439    23110874.029
  21410525.120    -1427172.31549  -1062043.87947  21410525.092    21410531.176
  20837894.241    -1389731.16549  -1080969.61447  20837893.456    20837899.862
 03  6  9 17 45 30.0000000  0 10G23G15G21G16G18G 6G 2G29G26G17
  22463181.336    -2131507.24149  -1646115.96746  22463180.843    22463188.881
  21875751.993    -2070593.87949  -1378520.98846  21875751.162    21875758.283
  20513662.997    -1584439.65549  -1228876.04847  20513662.337    20513666.608
  23385082.581    -1363339.88449  -1058741.23245  23385082.114    23385089.148
  20860906.309    -1908812.99149  -1475819.84047  20860905.825    20860910.981
  21173439.158     -900229.93649   -803614.94147  21173438.883    21173445.440
  25031637.460    -1702565.62749  -1321301.30045  25031637.209    25031646.120
  23120697.331    -1058089.49649   -827916.28146  23120696.984    23120703.560
  21412852.057    -1414944.00449  -1052515.32747  21412852.031    21412858.163
  20840726.974    -1374845.01149  -1069370.03447  20840726.215    20840732.646
 03  6  9 17 46  0.0000000  0 10G23G15G21G16G18G 6G 2G29G26G17
  22449912.786    -2201233.93049  -1700448.40446  22449912.279    22449920.304
  21863670.158    -2134084.41649  -1427994.10946  21863669.337    21863676.435
  20512068.178    -1592820.64749  -1235406.70147  20512067.511    20512071.804
  23388333.873    -1346254.79749  -1045428.22945  23388333.423    23388340.412
  20852518.235    -1952892.84249  -1510167.75947  20852517.742    20852522.892
  21186348.764     -832389.92049   -750752.66247  21186348.486    21186355.050
  25027614.293    -1723708.51549  -1337776.30745  25027613.894    25027622.702
  23130620.538    -1005942.90049   -787282.60446  23130620.215    23130626.795
  21415308.101    -1402037.75549  -1042458.52147  21415308.081    21415314.180
  20843602.410    -1359734.59149  -1057595.70747  20843601.655    20843608.101
 03  6  9 17 46 30.0000000  0 10G23G15G21G16G18G 6G 2G29G26G17
  22436704.646    -2270643.59149  -1754533.79046  22436704.063    22436712.113
  21851612.778    -2197446.54049  -1477367.15946  21851611.934    21851619.032
  20510518.957    -1600961.88649  -1241750.53447  20510518.294    20510522.618
  23391681.429    -1328663.52449  -1031720.79245  23391681.016    23391688.006
  20844208.071    -1996563.13249  -1544196.53447  20844207.555    20844212.710
  21199340.382     -764118.86249   -697554.49547  21199340.102    21199346.680
  25023672.387    -1744424.72249  -1353918.84445  25023671.782    25023680.581
  23140635.803     -953312.41949   -746271.87246  23140635.521    23140642.100
  21417891.846    -1388460.28449  -1031878.67847  21417891.802    21417897.904
  20846519.399    -1344405.79449  -1045651.20947  20846518.665    20846525.129
 03  6  9 17 47  0.0000000  0 10G23G15G21G16G18G 6G 2G29G26G17
  22423556.635    -2339736.46049  -1808372.32546  22423556.085    22423564.137
  21839579.712    -2260680.57049  -1526640.38946  21839578.904    21839585.952
  20509015.224    -1608864.18649  -1247908.17747  20509014.565    20509018.909
  23395124.976    -1310568.35249  -1017620.71645  23395124.532    23395131.473
  20835975.705    -2039824.58449  -1577906.73247  20835975.184    20835980.311
  21212413.625     -695419.01649   -644022.21447  21212413.342    21212419.945
  25019811.355    -1764714.82549  -1369729.31545  25019810.786    25019819.565
  23150742.681     -900200.44449   -704885.93946  23150742.424    23150748.953
  21420603.105    -1374212.69149  -1020776.66147  21420603.065    21420609.166
  20849477.807    -1328859.52149  -1033537.24347  20849477.067    20849483.540
 03  6  9 17 47 30.0000000  0 10G23G15G21G16G18G 6G 2G29G26G17
  22410469.027    -2408512.23649  -1861963.78346  22410468.485    22410476.529
  21827571.179    -2323785.93849  -1575813.36946  21827570.398    21827577.389
  20507557.046    -1616527.09549  -1253879.28047  20507556.394    20507560.756
  23398664.027    -1291970.87749  -1003129.23245  23398663.522    23398670.495
  20827821.099    -2082677.45449  -1611298.55747  20827820.590    20827825.691
  21225568.067     -626292.25249   -590157.26547  21225567.775    21225574.400
  25016031.271    -1784578.98249  -1385207.91545  25016030.643    25016039.640
  23160940.854     -846608.82049   -663126.26346  23160940.594    23160947.148
  21423441.787    -1359295.61949  -1009152.97547  21423441.760    21423447.834
  20852477.635    -1313095.57449  -1021253.66647  20852476.920    20852483.367
 03  6  9 17 48  0.0000000  0 10G23G15G21G16G18G 6G 2G29G26G17
  22397441.983    -2476969.89149  -1915307.35046  22397441.424    22397449.447
  21815587.338    -2386761.69349  -1624885.35846  21815586.554    21815593.478
  20506144.686    -1623949.16549  -1259662.72147  20506144.032    20506148.409
  23402298.486    -1272872.03749   -988247.07445  23402297.946    23402304.910
  20819744.368    -2125121.18649  -1644371.57547  20819743.861    20819748.942
  21238803.577     -556739.53549   -535960.41447  21238803.302    21238809.947
  25012332.372    -1804016.88049  -1400354.34545  25012331.693    25012340.829
  23171230.041     -792538.87549   -620993.86446  23171229.772    23171236.454
  21426407.883    -1343708.89749   -997007.47947  21426407.827    21426413.953
  20855519.099    -1297112.86449  -1008799.62747  20855518.385    20855524.828
 03  6  9 17 48 30.0000000  0 10G23G15G21G16G18G 6G 2G29G26G17
  22384475.540    -2545108.67849  -1968402.45446  22384475.041    22384483.042
  21803628.278    -2449607.15049  -1673855.80546  21803627.473    21803634.380
  20504778.178    -1631130.22349  -1265258.35347  20504777.548    20504781.941
  23406028.041    -1253273.18649   -972975.30745  23406027.584    23406034.536
  20811745.508    -2167155.46849  -1677125.53747  20811744.989    20811750.087
  21252119.907     -486762.19649   -481432.68247  21252119.614    21252126.273
  25008714.592    -1823028.33149  -1415168.48645  25008713.788    25008723.055
  23181609.980     -737992.35149   -578490.09046  23181609.745    23181616.379
  21429501.288    -1327452.81049   -984340.39947  21429501.255    21429507.419
  20858602.316    -1280910.63949   -996174.53147  20858601.611    20858608.062
 03  6  9 17 49  0.0000000  0 10G23G15G21G16G18G 6G 2G29G26G17
  22371569.831    -2612928.81749  -2021249.24846  22371569.314    22371577.273
  21791693.985    -2512322.34049  -1722724.75546  21791693.205    21791700.085
  20503457.621    -1638070.04949  -1270666.01647  20503456.992    20503461.372
  23409852.353    -1233176.57349   -957315.66145  23409851.916    23409858.879
  20803824.419    -2208781.05049  -1709561.03347  20803823.912    20803829.020
  21265516.604     -416362.45349   -426575.79847  21265516.299    21265522.987
  25005178.007    -1841613.92049  -1429650.79145  25005177.345    25005186.415
  23192080.135     -682971.61149   -535616.81546  23192079.877    23192086.468
  21432721.893    -1310528.64549   -971152.74347  21432721.835    21432728.015
  20861727.317    -1264488.99649   -983378.46147  20861726.627    20861733.075
 03  6  9 17 49 30.0000000  0 10G23G15G21G16G18G 6G 2G29G26G17
  22358724.982    -2680429.08749  -2073846.79846  22358724.397    22358732.366
  21779784.688    -2574906.19749  -1771491.36346  21779783.920    21779790.777
  20502183.076    -1644767.93949  -1275885.15547  20502182.444    20502186.817
  23413771.254    -1212582.98049   -941268.75145  23413770.764    23413777.885
  20795981.261    -2249997.13249  -1741677.44147  20795980.752    20795985.874
  21278993.505     -345541.05749   -371390.35147  21278993.219    21278999.948
  25001722.620    -1859773.13849  -1443800.86845  25001721.878    25001730.971
  23202640.257     -627477.93749   -492375.01146  23202640.017    23202646.630
  21436069.635    -1292936.21749   -957444.36247  21436069.558    21436075.794
  20864894.165    -1247847.23449   -970410.86647  20864893.475    20864899.937
 03  6  9 17 50  0.0000000  0 10G23G15G21G16G18G 6G 2G29G26G17
  22345941.077    -2747608.92749  -2126194.67346  22345940.517    22345948.420
  21767900.469    -2637357.96249  -1820155.04146  21767899.717    21767906.579
  20500954.802    -1651222.67449  -1280914.82747  20500954.185    20500958.568
  23417784.325    -1191493.89849   -924835.76945  23417783.886    23417791.023
  20788216.048    -2290803.59949  -1773474.66747  20788215.548    20788220.646
  21292550.360     -274299.63349   -315877.62347  21292550.084    21292556.818
  24998348.266    -1877505.89349  -1457618.63245  24998347.534    24998356.561
  23213290.098     -571512.96749   -448765.97546  23213289.854    23213296.390
  21439544.483    -1274675.90449   -943215.55247  21439544.432    21439550.675
  20868103.029    -1230984.61349   -957271.18047  20868102.343    20868108.808
 03  6  9 17 50 30.0000000  0 10G23G15G21G16G18G 6G 2G29G26G17
  22333218.387    -2814466.98249  -2178291.80346  22333217.795    22333225.724
  21756041.778    -2699675.83549  -1868714.39046  21756041.016    21756047.864
  20499773.016    -1657433.02649  -1285754.07247  20499772.403    20499776.788
  23421891.701    -1169910.16249   -908017.33145  23421891.302    23421898.375
  20780528.954    -2331199.71849  -1804952.14547  20780528.430    20780533.541
  21306186.999     -202638.99149   -260038.23347  21306186.714    21306193.472
  24995055.220    -1894811.18349  -1471103.31345  24995054.424    24995063.688
  23224029.418     -515077.54549   -404790.36546  23224029.159    23224035.734
  21443146.491    -1255747.32849   -928466.01447  21443146.459    21443152.688
  20871354.149    -1213899.98549   -943958.50247  20871353.463    20871359.927
 03  6  9 17 51  0.0000000  0 10G23G15G21G16G18G 6G 2G29G26G17
  22320556.396    -2881005.74949  -2230140.13446  22320555.851    22320563.785
  21744207.990    -2761862.45849  -1917171.46146  21744207.259    21744214.114
  20498637.270    -1663401.52549  -1290404.85247  20498636.659    20498641.070
  23426092.299    -1147836.24749   -890816.93145  23426091.844    23426099.058
  20772919.331    -2371188.37449  -1836112.11447  20772918.828    20772923.948
  21319902.528     -130563.71049   -203875.74147  21319902.269    21319909.014
  24991842.729    -1911692.27149  -1484257.43045  24991841.968    24991851.341
  23234857.260     -458176.57749   -360451.96946  23234857.053    23234863.594
  21446874.981    -1236154.14949   -913198.60147  21446874.957    21446881.165
  20874647.060    -1196595.87049   -930474.78747  20874646.383    20874652.850
 03  6  9 17 51 30.0000000  0 10G23G15G21G16G18G 6G 2G29G26G17
  22307955.972    -2947221.30449  -2281736.61746  22307955.414    22307963.355
  21732400.008    -2823913.69849  -1965523.04146  21732399.273    21732406.158
  20497548.372    -1669123.80449  -1294863.77447  20497547.773    20497552.183
  23430386.540    -1125270.07049   -873232.96845  23430386.081    23430393.327
  20765387.980    -2410765.98149  -1866951.79047  20765387.491    20765392.592
  21333697.352      -58071.76449   -147388.57947  21333697.099    21333703.843
  24988711.690    -1928145.62649  -1497078.26745  24988711.075    24988720.460
  23245774.139     -400808.34649   -315749.48546  23245773.936    23245780.493
  21450730.473    -1215893.34849   -897410.96847  21450730.468    21450736.704
  20877982.429    -1179068.43849   -916817.06147  20877981.764    20877988.227
 03  6  9 17 52  0.0000000  0 10G23G15G21G16G18G 6G 2G29G26G17
  22295417.372    -3013111.99149  -2333079.96446  22295416.874    22295424.693
  21720618.150    -2885827.69249  -2013767.69947  21720617.409    21720624.309
  20496506.624    -1674598.47149  -1299129.75347  20496506.034    20496510.434
  23434774.349    -1102212.62749   -855266.29145  23434773.794    23434780.935
  20757935.038    -2449931.55349  -1897470.40347  20757934.561    20757939.641
  21347571.372       14836.38949    -90577.11047  21347571.134    21347577.897
  24985662.403    -1944170.28649  -1509565.06745  24985661.866    24985671.055
  23256779.559     -342974.63749   -270684.52045  23256779.297    23256785.998
  21454713.097    -1194964.58549   -881102.84947  21454713.111    21454719.332
  20881360.656    -1161315.92949   -902983.94947  20881359.995    20881366.451
 03  6  9 17 52 30.0000000  0 10G23G15G21G16G18G 6G 2G29G26G17
  22282940.074    -3078680.37249  -2384172.15646  22282939.592    22282947.356
  21708861.956    -2947606.95049  -2061907.33947  21708861.188    21708868.107
  20495511.465    -1679828.29849  -1303204.94747  20495510.863    20495515.262
  23439255.055    -1078667.43549   -836919.36345  23439254.392    23439261.539
  20750559.878    -2488688.18549  -1927670.35847  20750559.397    20750564.502
  21361523.654       88155.92349    -33445.07247  21361523.435    21361530.228
  24982693.878    -1959769.47649  -1521720.30745  24982693.471    24982702.761
  23267873.025     -284678.40449   -225258.90946  23267872.757    23267879.544
  21458822.161    -1173371.50249   -864277.07647  21458822.167    21458828.388
  20884781.223    -1143341.04949   -888977.56847  20884780.557    20884787.005
 03  6  9 17 53  0.0000000  0 10G23G15G21G16G18G 6G 2G29G26G17
  22270524.283    -3143926.07649  -2435012.90746  22270523.727    22270531.526
  21697131.502    -3009250.78849  -2109941.46747  21697130.769    21697137.683
  20494563.068    -1684812.28549  -1307088.58047  20494562.469    20494566.868
  23443827.896    -1054637.63649   -818194.90445  23443827.245    23443834.417
  20743262.595    -2527035.85949  -1957551.64447  20743262.108    20743267.214
  21375553.967      161885.37349     24006.38047  21375553.742    21375560.554
  24979806.451    -1974943.19149  -1533544.02145  24979806.070    24979815.286
  23279053.965     -225922.50049   -179475.10246  23279053.706    23279060.489
  21463057.497    -1151114.81249   -846934.20347  21463057.514    21463063.708
  20888244.142    -1125143.44149   -874797.62647  20888243.480    20888249.933
 03  6  9 17 53 30.0000000  0 10G23G15G21G16G18G 6G 2G29G26G17
  22258169.924    -3208848.41149  -2485601.68746  22258169.370    22258177.152
  21685427.000    -3070758.28849  -2157869.36347  21685426.272    21685433.163
  20493661.700    -1689549.19049  -1310779.67847  20493661.104    20493665.503
  23448492.804    -1030123.87549   -799093.33545  23448492.167    23448499.253
  20736043.172    -2564974.21349  -1987113.98247  20736042.696    20736047.792
  21389662.034      236023.35249     81776.16347  21389661.805    21389668.636
  24976999.861    -1989691.26949  -1545036.06645  24976999.523    24977008.869
  23290322.131     -166708.44149   -133334.28746  23290321.816    23290328.638
  21467419.075    -1128194.87249   -829074.51247  21467419.065    21467425.243
  20891749.649    -1106722.15649   -860443.39447  20891748.983    20891755.418
 03  6  9 17 54  0.0000000  0 10G23G15G21G16G18G 6G 2G29G26G17
  22245877.352    -3273446.13749  -2535937.52146  22245876.830    22245884.603
  21673748.728    -3132127.93349  -2205689.83247  21673748.027    21673754.916
  20492807.503    -1694038.21049  -1314277.62147  20492806.915    20492811.316
  23453249.540    -1005126.98949   -779615.31445  23453249.034    23453256.113
  20728901.710    -2602502.72549  -2016356.96447  20728901.240    20728906.316
  21403847.644      310568.94849    139863.57447  21403847.425    21403854.278
  24974274.617    -2004013.17149  -1556196.03345  24974274.259    24974283.550
  23301677.199     -107037.37849    -86837.38146  23301676.885    23301683.724
  21471906.780    -1104611.67949   -810698.00047  21471906.788    21471912.956
  20895297.889    -1088076.16249   -845914.06547  20895297.237    20895303.684
 03  6  9 17 54 30.0000000  0 10G23G15G21G16G18G 6G 2G29G26G17
  22233646.500    -3337719.40449  -2586020.53346  22233645.977    22233653.724
  21662096.675    -3193359.62249  -2253402.80047  21662095.973    21662102.916
  20492000.458    -1698279.22049  -1317582.31147  20491999.854    20492004.294
  23458097.820     -979649.41249   -759762.72545  23458097.347    23458104.381
  20721838.140    -2639622.18449  -2045281.20247  20721837.670    20721842.725
  21418110.404      385519.84749    198266.80347  21418110.191    21418117.065
  24971630.436    -2017909.73749  -1567024.57345  24971630.000    24971639.164
  23313118.621      -46911.84849    -39986.33746  23313118.364    23313125.286
  21476520.426    -1080366.75649   -791805.85547  21476520.454    21476526.632
  20898888.829    -1069205.67849   -831209.80847  20898888.161    20898894.660
 03  6  9 17 55  0.0000000  0 10G23G15G21G16G18G 6G 2G29G26G17
  22221477.574    -3401667.35849  -2635850.05146  22221477.042    22221484.835
  21650471.159    -3254452.16149  -2301007.34247  21650470.471    21650477.365
  20491240.850    -1702271.01649  -1320692.80847  20491240.269    20491244.694
  23463037.334     -953692.41449   -739536.57645  23463036.867    23463043.883
  20714852.527    -2676331.96149  -2073886.20847  20714852.036    20714857.109
  21432450.053      460874.84749    256984.91647  21432449.834    21432456.704
  24969067.225    -2031380.52749  -1577521.35845  24969066.684    24969075.661
  23324646.318       13666.53549      7217.59846  23324646.063    23324653.039
  21481259.965    -1055460.28749   -772398.22347  21481260.003    21481266.193
  20902522.702    -1050109.76649   -816329.89547  20902522.035    20902528.550
 03  6  9 17 55 30.0000000  0 10G23G15G21G16G18G 6G 2G29G26G17
  22209370.550    -3465290.15449  -2685426.19646  22209369.973    22209377.763
  21638872.204    -3315405.20549  -2348503.19047  21638871.501    21638878.359
  20490528.687    -1706013.57949  -1323609.09647  20490528.103    20490532.534
  23468067.623     -927258.12949   -718938.50445  23468067.195    23468074.220
  20707944.677    -2712632.82749  -2102172.58547  20707944.199    20707949.299
  21446866.194      536631.69349    316016.15747  21446865.963    21446872.835
  24966584.851    -2044426.19549  -1587686.86445  24966584.184    24966593.313
  23336259.772       74695.51449     54772.62646  23336259.514    23336266.500
  21486125.153    -1029893.71249   -752476.22747  21486125.185    21486131.331
  20906199.535    -1030788.01249   -801274.00147  20906198.890    20906205.416
 03  6  9 17 56  0.0000000  0 10G23G15G21G16G18G 6G 2G29G26G17
  22197325.537    -3528587.07249  -2734748.42246  22197324.972    22197332.728
  21627299.947    -3376217.82149  -2395889.60847  21627299.252    21627306.068
  20489864.161    -1709505.83349  -1326330.33347  20489863.563    20489868.023
  23473188.539     -900347.93449   -697969.59345  23473188.090    23473195.210
  20701114.713    -2748524.51549  -2130140.11947  20701114.237    20701119.388
  21461358.533      612789.18349    375359.59047  21461358.331    21461365.237
  24964183.304    -2057046.70149  -1597521.06045  24964182.536    24964191.780
  23347958.637      136173.39349    102677.46646  23347958.414    23347965.443
  21491115.894    -1003667.34049   -732040.09747  21491115.910    21491122.059
  20909919.530    -1011239.50849   -786041.41947  20909918.874    20909925.385
 03  6  9 17 56 30.0000000  0 10G23G15G21G16G18G 6G 2G29G26G17
  22185342.569    -3591557.98749  -2783816.60546  22185341.997    22185349.712
  21615754.524    -3436889.56249  -2443166.25647  21615753.815    21615760.601
  20489247.241    -1712747.69649  -1328856.46447  20489246.660    20489251.122
  23478399.599     -872964.01049   -676631.53945  23478399.122    23478406.235
  20694362.562    -2784007.27649  -2157789.00647  20694362.091    20694367.226
  21475926.727      689345.15949    435013.53147  21475926.525    21475933.452
  24961862.427    -2069242.68049  -1607024.44045  24961861.633    24961870.980
  23359742.541      198097.85549    150930.28646  23359742.307    23359749.352
  21496231.880     -976782.61549   -711090.95947  21496231.888    21496238.059
  20913682.661     -991464.21749   -770632.12047  20913681.989    20913688.533
 03  6  9 17 57  0.0000000  0 10G23G15G21G16G18G 6G 2G29G26G17
  22173421.752    -3654202.25749  -2832630.26446  22173421.190    22173428.898
  21604236.032    -3497419.60149  -2490332.49447  21604235.339    21604242.111
  20488678.210    -1715738.05149  -1331186.61247  20488677.634    20488682.081
  23483700.479     -845107.88349   -654925.54745  23483700.053    23483707.234
  20687688.231    -2819081.18849  -2185119.31147  20687687.752    20687692.856
  21490570.580      766298.27249    494976.92647  21490570.338    21490577.235
  24959622.486    -2081013.95249  -1616196.88845  24959621.644    24959631.088
  23371611.047      260467.30249    199529.85046  23371610.850    23371617.931
  21501473.103     -949240.02449   -689629.21247  21501473.120    21501479.316
  20917489.077     -971461.50149   -755045.60647  20917488.404    20917494.953
 03  6  9 17 57 30.0000000  0 10G23G15G21G16G18G 6G 2G29G26G17
  22161563.105    -3716519.54249  -2881189.13446  22161562.540    22161570.268
  21592744.605    -3557807.32849  -2537387.83947  21592743.924    21592750.686
  20488157.197    -1718476.11549  -1333320.16947  20488156.624    20488161.079
  23489090.888     -816781.13049   -632852.82745  23489090.581    23489097.850
  20681091.693    -2853746.31949  -2212131.08647  20681091.218    20681096.308
  21505289.571      843646.73449    555248.39047  21505289.328    21505296.249
  24957463.262    -2092360.93649  -1625038.72745  24957462.488    24957472.012
  23383563.964      323279.89749    248474.72246  23383563.785    23383570.808
  21506839.323     -921040.57549   -667655.61847  21506839.355    21506845.500
  20921338.862     -951230.84349   -739281.47447  20921338.179    20921344.744
 03  6  9 17 58  0.0000000  0 10G23G15G21G16G18G 6G 2G29G26G17
  22149766.760    -3778509.60249  -2929493.01446  22149766.206    22149773.940
  21581280.423    -3618052.00849  -2584331.71347  21581279.711    21581286.445
  20487684.222    -1720961.62549  -1335256.92847  20487683.652    20487688.113
  23494570.528     -787985.85749   -610415.01045  23494570.217    23494577.484
  20674572.935    -2888002.65549  -2238824.31747  20674572.461    20674577.528
  21520083.461      921388.78149    615826.54647  21520083.226    21520090.173
  24955384.711    -2103283.92549  -1633550.16845  24955383.908    24955393.419
  23395600.790      386533.33049    297763.11346  23395600.523    23395607.552
  21512330.331     -892185.26949   -645170.96147  21512330.344    21512336.522
  20925232.068     -930772.01649   -723339.54647  20925231.414    20925237.963
 03  6  9 17 58 30.0000000  0 10G23G15G21G16G18G 6G 2G29G26G17
  22138032.697    -3840172.29149  -2977541.80346  22138032.159    22138039.894
  21569843.580    -3678152.86249  -2631163.52647  21569842.879    21569849.626
  20487259.420    -1723194.13749  -1336996.55247  20487258.846    20487263.310
  23500139.045     -758724.05049   -587613.68445  23500138.622    23500145.819
  20668131.891    -2921850.61749  -2265199.33847  20668131.410    20668136.490
  21534951.906      999522.44949    676709.85847  21534951.663    21534958.593
  24953386.659    -2113783.27049  -1641731.50445  24953385.940    24953395.461
  23407721.099      450225.51549    347393.38146  23407720.862    23407727.736
  21517945.920     -862675.37349   -622176.24247  21517945.936    21517952.134
  20929168.782     -910084.63549   -707219.52847  20929168.128    20929174.692
 03  6  9 17 59  0.0000000  0 10G23G15G21G16G18G 6G 2G29G26G17
  22126361.046    -3901507.06449  -3025335.07446  22126360.499    22126368.236
  21558434.278    -3738108.99049  -2677882.55547  21558433.587    21558440.368
  20486882.956    -1725172.70149  -1338538.29147  20486882.366    20486886.821
  23505795.848     -728997.53349   -564450.23345  23505795.426    23505802.678
  20661768.532    -2955290.43349  -2291256.31847  20661768.036    20661773.093
  21549894.485     1078046.04349    737897.00547  21549894.248    21549901.228
  24951469.169    -2123859.30349  -1649582.98945  24951468.498    24951478.056
  23419924.515      514354.46349    397363.98646  23419924.284    23419931.149
  21523685.905     -832511.58949   -598671.99147  21523685.942    21523692.153
  20933149.176     -889167.58949   -690920.55147  20933148.523    20933155.093
 03  6  9 17 59 30.0000000  0 10G23G15G21G16G18G 6G 2G29G26G17
  22114751.882    -3962513.24149  -3072872.29246  22114751.376    22114759.085
  21547052.748    -3797919.29849  -2724487.96547  21547052.036    21547058.806
  20486554.963    -1726896.37349  -1339881.41447  20486554.363    20486558.824
  23511540.775     -698807.67549   -540925.74345  23511540.399    23511547.739
  20655482.871    -2988321.79549  -2316995.02647  20655482.377    20655487.439
  21564910.976     1156958.12949    799386.87347  21564910.733    21564917.753
  24949632.344    -2133512.10549  -1657104.72245  24949631.640    24949641.214
  23432210.707      578918.55949    447673.64946  23432210.518    23432217.283
  21529550.154     -801694.76849   -574658.88847  21529550.203    21529556.428
  20937173.402     -868020.30449   -674442.16347  20937172.747    20937179.309
 03  6  9 18  0  0.0000000  0 10G23G15G21G16G18G 6G 2G29G26G17
  22103205.272    -4023191.04149  -3120153.64046  22103204.790    22103212.497
  21535699.012    -3857583.51949  -2770979.54047  21535698.307    21535705.080
  20486275.491    -1728365.10049  -1341025.87947  20486274.907    20486279.347
  23517373.416     -668156.96449   -517042.14845  23517373.001    23517380.401
  20649274.749    -3020945.65049  -2342416.19447  20649274.275    20649279.298
  21580000.986     1236256.40249    861177.66447  21580000.746    21580007.762
  24947876.030    -2142742.41649  -1664297.20545  24947875.294    24947884.828
  23444579.254      643915.29349    498320.44246  23444579.026    23444585.761
  21535538.423     -770226.47749   -550138.14847  21535538.467    21535544.673
  20941241.404     -846643.07749   -657784.60247  20941240.751    20941247.304
 03  6  9 18  0 30.0000000  0 10G23G15G21G16G18G 6G 2G29G26G17
  22091721.154    -4083540.09249  -3167178.81146  22091720.700    22091728.407
  21524373.211    -3917100.88549  -2817356.68247  21524372.487    21524379.301
  20486044.709    -1729577.97549  -1341970.97547  20486044.117    20486048.550
  23523293.531     -637047.23549   -492800.87745  23523293.173    23523300.472
  20643144.227    -3053161.71049  -2367519.59547  20643143.739    20643148.767
  21595164.213     1315939.27449    923268.14647  21595163.969    21595170.971
  24946200.081    -2151550.38749  -1671160.58745  24946199.196    24946208.714
  23457029.771      709342.73549    549302.85045  23457029.587    23457036.212
  21541650.439     -738107.73549   -525110.56347  21541650.495    21541656.642
  20945353.295     -825034.99849   -640947.15547  20945352.634    20945359.182
 03  6  9 18  1  0.0000000  0 10G23G15G21G16G18G 6G 2G29G26G17
  22080299.499    -4143561.24949  -3213948.48546  22080299.017    22080306.682
  21513075.271    -3976471.73749  -2863619.65847  21513074.568    21513081.382
  20485862.485    -1730535.78849  -1342717.32447  20485861.873    20485866.319
  23529300.332     -605481.45249   -468204.24145  23529300.084    23529307.369
  20637091.015    -3084971.67349  -2392306.56347  20637090.539    20637095.565
  21610400.088     1396003.63449    985655.88647  21610399.821    21610406.799
  24944604.128    -2159937.72049  -1677696.22145  24944603.260    24944612.598
  23469561.603      775197.59749    600618.31545  23469561.371    23469568.020
  21547885.833     -705340.90249   -499577.96447  21547885.859    21547892.007
  20949508.998     -803196.82949   -623930.41647  20949508.347    20949514.890
 03  6  9 18  1 30.0000000  0 10G23G15G21G16G18G 6G 2G29G26G17
  22068940.592    -4203252.77849  -3260461.29846  22068940.081    22068947.735
  21501805.691    -4035693.78349  -2909766.67947  21501804.970    21501811.796
  20485729.192    -1731236.18249  -1343263.08247  20485728.595    20485733.034
  23535393.902     -573460.27849   -443252.76445  23535393.536    23535400.827
  20631115.286    -3116374.28149  -2416776.10747  20631114.816    20631119.834
  21625708.392     1476449.12649   1048340.62647  21625708.144    21625715.147
  24943088.309    -2167903.29749  -1683903.20445  24943087.520    24943096.875
  23482174.568      841479.26449    652266.37545  23482174.379    23482181.035
  21554244.539     -671925.60549   -473540.06547  21554244.557    21554250.737
  20953708.910     -781126.41349   -606732.70847  20953708.259    20953714.802
 03  6  9 18  2  0.0000000  0 10G23G15G21G16G18G 6G 2G29G26G17
  22057644.404    -4262614.38749  -3306717.04246  22057643.891    22057651.540
  21490564.622    -4094766.21449  -2955797.11547  21490563.882    21490570.695
  20485645.018    -1731678.55549  -1343607.78947  20485644.443    20485648.873
  23541573.706     -540985.36949   -417947.71545  23541573.288    23541580.646
  20625217.110    -3147369.38849  -2440928.11447  20625216.630    20625221.641
  21641088.887     1557274.05149   1111321.01947  21641088.656    21641095.716
  24941652.677    -2175447.30649  -1689781.67145  24941651.983    24941661.407
  23494868.426      908185.97049    704245.63045  23494868.241    23494874.873
  21560726.469     -637862.96549   -446997.74647  21560726.490    21560732.637
  20957953.069     -758823.33849   -589353.70547  20957952.421    20957958.959
 03  6  9 18  2 30.0000000  0 10G23G15G21G16G18G 6G 2G29G26G17
  22046411.106    -4321645.79449  -3352715.47846  22046410.568    22046418.217
  21479352.180    -4153687.99849  -3001710.15647  21479351.444    21479358.233
  20485610.126    -1731862.05349  -1343750.77647  20485609.528    20485613.964
  23547839.513     -508058.77749   -392290.71245  23547839.010    23547846.441
  20619396.442    -3177957.22949  -2464762.77247  20619395.959    20619400.978
  21656541.266     1638476.62449   1174595.68047  21656541.039    21656548.133
  24940297.293    -2182570.15449  -1695331.96745  24940296.572    24940306.142
  23507642.670      975315.32149    756554.21945  23507642.537    23507649.087
  21567331.364     -603154.11249   -419951.88647  21567331.367    21567337.515
  20962241.634     -736286.83549   -571792.80747  20962241.002    20962247.545
 03  6  9 18  3  0.0000000  0 10G23G15G21G16G18G 6G 2G29G26G17
  22035240.463    -4380347.44049  -3398456.95346  22035239.951    22035247.597
  21468168.424    -4212459.12749  -3047505.80947  21468167.697    21468174.471
  20485624.453    -1731786.93149  -1343692.24147  20485623.858    20485628.271
  23554190.839     -474682.92349   -366283.62045  23554190.333    23554197.722
  20613653.028    -3208139.00449  -2488281.00847  20613652.545    20613657.569
  21672065.023     1720054.22749   1238162.58047  21672064.802    21672071.914
  24939021.741    -2189273.14949  -1700555.10345  24939021.005    24939030.612
  23520496.782     1042864.59949    809190.01945  23520496.699    23520503.294
  21574058.817     -567801.11449   -392404.08847  21574058.810    21574064.945
  20966574.588     -713517.08349   -554050.16347  20966573.943    20966580.491
 03  6  9 18  3 30.0000000  0 10G23G15G21G16G18G 6G 2G29G26G17
  22024132.734    -4438718.78149  -3443941.05946  22024132.211    22024139.844
  21457013.571    -4271078.32449  -3093183.07547  21457012.819    21457019.588
  20485688.222    -1731451.93549  -1343431.20947  20485687.634    20485692.024
  23560627.159     -440859.85049   -339928.05345  23560626.717    23560634.098
  20607986.896    -3237914.63049  -2511482.76747  20607986.408    20607991.431
  21687659.814     1802005.35449   1302020.53347  21687659.605    21687666.757
  24937826.101    -2195556.36549  -1705451.13845  24937825.432    24937835.016
  23533430.536     1110832.02349    862151.64045  23533430.415    23533437.056
  21580908.694     -531804.85849   -364355.06047  21580908.668    21580914.778
  20970952.030     -690513.66349   -536125.43747  20970951.372    20970957.946
 03  6  9 18  4  0.0000000  0 10G23G15G21G16G18G 6G 2G29G26G17
  22013087.938    -4496759.55549  -3489167.57046  22013087.387    22013095.012
  21445887.746    -4329544.93349  -3138741.43147  21445887.001    21445893.735
  20485801.533    -1730856.56849  -1342967.28947  20485800.935    20485805.317
  23567148.298     -406591.35349   -313225.41545  23567147.813    23567155.282
  20602398.050    -3267284.32349  -2534368.21347  20602397.557    20602402.569
  21703325.347     1884328.06649   1366168.03147  21703325.130    21703332.311
  24936710.406    -2201420.48749  -1710020.61645  24936709.585    24936719.305
  23546443.517     1179215.47649    915437.43845  23546443.416    23546450.046
  21587880.706     -495166.73549   -335805.86447  21587880.691    21587886.803
  20975374.095     -667275.72449   -518017.97347  20975373.431    20975380.015
 03  6  9 18  4 30.0000000  0 10G23G15G21G16G18G 6G 2G29G26G17
  22002106.019    -4554469.72349  -3534136.46646  22002105.490    22002113.084
  21434791.110    -4387858.23949  -3184180.32947  21434790.353    21434797.063
  20485964.511    -1730000.24949  -1342300.02847  20485963.902    20485968.279
  23573753.692     -371880.06449   -286177.73845  23573753.170    23573760.726
  20596886.273    -3296248.75749  -2556937.87147  20596885.783    20596890.792
  21719061.237     1967020.25549   1430603.43647  21719061.007    21719068.166
  24935674.197    -2206866.10849  -1714263.99445  24935673.383    24935683.205
  23559535.208     1248012.64449    969045.60945  23559535.113    23559541.689
  21594974.541     -457888.31549   -306757.74047  21594974.520    21594980.649
  20979840.833     -643803.01249   -499727.56747  20979840.129    20979846.753
 03  6  9 18  5  0.0000000  0 11G23G15G21G16G18G 6G 2G29G26G17G 3
  21991186.792    -4611850.48249  -3578848.67846  21991186.249    21991193.863
  21423723.521    -4446018.73149  -3229500.15347  21423722.795    21423729.485
  20486177.060    -1728883.49449  -1341429.83547  20486176.445    20486180.805
  23580442.797     -336729.07849   -258787.43945  23580442.260    23580449.848
  20591451.364    -3324809.40149  -2579192.88647  20591450.885    20591455.887
  21734866.742     2050078.74249   1495324.27147  21734866.535    21734873.744
  24934717.231    -2211895.08949  -1718182.72945  24934716.315    24934726.035
  23572704.925     1317219.93549   1022973.35745  23572704.776    23572711.443
  21602189.720     -419972.05149   -277212.59447  21602189.705    21602195.886
  20984352.164     -620096.04349   -481254.62147  20984351.466    20984358.082
  24607537.517    -1288898.32349   -983613.61745  24607537.067    24607545.211
 03  6  9 18  5 30.0000000  0 11G23G15G21G16G18G 6G 2G29G26G17G 3
  21980330.493    -4668900.58449  -3623303.24347  21980329.894    21980337.557
  21412685.371    -4504024.56149  -3274699.46347  21412684.607    21412691.339
  20486439.438    -1727504.84449  -1340355.56447  20486438.833    20486443.173
  23587215.466     -301139.32049   -231055.23345  23587214.821    23587222.427
  20586093.430    -3352965.45549  -2601132.63847  20586092.944    20586097.945
  21750741.873     2133502.61549   1560329.81247  21750741.645    21750748.881
  24933839.741    -2216506.70049  -1721776.23245  24933838.812    24933848.541
  23585952.414     1386836.52149   1077220.02445  23585952.235    23585959.018
  21609526.212     -381418.46849   -247170.84047  21609526.186    21609532.401
  20988908.292     -596153.39349   -462598.03047  20988907.612    20988914.206
  24588692.782    -1387927.60549  -1060779.23445  24588692.393    24588700.570
 03  6  9 18  6  0.0000000  0 11G23G15G21G16G18G 6G 2G29G26G17G 3
  21969537.297    -4725618.99249  -3667499.34247  21969536.726    21969544.351
  21401676.984    -4561873.74349  -3319776.70747  21401676.228    21401682.992
  20486751.905    -1725862.80849  -1339076.05847  20486751.287    20486755.646
  23594071.235     -265112.04449   -202982.11045  23594070.705    23594078.268
  20580812.640    -3380716.19149  -2622756.55447  20580812.140    20580817.144
  21766686.323     2217290.76349   1625619.20747  21766686.067    21766693.343
  24933041.541    -2220700.74049  -1725044.36045  24933040.745    24933050.468
  23599277.667     1456861.03749   1131784.56145  23599277.440    23599284.206
  21616983.918     -342227.95449   -216632.77047  21616983.904    21616990.130
  20993509.621     -571973.54149   -443756.60147  20993508.926    20993515.519
  24569880.833    -1486784.38749  -1137810.43745  24569880.535    24569888.871
 03  6  9 18  6 30.0000000  0 11G23G15G21G16G18G 6G 2G29G26G17G 3
  21958807.280    -4782005.69349  -3711436.96347  21958806.675    21958814.242
  21390698.534    -4619565.69049  -3364731.43047  21390697.788    21390704.561
  20487114.603    -1723956.80749  -1337590.86847  20487113.986    20487118.363
  23601009.854     -228649.56249   -174569.86945  23601009.411    23601016.993
  20575608.817    -3408062.36249  -2644065.22947  20575608.323    20575613.314
  21782699.694     2301441.20649   1691190.90447  21782699.431    21782706.731
  24932322.798    -2224477.80549  -1727987.58745  24932322.082    24932331.866
  23612680.112     1527291.13049   1186665.14245  23612679.881    23612686.661
  21624562.514     -302402.08349   -185599.61746  21624562.537    21624568.760
  20998156.043     -547556.31849   -424730.21547  20998155.350    20998161.972
  24551102.133    -1585466.51449  -1214705.54545  24551101.777    24551110.322
 03  6  9 18  7  0.0000000  0 11G23G15G21G16G18G 6G 2G29G26G17G 3
  21948140.232    -4838061.09749  -3755116.42947  21948139.639    21948147.169
  21379750.037    -4677100.31649  -3409563.57047  21379749.298    21379756.043
  20487527.622    -1721786.37449  -1335899.62647  20487527.000    20487531.373
  23608030.805     -191754.58449   -145820.60245  23608030.370    23608037.910
  20570481.828    -3435004.79249  -2665059.30147  20570481.332    20570486.305
  21798781.502     2385951.36649   1757042.90747  21798781.267    21798788.577
  24931683.203    -2227839.28349  -1730606.96345  24931682.505    24931692.351
  23626159.187     1598123.92549   1241859.50845  23626159.030    23626165.695
  21632261.652     -261943.06849   -154073.10747  21632261.657    21632267.887
  21002847.685     -522901.63049   -405518.78647  21002847.021    21002853.633
  24532357.130    -1683972.14949  -1291463.11545  24532356.763    24532365.195
 03  6  9 18  7 30.0000000  0 11G23G15G21G16G18G 6G 2G29G26G17G 3
  21937536.242    -4893785.00449  -3798537.58847  21937535.680    21937543.203
  21368831.643    -4734476.67749  -3454272.37747  21368830.926    21368837.650
  20487991.075    -1719350.99849  -1334001.93547  20487990.439    20487994.854
  23615133.701     -154429.29849   -116736.02545  23615133.263    23615140.797
  20565431.576    -3461544.08949  -2685739.24047  20565431.078    20565436.037
  21814931.367     2470819.16349   1823173.58947  21814931.147    21814938.508
  24931122.538    -2230785.82849  -1732903.02345  24931121.723    24931131.427
  23639714.554     1669357.24249   1297365.96745  23639714.346    23639720.988
  21640080.932     -220852.44449   -122054.44046  21640080.944    21640087.178
  21007584.699     -498008.76549   -386121.76147  21007584.022    21007590.636
  24513646.239    -1782298.54049  -1368081.02945  24513645.916    24513654.147
 03  6  9 18  8  0.0000000  0 11G23G15G21G16G18G 6G 2G29G26G17G 3
  21926995.452    -4949177.06349  -3841700.16447  21926994.867    21927002.417
  21357943.673    -4791693.40149  -3498856.80047  21357942.954    21357949.634
  20488505.063    -1716649.89649  -1331897.18547  20488504.453    20488508.856
  23622318.115     -116675.44649    -87317.51945  23622317.629    23622325.179
  20560458.013    -3487680.11149  -2706104.94848  20560457.521    20560462.484
  21831149.034     2556043.15749   1889581.81747  21831148.830    21831156.191
  24930640.727    -2233317.57949  -1734875.87645  24930639.997    24930649.742
  23653345.625     1740989.14749   1353183.00545  23653345.389    23653352.109
  21648020.256     -179131.22649    -89544.39746  21648020.257    21648026.492
  21012367.120     -472877.12449   -366538.67647  21012366.441    21012373.072
  24494969.985    -1880443.13649  -1444557.28945  24494969.416    24494977.882
 03  6  9 18  8 30.0000000  0 11G23G15G21G16G18G 6G 2G29G26G17G 3
  21916517.635    -5004237.94549  -3884604.67847  21916517.071    21916524.588
  21347086.090    -4848750.20949  -3543316.61447  21347085.400    21347092.024
  20489069.640    -1713682.92049  -1329585.26447  20489069.043    20489073.447
  23629583.480      -78495.99649    -57567.36745  23629583.050    23629590.532
  20555561.039    -3513413.90749  -2726157.22848  20555560.542    20555565.505
  21847433.992     2641620.68749   1956265.52647  21847433.766    21847441.131
  24930237.677    -2235435.98049  -1736526.61245  24930236.955    24930246.634
  23667052.061     1813017.00349   1409308.56045  23667051.811    23667058.572
  21656079.065     -136781.77049    -56544.81846  21656079.059    21656085.303
  21017194.979     -447506.61749   -346769.47047  21017194.309    21017200.960
  24476328.603    -1978404.30249  -1520890.60445  24476328.141    24476336.453
 03  6  9 18  9  0.0000000  0 11G23G15G21G16G18G 6G 2G29G26G17G 3
  21906102.993    -5058967.03549  -3927250.65447  21906102.431    21906109.948
  21336259.177    -4905645.91449  -3587650.88747  21336258.466    21336265.091
  20489685.030    -1710449.15749  -1327065.44847  20489684.417    20489688.847
  23636929.396      -39892.76349    -27487.00645  23636928.975    23636936.518
  20550740.533    -3538745.69349  -2745896.25447  20550740.039    20550744.998
  21863785.896     2727550.00949   2023223.36247  21863785.666    21863793.028
  24929913.305    -2237141.25549  -1737855.43645  24929912.580    24929922.203
  23680833.407     1885438.52049   1465740.87745  23680833.210    23680839.960
  21664257.250      -93805.36149    -23056.69746  21664257.257    21664263.476
  21022068.372     -421896.84849   -326813.81747  21022067.705    21022074.371
  24457722.672    -2076179.15749  -1597078.74145  24457722.261    24457730.496
 03  6  9 18  9 30.0000000  0 11G23G15G21G16G18G 6G 2G29G26G17G 3
  21895751.487    -5113364.30049  -3969638.06947  21895750.947    21895758.423
  21325463.083    -4962379.50749  -3631858.84047  21325462.360    21325468.991
  20490351.325    -1706947.89149  -1324337.18947  20490350.725    20490355.137
  23644355.713        -867.85349      2921.94145  23644355.293    23644362.750
  20545996.475    -3563675.60949  -2765322.13547  20545995.993    20546000.960
  21880204.376     2813829.18649   2090453.81247  21880204.140    21880211.515
  24929667.368    -2238433.91749  -1738862.75745  24929666.720    24929676.115
  23694689.291     1958251.84849   1522478.50945  23694689.138    23694695.820
  21672554.432      -50203.31849     10918.92446  21672554.413    21672560.614
  21026987.421     -396047.06749   -306671.14147  21026986.740    21026993.436
  24439152.732    -2173764.94249  -1673119.56345  24439152.437    24439160.479
 03  6  9 18 10  0.0000000  0 11G23G15G21G16G18G 6G 2G29G26G17G 3
  21885463.064    -5167429.95149  -4011767.07747  21885462.530    21885470.001
  21314697.900    -5018950.66949  -3675940.22747  21314697.182    21314703.829
  20491068.565    -1703178.77549  -1321400.21447  20491067.949    20491072.384
  23651861.710       38576.10249     33657.41545  23651861.287    23651868.824
  20541328.759    -3588204.62049  -2784435.62248  20541328.274    20541333.219
  21896688.952     2900455.77949   2157954.96947  21896688.708    21896696.086
  24929499.878    -2239315.10649  -1739549.46045  24929499.147    24929508.483
  23708619.336     2031454.30049   1579519.36845  23708619.264    23708625.843
  21680970.282       -5977.87349     45380.30646  21680970.277    21680976.418
  21031952.278     -369956.77149   -286341.05447  21031951.603    21031958.255
  24420619.011    -2271159.76949  -1749011.57445  24420618.708    24420626.776
 03  6  9 18 10 30.0000000  0 11G23G15G21G16G18G 6G 2G29G26G17G 3
  21875237.878    -5221163.53949  -4053637.34247  21875237.339    21875244.792
  21303963.944    -5075358.10149  -3719894.03347  21303963.213    21303969.819
  20491837.003    -1699140.58849  -1318253.57847  20491836.397    20491840.828
  23659447.045       78437.28749     64718.00545  23659446.736    23659454.217
  20536737.343    -3612332.67049  -2803236.68248  20536736.853    20536741.789
  21913239.334     2987428.14349   2225725.56047  21913239.080    21913246.472
  24929410.422    -2239785.26549  -1739915.86045  24929409.728    24929419.021
  23722622.979     2105043.89849   1636861.90645  23722622.840    23722629.422
  21689504.498       38869.70749     80326.47346  21689504.488    21689510.650
  21036963.003     -343625.25349   -265822.99947  21036962.334    21036968.986
  24402122.268    -2368360.59749  -1824752.40645  24402122.022    24402130.181
 03  6  9 18 11  0.0000000  0 11G23G15G21G16G18G 6G 2G29G26G17G 3
  21865075.893    -5274565.11249  -4095248.89147  21865075.334    21865082.751
  21293261.284    -5131600.91649  -3763719.57147  21293260.543    21293267.166
  20492656.768    -1694832.81549  -1314896.87147  20492656.169    20492660.607
  23667111.451      118713.44649     96101.93745  23667111.069    23667118.532
  20532222.140    -3636060.35349  -2821725.76648  20532221.639    20532226.563
  21929855.058     3074744.07749   2293763.86347  21929854.797    21929862.207
  24929399.056    -2239845.19949  -1739962.61045  24929398.417    24929407.591
  23736699.793     2179018.30949   1694504.26845  23736699.675    23736706.334
  21698156.744       84337.77849    115756.12946  21698156.749    21698162.918
  21042019.762     -317052.01249   -245116.58747  21042019.093    21042025.761
  24383662.785    -2465365.32949  -1900340.46345  24383662.631    24383670.741
 03  6  9 18 11 30.0000000  0 11G23G15G21G16G18G 6G 2G29G26G17G 3
  21854977.048    -5327634.66949  -4136601.72747  21854976.465    21854983.869
  21282590.050    -5187678.25049  -3807416.16147  21282589.330    21282595.973
  20493527.931    -1690254.90449  -1311329.66847  20493527.326    20493531.757
  23674854.322      159402.06349    127807.28045  23674853.840    23674861.476
  20527783.011    -3659388.18949  -2839903.28148  20527782.502    20527787.417
  21946535.759     3162401.47049   2362068.24147  21946535.500    21946542.953
  24929465.518    -2239495.66449  -1739690.30145  24929464.870    24929474.149
  23750849.376     2253375.36649   1752444.79845  23750849.309    23750856.109
  21706926.846      130424.48549    151667.83746  21706926.817    21706932.990
  21047122.509     -290236.74049   -224221.58547  21047121.861    21047128.550
  24365241.190    -2562171.28649  -1975773.61645  24365241.005    24365249.095
 03  6  9 18 12  0.0000000  0 11G23G15G21G16G18G 6G 2G29G26G17G 3
  21844941.369    -5380372.57149  -4177696.13847  21844940.762    21844948.161
  21271950.527    -5243589.36749  -3850983.22747  21271949.786    21271956.416
  20494450.593    -1685406.27349  -1307551.51547  20494449.997    20494454.428
  23682675.220      200500.66149    159832.07145  23682674.746    23682682.321
  20523419.813    -3682316.87349  -2857769.77048  20523419.322    20523424.227
  21963281.007     3250398.05349   2430636.91647  21963280.777    21963288.206
  24929609.845    -2238737.60649  -1739099.66045  24929609.050    24929618.608
  23765071.367     2328112.28849   1810681.34245  23765071.254    23765078.170
  21715814.214      177127.98449    188060.15946  21715814.185    21715820.398
  21052271.482     -263178.83049   -203137.51247  21052270.816    21052277.512
  24346857.878    -2658776.30749  -2051050.18745  24346857.661    24346865.689
 03  6  9 18 12 30.0000000  0 11G23G15G21G16G18G 6G 2G29G26G17G 3
  21834968.731    -5432778.79649  -4218532.08647  21834968.136    21834975.559
  21261342.770    -5299333.24449  -3894419.96747  21261342.019    21261348.657
  20495424.956    -1680286.03449  -1303561.71347  20495424.363    20495428.780
  23690573.674      242006.94249    192174.54845  23690573.207    23690580.839
  20519132.519    -3704846.81449  -2875325.54248  20519132.030    20519136.914
  21980090.484     3338731.81449   2499468.33747  21980090.230    21980097.640
  24929831.888    -2237571.88949  -1738191.36945  24929831.107    24929840.436
  23779365.233     2403226.76849   1869212.06645  23779365.038    23779372.007
  21724818.594      224446.42049    224931.66246  21724818.581    21724824.815
  21057466.653     -235878.00349   -181864.15247  21057466.010    21057472.706
  24328513.272    -2755177.74649  -2126168.12745  24328512.981    24328521.031
 03  6  9 18 13  0.0000000  0 11G23G15G21G16G18G 6G 2G29G26G17G 3
  21825059.296    -5484852.85649  -4259109.21947  21825058.706    21825066.123
  21250767.054    -5354908.80549  -3937725.56947  21250766.321    21250772.944
  20496451.128    -1674893.58149  -1299359.80147  20496450.523    20496454.944
  23698549.280      283918.93149    224833.15345  23698548.766    23698556.559
  20514921.034    -3726978.27949  -2892570.82448  20514920.546    20514925.413
  21996963.758     3427401.02749   2568561.13646  21996963.509    21996970.915
  24930131.191    -2235999.04449  -1736965.82545  24930130.290    24930139.836
  23793730.654     2478717.19049   1928035.73345  23793730.433    23793737.341
  21733939.755      272378.39049    262281.24146  21733939.756    21733946.002
  21062708.261     -208333.17649   -160400.66147  21062707.621    21062714.344
  24310207.751    -2851373.08749  -2201125.46745  24310207.414    24310215.629
 03  6  9 18 13 30.0000000  0 11G23G15G21G16G18G 6G 2G29G26G17G 3
  21815213.077    -5536594.91649  -4299427.64847  21815212.483    21815219.880
  21240223.589    -5410315.16149  -3980899.31447  21240222.850    21240229.464
  20497529.173    -1669228.40549  -1294945.37547  20497528.566    20497532.962
  23706601.727      326234.26349    257806.06445  23706601.261    23706608.939
  20510785.299    -3748711.61649  -2909505.87148  20510784.799    20510789.681
  22013900.413     3516403.61249   2637913.70546  22013900.164    22013907.621
  24930507.829    -2234019.87949  -1735423.69145  24930506.999    24930516.625
  23808167.158     2554581.03649   1987150.39445  23808166.918    23808173.727
  21743177.339      320922.06749    300107.47246  21743177.332    21743183.590
  21067996.438     -180543.76449   -138746.58647  21067995.780    21068002.529
  24291942.091    -2947359.78149  -2275920.21845  24291941.778    24291949.955
 03  6  9 18 14  0.0000000  0 11G23G15G21G16G18G 6G 2G29G26G17G 3
  21805429.848    -5588005.96049  -4339488.14147  21805429.236    21805436.599
  21229712.312    -5465552.24449  -4023941.16047  21229711.557    21229718.162
  20498659.185    -1663290.36849  -1290318.32747  20498658.564    20498662.969
  23714730.347      368949.54949    291090.60545  23714729.864    23714737.482
  20506724.961    -3770048.75949  -2926132.19348  20506724.470    20506729.346
  22030899.894     3605736.21449   2707523.43546  22030899.655    22030907.151
  24930961.364    -2231636.56949  -1733566.63545  24930960.465    24930970.285
  23822674.038     2630814.78149   2046553.27545  23822673.796    23822680.531
  21752530.740      370074.34149    338407.93946  21752530.716    21752536.984
  21073331.036     -152510.43549   -116902.43947  21073330.377    21073337.104
  24273716.441    -3043136.36249  -2350551.24845  24273716.096    24273724.147
 03  6  9 18 14 30.0000000  0 11G23G15G21G16G18G 6G 2G29G26G17G 3
  21795709.842    -5639084.85449  -4379289.82547  21795709.225    21795716.554
  21219233.656    -5520617.97549  -4066849.48947  21219232.881    21219239.474
  20499841.328    -1657078.07649  -1285477.58547  20499840.716    20499845.121
  23722934.819      412063.59849    324685.87745  23722934.364    23722941.953
  20502740.165    -3790988.91049  -2942449.17948  20502739.669    20502744.543
  22047961.967     3695397.76849   2777389.47946  22047961.724    22047969.245
  24931491.825    -2228848.66949  -1731394.29945  24931490.978    24931500.821
  23837251.027     2707417.48949   2106243.64345  23837250.894    23837257.553
  21761999.820      419834.59549    377182.14546  21761999.811    21762006.041
  21078712.328     -124231.69149    -94867.07147  21078711.641    21078718.370
  24255531.418    -3138699.33349  -2425015.83645  24255530.975    24255539.037
 03  6  9 18 15  0.0000000  0 11G23G15G21G16G18G 6G 2G29G26G17G 3
  21786052.956    -5689831.91049  -4418832.93247  21786052.350    21786059.629
  21208787.739    -5575511.53449  -4109623.66047  21208786.983    21208793.573
  20501075.823    -1650590.78349  -1280422.54947  20501075.221    20501079.620
  23731214.533      455573.72949    358589.78045  23731214.082    23731221.804
  20498830.824    -3811532.65449  -2958457.27048  20498830.325    20498835.198
  22065086.190     3785386.10049   2847510.16346  22065085.969    22065093.525
  24932099.297    -2225657.13449  -1728907.47045  24932098.527    24932108.239
  23851897.693     2784386.33049   2166219.30845  23851897.555    23851904.443
  21771584.237      470200.83549    416428.55246  21771584.226    21771590.450
  21084140.434      -95706.97649    -72640.02947  21084139.754    21084146.464
  24237387.350    -3234046.32649  -2499312.13245  24237386.896    24237395.036
 03  6  9 18 15 30.0000000  0 11G23G15G21G16G18G 6G 2G29G26G17G 3
  21776459.241    -5740247.18049  -4458117.50847  21776458.641    21776465.883
  21198374.741    -5630232.02149  -4152262.96847  21198373.981    21198380.568
  20502362.738    -1643827.95149  -1275152.80847  20502362.120    20502366.520
  23739569.304      499477.60149    392800.49145  23739568.818    23739576.650
  20494996.797    -3831680.53649  -2974156.90048  20494996.299    20495001.154
  22082272.265     3875699.12249   2917883.85246  22082272.041    22082279.621
  24932783.379    -2222062.84249  -1726106.79245  24932782.573    24932792.304
  23866613.727     2861719.09749   2226478.56345  23866613.587    23866620.450
  21781283.572      521171.03949    456145.58246  21781283.571    21781289.743
  21089615.446      -66935.69449    -50220.85647  21089614.764    21089621.492
  24219284.892    -3329174.93249  -2573438.25545  24219284.508    24219292.649
 03  6  9 18 16  0.0000000  0 11G23G15G21G16G18G 6G 2G29G26G17G 3
  21766928.591    -5790330.76349  -4497143.62647  21766928.009    21766935.216
  21187994.871    -5684778.46449  -4194766.65947  21187994.127    21188000.719
  20503702.245    -1636788.90349  -1269667.83247  20503701.633    20503706.020
  23747998.417      543772.68749    427316.05545  23747997.923    23748005.892
  20491237.955    -3851433.30749  -2989548.64848  20491237.452    20491242.317
  22099519.698     3966334.57249   2988508.78246  22099519.471    22099527.087
  24933543.875    -2218066.76549  -1722993.03345  24933542.998    24933552.934
  23881398.636     2939413.43949   2287019.55545  23881398.501    23881405.249
  21791097.495      572743.34949    496331.79646  21791097.477    21791103.621
  21095137.412      -37917.68549    -27609.42547  21095136.741    21095143.480
  24201224.542    -3424082.56349  -2647392.18545  24201224.151    24201232.305
 03  6  9 18 16 30.0000000  0 11G23G15G21G16G18G 6G 2G29G26G17G 3
  21757461.041    -5840082.92049  -4535911.49847  21757460.464    21757467.686
  21177648.254    -5739150.20249  -4237134.22147  21177647.510    21177654.083
  20505094.421    -1629473.07149  -1263967.19147  20505093.799    20505098.197
  23756501.549      588456.32849    462134.38845  23756500.927    23756509.082
  20487554.154    -3870791.83849  -3004633.20248  20487553.652    20487558.509
  22116828.065     4057290.18049   3059383.18046  22116827.839    22116835.462
  24934380.578    -2213670.21449  -1719567.22645  24934379.678    24934389.568
  23896251.738     3017466.53849   2347840.10645  23896251.589    23896258.335
  21801025.579      624915.53849    536985.42746  21801025.554    21801031.635
  21100706.410       -8652.41249     -4805.33047  21100705.725    21100712.498
  24183206.618    -3518767.08549  -2721172.25945  24183206.195    24183214.363
 03  6  9 18 17  0.0000000  0 11G23G15G21G16G18G 6G 2G29G26G17G 3
  21748056.573    -5889503.67349  -4574421.13247  21748055.994    21748063.214
  21167335.144    -5793345.95349  -4279364.64047  21167334.399    21167340.948
  20506539.478    -1621879.46349  -1258050.09447  20506538.849    20506543.226
  23765078.208      633526.51849    497253.91945  23765077.549    23765085.697
  20483945.289    -3889756.54049  -3019410.87048  20483944.790    20483949.646
  22134196.970     4148563.84749   3130505.40646  22134196.714    22134204.343
  24935293.316    -2208873.91349  -1715829.92945  24935292.346    24935302.228
  23911172.689     3095876.54049   2408938.76245  23911172.530    23911179.332
  21811067.403      677685.83749    578105.13446  21811067.382    21811073.438
  21106322.464       20860.38449     18191.64347  21106321.797    21106328.597
  24165231.688    -3613225.71649  -2794776.32245  24165231.258    24165239.573
 03  6  9 18 17 30.0000000  0 11G23G15G21G16G18G 6G 2G29G26G17G 3
  21738715.095    -5938593.15049  -4612672.62447  21738714.521    21738721.740
  21157055.670    -5847364.69149  -4321457.13147  21157054.916    21157061.480
  20508037.374    -1614007.88949  -1251916.40447  20508036.752    20508041.115
  23773727.902      678980.71149    532672.67445  23773727.310    23773735.430
  20480411.297    -3908327.68749  -3033881.87448  20480410.787    20480415.630
  22151625.965     4240153.45249   3201873.82346  22151625.738    22151633.374
  24936281.992    -2203678.81649  -1711781.86445  24936281.022    24936290.900
  23926161.170     3174641.01049   2470313.63545  23926160.983    23926167.775
  21821222.731      731052.31149    619689.39746  21821222.702    21821228.713
  21111985.910       50621.84249     41382.38147  21111985.227    21111992.042
  24147300.148    -3707456.05349  -2868202.50845  24147299.842    24147307.949
 03  6  9 18 18  0.0000000  0 11G23G15G21G16G18G 6G 2G29G26G17G 3
  21729436.837    -5987350.43649  -4650665.26847  21729436.274    21729443.466
  21146810.307    -5901204.36849  -4363410.08947  21146809.588    21146816.122
  20509588.555    -1605856.40349  -1245564.59447  20509587.948    20509592.314
  23782450.450      724817.47549    568389.54245  23782449.832    23782457.837
  20476952.261    -3926505.08949  -3048046.06048  20476951.761    20476956.587
  22169114.860     4332057.77849   3273487.48246  22169114.611    22169122.304
  24937346.570    -2198084.99949  -1707423.11245  24937345.535    24937355.550
  23941216.790     3253758.47349   2531963.57045  23941216.621    23941223.354
  21831491.306      785013.77249    661737.28546  21831491.263    21831497.256
  21117696.908       80633.27849     64767.91347  21117696.213    21117703.073
  24129412.778    -3801454.53349  -2941448.00645  24129412.515    24129420.614
 03  6  9 18 18 30.0000000  0 11G23G15G21G16G18G 6G 2G29G26G17G 3
  21720221.065    -6035779.57549  -4688402.20747  21720220.504    21720227.668
  21136598.445    -5954868.01649  -4405225.89147  21136597.698    21136604.231
  20511192.393    -1597428.16649  -1238997.14147  20511191.767    20511196.168
  23791244.526      771030.24449    604399.39145  23791243.855    23791251.945
  20473567.226    -3944293.45649  -3061907.10648  20473566.725    20473571.533
  22186662.490     4424270.75549   3345341.64146  22186662.243    22186669.980
  24938485.945    -2192097.31049  -1702757.45145  24938485.125    24938495.079
  23956338.394     3333222.45549   2593883.49545  23956338.202    23956344.886
  21841871.914      839564.31149    704244.18346  21841871.877    21841877.929
  21123454.799      110891.13549     88345.45247  21123454.127    21123460.941
  24111569.251    -3895222.71349  -3014514.05245  24111569.058    24111576.938
 03  6  9 18 19  0.0000000  0 11G23G15G21G16G18G 6G 2G29G26G17G 3
  21711068.632    -6083875.60549  -4725879.58747  21711068.070    21711075.253
  21126421.191    -6008349.72749  -4446899.92147  21126420.444    21126426.972
  20512849.888    -1588717.94449  -1232209.95847  20512849.270    20512853.653
  23800110.581      817621.60249    640704.24545  23800110.056    23800118.170
  20470257.080    -3961688.33849  -3075461.53548  20470256.566    20470261.413
  22204269.394     4516795.18549   3417438.48746  22204269.134    22204276.922
  24939701.099    -2185711.82549  -1697781.84045  24939700.435    24939710.172
  23971526.561     3413035.86849   2656075.71145  23971526.247    23971532.994
  21852365.178      894706.78349    747212.33646  21852365.143    21852371.234
  21129260.622      141400.77449    112119.18847  21129259.938    21129266.771
  24093771.071    -3988752.81549  -3087394.59145  24093770.790    24093778.805
 03  6  9 18 19 30.0000000  0 11G23G15G21G16G18G 6G 2G29G26G17G 3
  21701979.160    -6131641.20149  -4763099.48147  21701978.563    21701985.715
  21116278.306    -6061650.84149  -4488433.22747  21116277.555    21116284.066
  20514560.836    -1579726.99149  -1225204.01947  20514560.196    20514564.614
  23809047.731      864586.37249    677300.08345  23809047.190    23809055.329
  20467021.232    -3978692.60349  -3088711.59348  20467020.726    20467025.566
  22221934.681     4609626.44549   3489774.42346  22221934.425    22221942.233
  24940991.420    -2178931.91149  -1692498.85645  24940990.750    24941000.208
  23986780.146     3493193.71449   2718536.32345  23986779.848    23986786.623
  21862970.202      950436.63749    790638.18446  21862970.181    21862976.277
  21135114.019      172160.56849    136087.84847  21135113.346    21135120.192
  24076018.200    -4082045.15249  -3160089.85745  24076017.829    24076025.679
 03  6  9 18 20  0.0000000  0 11G23G15G21G16G18G 6G 2G29G26G17G 3
  21692952.542    -6179076.21249  -4800061.77547  21692951.952    21692959.122
  21106170.088    -6114769.94649  -4529824.70747  21106169.333    21106175.837
  20516325.318    -1570454.46749  -1217978.67447  20516324.694    20516329.105
  23818055.593      911922.71949    714185.44345  23818055.073    23818063.198
  20463859.687    -3995306.66949  -3101657.59448  20463859.185    20463864.010
  22239657.948     4702762.52349   3562347.87246  22239657.705    22239665.549
  24942356.506    -2171758.31649  -1686909.10645  24942355.847    24942365.508
  24002098.820     3573693.94149   2781263.72545  24002098.533    24002105.323
  21873686.698     1006752.28149    834520.48146  21873686.682    21873692.798
  21141015.204      203171.52349    160252.22447  21141014.520    21141021.390
  24058311.047    -4175096.74449  -3232597.53745  24058310.608    24058318.544
 03  6  9 18 20 30.0000000  0 11G23G15G21G16G18G 6G 2G29G26G17G 3
  21683988.753    -6226181.02249  -4836766.76547  21683988.167    21683995.332
  21096096.598    -6167706.19749  -4571073.70447  21096095.877    21096102.354
  20518143.513    -1560899.80049  -1210533.47747  20518142.885    20518147.308
  23827133.634      959627.86749    751358.19245  23827133.159    23827141.357
  20460772.213    -4011531.40149  -3114300.21348  20460771.693    20460776.533
  22257438.785     4796201.13649   3635157.07246  22257438.566    22257446.470
  24943796.267    -2164192.12549  -1681013.46945  24943795.609    24943805.532
  24017482.151     3654533.78549   2844255.78145  24017481.904    24017488.721
  21884514.215     1063651.22149    878857.30946  21884514.206    21884520.332
  21146964.295      234434.11149    184612.68347  21146963.622    21146970.509
  24040650.160    -4267905.30249  -3304915.83545  24040649.714    24040657.567
 03  6  9 18 21  0.0000000  0 11G23G15G21G16G18G 6G 2G29G26G17G 3
  21675087.830    -6272955.65349  -4873214.47547  21675087.230    21675094.367
  21086058.150    -6220458.47249  -4612179.34747  21086057.426    21086063.906
  20520015.521    -1551062.34349  -1202867.93047  20520014.919    20520019.340
  23836281.373     1007699.35049    788816.37545  23836280.856    23836289.154
  20457758.746    -4027367.27849  -3126639.83448  20457758.229    20457763.060
  22275276.847     4889940.07249   3708200.27546  22275276.587    22275284.509
  24945310.563    -2156234.47449  -1674812.79545  24945309.940    24945319.990
  24032929.780     3735711.21149   2907510.85945  24032929.569    24032936.339
  21895452.381     1121131.48549    923647.10946  21895452.374    21895458.483
  21152961.385      265948.90549    209169.65647  21152960.710    21152967.594
  24023036.009    -4360468.04549  -3377042.59145  24023035.519    24023043.317
 03  6  9 18 21 30.0000000  0 11G23G15G21G16G18G 6G 2G29G26G17G 3
  21666249.690    -6319400.13349  -4909404.92347  21666249.108    21666256.235
  21076054.962    -6273025.66749  -4653140.76847  21076054.221    21076060.682
  20521941.554    -1540941.16149  -1194981.30147  20521940.936    20521945.361
  23845498.460     1056134.68149    826558.10245  23845497.895    23845506.256
  20454819.109    -4042815.12649  -3138677.09548  20454818.594    20454823.427
  22293171.625     4983977.11249   3781475.76846  22293171.378    22293179.277
  24946899.350    -2147886.58749  -1668308.03345  24946898.791    24946908.566
  24048441.063     3817223.75449   2971027.08045  24048440.851    24048447.730
  21906500.754     1179190.95049    968888.23246  21906500.745    21906506.847
  21159006.504      297716.31549    233923.47447  21159005.825    21159012.730
  24005469.085    -4452782.42649  -3448975.82945  24005468.689    24005476.522
 03  6  9 18 22  0.0000000  0 11G23G15G21G16G18G 6G 2G29G26G17G 3
  21657474.295    -6365515.01249  -4945338.54147  21657473.713    21657480.848
  21066087.070    -6325407.21949  -4693957.53947  21066086.332    21066092.784
  20523921.607    -1530535.97049  -1186873.36547  20523920.975    20523925.413
  23854784.233     1104930.92549    864581.02245  23854783.656    23854792.004
  20451953.168    -4057875.73249  -3150412.60848  20451952.658    20451957.481
  22311122.652     5078309.84849   3854981.67046  22311122.391    22311130.319
  24948562.040    -2139149.85649  -1661500.27245  24948561.311    24948571.247
  24064015.639     3899068.63749   3034802.25045  24064015.420    24064022.260
  21917658.897     1237827.24549   1014578.82846  21917658.870    21917664.994
  21165099.740      329736.45249    258874.22347  21165099.047    21165105.942
  23987949.901    -4544846.25749  -3520713.80445  23987949.449    23987957.335
 03  6  9 18 22 30.0000000  0 11G23G15G21G16G18G 6G 2G29G26G17G 3
  21648761.556    -6411300.21549  -4981015.26747  21648760.995    21648768.133
  21056154.794    -6377601.58349  -4734628.44647  21056154.048    21056160.492
  20525955.828    -1519846.08649  -1178543.58947  20525955.187    20525959.642
  23864138.162     1154085.86549    902883.45845  23864137.641    23864146.037
  20449160.784    -4072549.74449  -3161846.87848  20449160.261    20449165.079
  22329129.529     5172936.15449   3928716.32246  22329129.265    22329137.250
  24950298.493    -2130024.99349  -1654390.07645  24950297.878    24950307.815
  24079653.067     3981243.75849   3098834.75845  24079652.773    24079659.787
  21928926.364     1297038.13549   1060717.16146  21928926.350    21928932.466
  21171241.266      362010.11249    284022.52547  21171240.535    21171247.467
  23970478.790    -4636657.00549  -3592254.58245  23970478.394    23970486.349
 03  6  9 18 23  0.0000000  0 11G23G15G21G16G18G 6G 2G29G26G17G 3
  21640111.885    -6456754.42249  -5016434.07147  21640111.313    21640118.432
  21046258.613    -6429606.30849  -4775151.58147  21046257.879    21046264.297
  20528044.691    -1508869.15749  -1169990.14247  20528044.061    20528048.483
  23873560.189     1203598.42649    941464.54745  23873559.668    23873568.052
  20446442.152    -4086836.08649  -3172979.06848  20446441.633    20446446.440
  22347192.131     5267855.33749   4002679.19046  22347191.861    22347199.871
  24952108.834    -2120511.65949  -1646977.18845  24952108.254    24952118.198
  24095353.216     4063748.32249   3163123.97445  24095352.945    24095359.933
  21940303.107     1356823.16449   1107302.88546  21940303.074    21940309.224
  21177431.433      394539.66349    309370.21547  21177430.730    21177437.660
  23953056.634    -4728210.50649  -3663594.91345  23953056.214    23953064.295
 03  6  9 18 23 30.0000000  0 11G23G15G21G16G18G 6G 2G29G26G17G 3
  21631524.429    -6501881.82649  -5051598.22547  21631523.828    21631530.935
  21036397.991    -6481424.09449  -4815529.05547  21036397.245    21036403.674
  20530187.559    -1497608.40249  -1161215.53047  20530186.917    20530191.324
  23883049.008     1253462.18949    980319.32145  23883048.470    23883056.919
  20443796.399    -4100739.52649  -3183812.89548  20443795.895    20443800.683
  22365309.305     5363061.23749   4076865.46746  22365309.028    22365317.067
  24953992.355    -2110614.90649  -1639265.51745  24953991.610    24954001.373
  24111114.807     4146575.66349   3227664.70045  24111114.582    24111121.562
  21951787.873     1417175.93649   1154330.98246  21951787.863    21951794.018
  21183669.558      427321.30449    334914.33447  21183668.851    21183675.785
  23935683.226    -4819508.26749  -3734735.94745  23935682.722    23935690.950
 03  6  9 18 24  0.0000000  0 11G23G15G21G16G18G 6G 2G29G26G17G 3
  21622999.636    -6546679.75649  -5086505.64647  21622999.029    21623006.112
  21026573.737    -6533050.77649  -4855757.61347  21026572.986    21026579.426
  20532385.135    -1486060.09049  -1152216.84547  20532384.486    20532388.916
  23892604.634     1303677.23949   1019447.81845  23892604.154    23892612.605
  20441223.954    -4114257.85349  -3194346.62848  20441223.455    20441228.230
  22383481.194     5458554.49049   4151275.66046  22383480.918    22383488.970
  24955949.011    -2100333.09149  -1631253.80845  24955948.216    24955957.925
  24126937.936     4229726.52949   3292457.51845  24126937.748    24126944.713
  21963380.874     1478097.28549   1201802.14646  21963380.858    21963387.007
  21189956.310      460358.22749    360657.38047  21189955.609    21189962.509
  23918359.528    -4910544.57949  -3805673.27645  23918359.075    23918367.247
 03  6  9 18 24 30.0000000  0 11G23G15G21G16G18G 6G 2G29G26G17G 3
  21614537.293    -6591149.53249  -5121157.36047  21614536.698    21614543.722
  21016785.860    -6584486.32849  -4895837.23347  21016785.112    21016791.552
  20534637.415    -1474224.33949  -1142994.19047  20534636.777    20534641.228
  23902226.624     1354240.31149   1058847.48745  23902226.093    23902234.579
  20438724.497    -4127392.59249  -3204581.46548  20438723.986    20438728.779
  22401707.106     5554331.82749   4225907.21746  22401706.871    22401714.910
  24957978.686    -2089668.30349  -1622943.66245  24957977.741    24957987.396
  24142822.009     4313197.37849   3357499.68845  24142821.742    24142828.767
  21975081.426     1539583.90749   1249713.77146  21975081.358    21975087.536
  21196291.706      493650.60049    386599.47447  21196290.993    21196297.854
  23901085.819    -5001318.24049  -3876405.93545  23901085.283    23901093.501
 03  6  9 18 25  0.0000000  0 11G23G15G21G16G18G 6G 2G29G26G17G 3
  21606137.455    -6635290.97849  -5155553.23647  21606136.843    21606143.868
  21007034.599    -6635729.52549  -4935766.97547  21007033.843    21007040.293
  20536944.513    -1462100.48349  -1133547.03047  20536943.880    20536948.301
  23911914.312     1405149.03749   1098516.51245  23911913.826    23911922.348
  20436297.927    -4140144.17149  -3214517.73348  20436297.416    20436302.206
  22419986.727     5650391.42849   4300758.71346  22419986.486    22419994.567
  24960080.945    -2078621.50249  -1614335.87745  24960079.786    24960089.604
  24158766.542     4396986.20049   3422789.64045  24158766.244    24158773.299
  21986889.135     1601633.77949   1298064.30746  21986889.063    21986895.288
  21202675.750      527199.02549    412741.08847  21202675.043    21202681.911
  23883862.655    -5091826.15149  -3946931.51345  23883862.246    23883870.394
 03  6  9 18 25 30.0000000  0 11G23G15G21G16G18G 6G 2G29G26G17G 3
  21597800.008    -6679104.11749  -5189693.28347  21597799.424    21597806.432
  20997320.148    -6686779.16649  -4975545.89447  20997319.378    20997325.842
  20539306.556    -1449687.88749  -1123874.88547  20539305.915    20539310.321
  23921667.304     1456400.67549   1138452.72445  23921666.804    23921675.316
  20433944.154    -4152513.31849  -3224156.01048  20433943.625    20433948.399
  22438319.628     5746730.92049   4375828.29846  22438319.374    22438327.555
  24962255.522    -2067193.66649  -1605431.17545  24962254.361    24962264.414
  24174771.094     4481090.46249   3488325.37645  24174770.794    24174777.970
  21998803.643     1664244.82249   1346852.10146  21998803.585    21998809.748
  21209108.624      561004.13349    439082.71547  21209107.930    21209114.832
  23866690.606    -5182065.74149  -4017248.02645  23866690.164    23866698.359
 03  6  9 18 26  0.0000000  0 11G23G15G21G16G18G 6G 2G29G26G17G 3
  21589525.043    -6722589.23049  -5223577.73347  21589524.453    21589531.429
  20987642.818    -6737633.69949  -5015172.77747  20987642.058    20987648.519
  20541723.807    -1436985.18149  -1113976.67347  20541723.171    20541727.552
  23931485.041     1507992.97149   1178654.38645  23931484.498    23931493.197
  20431663.023    -4164500.52749  -3233496.67348  20431662.514    20431667.286
  22456705.390     5843348.24749   4451114.37446  22456705.166    22456713.376
  24964502.395    -2055385.84149  -1596230.36545  24964501.455    24964511.599
  24190835.164     4565507.93549   3554105.15745  24190834.893    24190842.072
  22010824.512     1727414.69449   1396075.36046  22010824.463    22010830.575
  21215590.504      595066.50349    465624.80347  21215589.813    21215596.694
  23849570.136    -5272034.41349  -4087353.41845  23849569.717    23849577.930
 03  6  9 18 26 30.0000000  0 11G23G15G21G16G18G 6G 2G29G26G17G 3
  21581312.429    -6765746.62749  -5257206.81547  21581311.819    21581318.788
  20978002.819    -6788292.29649  -5054646.98747  20978002.071    20978008.493
  20544196.319    -1423992.16749  -1103852.25347  20544195.689    20544200.067
  23941367.022     1559923.10349   1219119.29945  23941366.457    23941375.320
  20429454.424    -4176106.84749  -3242540.53848  20429453.903    20429458.668
  22475143.627     5940240.97449   4526615.03846  22475143.352    22475151.629
  24966821.337    -2043199.45149  -1586734.56745  24966820.400    24966830.727
  24206958.536     4650236.25449   3620127.17145  24206958.191    24206965.404
  22022951.218     1791140.98449   1445732.18346  22022951.188    22022957.286
  21222121.387      629386.65149    492367.75447  21222120.702    21222127.633
  23832501.572    -5361729.73749  -4157245.82045  23832501.212    23832509.430
 03  6  9 18 27  0.0000000  0 10G23G15G21G16G18G 6G29G26G17G 3
  21573162.222    -6808576.14549  -5290580.40747  21573161.591    21573168.563
  20968400.369    -6838753.51949  -5093967.40047  20968399.619    20968406.033
  20546724.270    -1410707.60249  -1093500.64847  20546723.639    20546728.004
  23951313.033     1612188.96449   1259845.80945  23951312.541    23951321.287
  20427318.270    -4187332.23049  -3251287.57348  20427317.742    20427322.527
  22493633.873     6037407.16849   4602328.80546  22493633.591    22493641.864
  24223140.617     4735273.18249   3686389.63845  24223140.248    24223147.474
  22035183.493     1855421.73549   1495821.06346  22035183.460    22035189.533
  21228701.680      663966.09549    519312.75547  21228700.986    21228707.881
  23815485.736    -5451148.68249  -4226922.87445  23815485.353    23815493.534
 03  6  9 18 27 30.0000000  0 10G23G15G21G16G18G 6G29G26G17G 3
  21565074.543    -6851076.76449  -5323697.71847  21565073.920    21565080.893
  20958835.956    -6889014.80849  -5133132.02147  20958835.200    20958841.584
  20549308.080    -1397129.63649  -1082920.42247  20549307.450    20549311.809
  23961322.633     1664789.08349   1300832.79745  23961322.082    23961330.895
  20425254.645    -4198176.53149  -3259737.66948  20425254.141    20425258.889
  22512176.004     6134846.01149   4678255.00846  22512175.715    22512184.034
  24239381.192     4820617.71549   3752891.81145  24239380.905    24239387.842
  22047521.051     1920255.93549   1546341.19546  22047521.009    22047527.061
  21235331.575      698806.24749    546460.90047  21235330.876    21235337.763
  23798523.144    -5540287.67649  -4296381.77345  23798522.746    23798530.849
 03  6  9 18 28  0.0000000  0 10G23G15G21G16G18G 6G29G26G17G 3
  21557048.813    -6893252.12749  -5356561.58147  21557048.216    21557055.168
  20949309.171    -6939078.46549  -5172142.63947  20949308.406    20949314.775
  20551947.248    -1383260.76949  -1072113.51447  20551946.623    20551950.993
  23971394.562     1717717.31449   1342075.43545  23971393.999    23971402.970
  20423262.854    -4208643.51649  -3267893.74848  20423262.340    20423267.096
  22530768.892     6232551.72249   4754389.16646  22530768.593    22530776.968
  24255679.124     4906263.78749   3819628.94745  24255678.873    24255685.756
  22059962.746     1985637.74549   1597288.03146  22059962.726    22059968.850
  21242010.457      733903.76049    573809.59047  21242009.743    21242016.622
  23781613.663    -5629147.33549  -4365623.00845  23781613.312    23781621.377
 03  6  9 18 28 30.0000000  0 10G23G15G21G16G18G 6G29G26G17G 3
  21549085.008    -6935101.94849  -5389171.78147  21549084.429    21549091.331
  20939820.321    -6988942.59949  -5210997.78947  20939819.565    20939825.933
  20554642.029    -1369099.76549  -1061078.97347  20554641.398    20554645.766
  23981528.572     1770971.69049   1383572.21445  23981528.054    23981537.042
  20421342.780    -4218733.51449  -3275756.07248  20421342.279    20421347.019
  22549412.235     6330522.71749   4830730.03046  22549411.956    22549420.373
  24272034.217     4992209.85749   3886599.83645  24272033.971    24272040.910
  22072508.363     2051565.43149   1648660.22346  22072508.341    22072514.564
  21248738.571      769260.36349    601360.17447  21248737.875    21248744.788
  23764757.953    -5717724.50049  -4434644.12445  23764757.661    23764765.631
 03  6  9 18 29  0.0000000  0 10G23G15G21G16G18G 6G29G26G17G 3
  21541183.119    -6976626.59649  -5421528.60147  21541182.520    21541189.416
  20930369.727    -7038605.83949  -5249696.39347  20930368.977    20930375.344
  20557392.492    -1354645.80249  -1049816.14647  20557391.864    20557396.259
  23991724.229     1824549.82749   1425321.27445  23991723.705    23991732.718
  20419494.324    -4228447.21349  -3283325.17748  20419493.819    20419498.553
  22568105.683     6428756.77849   4907275.89146  22568105.435    22568113.884
  24288445.876     5078453.49549   3953802.63645  24288445.679    24288452.600
  22085157.383     2118036.52949   1700455.86246  22085157.353    22085163.619
  21255516.116      804876.60949    629113.07047  21255515.413    21255522.322
  23747956.432    -5806016.67749  -4503443.17045  23747956.152    23747964.133
 03  6  9 18 29 30.0000000  0 10G23G15G21G16G18G 6G29G26G17G 3
  21533343.144    -7017825.99149  -5453631.97747  21533342.547    21533349.371
  20920957.536    -7088066.96749  -5288237.51047  20920956.783    20920963.178
  20560198.907    -1339898.09749  -1038324.43347  20560198.291    20560202.688
  24001981.013     1878449.25249   1467320.70145  24001980.444    24001989.545
  20417717.358    -4237785.29449  -3290601.59248  20417716.859    20417721.579
  22586848.783     6527251.75649   4984025.05346  22586848.520    22586856.988
  24304913.621     5164992.52149   4021235.58945  24304913.498    24304920.420
  22097909.416     2185049.03149   1752673.37946  22097909.396    22097915.677
  21262343.215      840753.08249    657068.74547  21262342.517    21262349.437
  23731209.719    -5894021.05849  -4572017.96145  23731209.445    23731217.390
 03  6  9 18 30  0.0000000  0 10G23G15G21G16G18G 6G29G26G17G 3
  21525564.973    -7058700.38949  -5485482.11047  21525564.352    21525571.167
  20911584.068    -7137324.70349  -5326620.14247  20911583.332    20911589.694
  20563061.413    -1324855.47949  -1026602.91447  20563060.799    20563065.216
  24012298.437     1932667.08149   1509568.20945  24012297.941    24012306.917
  20416011.760    -4246748.21649  -3297585.67748  20416011.259    20416015.987
  22605641.113     6626005.31749   5060975.70446  22605640.870    22605649.364
  24321437.196     5251824.42249   4088896.76445  24321437.010    24321444.106
  22110764.082     2252600.57549   1805310.93046  22110764.066    22110770.350
  21269219.934      876890.48249    685227.73547  21269219.246    21269226.146
  23714518.192    -5981735.00549  -4640366.43145  23714517.981    23714525.867
 03  6  9 18 30 30.0000000  0 10G23G15G21G16G18G 6G29G26G17G 3
  21517848.546    -7099250.17349  -5517079.30347  21517847.944    21517854.763
  20902249.563    -7186377.94849  -5364843.43747  20902248.834    20902255.162
  20565980.103    -1309517.64149  -1014651.36447  20565979.489    20565983.919
  24022676.119     1987200.79949   1552061.86245  24022675.547    24022684.413
  20414377.387    -4255336.90149  -3304278.15648  20414376.891    20414381.600
  22624482.206     6725015.06249   5138125.97946  22624481.937    22624490.452
  24338016.085     5338946.60949   4156784.12145  24338015.843    24338022.911
  22123720.811     2320688.38149   1858366.32346  22123720.797    22123727.064
  21276146.444      913289.32349    713590.44747  21276145.761    21276152.651
  23697882.358    -6069155.96949  -4708486.60545  23697882.198    23697890.142
 03  6  9 18 31  0.0000000  0 10G23G15G21G16G18G 6G29G26G17G 3
  21510193.776    -7139476.00949  -5548424.06447  21510193.203    21510199.999
  20892954.212    -7235225.42649  -5402906.38747  20892953.449    20892959.807
  20568955.093    -1293883.99349  -1002469.30247  20568954.469    20568958.894
  24033113.319     2042047.46249   1594799.39145  24033112.801    24033121.526
  20412814.034    -4263552.39149  -3310679.82348  20412813.523    20412818.233
  22643371.533     6824278.49549   5215473.92646  22643371.270    22643379.842
  24354649.689     5426356.55949   4224895.69645  24354649.497    24354656.556
  22136779.080     2389309.84949   1911837.57246  22136779.046    22136785.360
  21283122.802      949949.99049    742157.18647  21283122.091    21283128.984
  23681302.783    -6156281.61249  -4776376.63845  23681302.626    23681310.686
 03  6  9 18 31 30.0000000  0 10G23G15G21G16G18G 6G29G26G17G 3
  21502600.743    -7179377.71449  -5579516.26247  21502600.160    21502606.924
  20883698.317    -7283865.41049  -5440807.65747  20883697.547    20883703.911
  20571986.573    -1277953.54849   -990055.97947  20571985.960    20571990.367
  24043609.565     2097204.77749   1637778.95245  24043609.115    24043617.748
  20411321.652    -4271394.92749  -3316790.88748  20411321.136    20411325.838
  22662308.798     6923793.82149   5293018.14746  22662308.530    22662317.123
  24371337.592     5514052.27949   4293229.94645  24371337.444    24371344.528
  22149938.448     2458462.99349   1965723.11246  22149938.417    22149944.790
  21290149.094      986873.35049    770928.61347  21290148.377    21290155.263
  23664779.984    -6243108.99549  -4844034.27245  23664779.834    23664787.989
 03  6  9 18 32  0.0000000  0 11G23G15G21G16G18G 6G29G26G17G14G 3
  21495069.086    -7218956.85449  -5610357.10947  21495068.504    21495075.209
  20874481.837    -7332298.15349  -5478547.43547  20874481.088    20874487.432
  20575074.463    -1261726.76149   -977411.72747  20575073.843    20575078.234
  24054164.019     2152668.92749   1680997.61645  24054163.639    24054172.212
  20409899.814    -4278866.60549  -3322612.95948  20409899.321    20409904.029
  22681293.360     7023557.59949   5370755.98346  22681293.077    22681301.710
  24388079.301     5602030.09549   4361784.04045  24388079.005    24388086.366
  22163198.386     2528144.08849   2020020.04846  22163198.337    22163204.689
  21297225.179     1024058.39449    799903.95347  21297224.498    21297231.359
  24667055.914    -2776616.94149  -2145194.92844  24667055.184    24667067.441
  23648314.209    -6329636.78449  -4911458.46945  23648314.043    23648322.302
 03  6  9 18 32 30.0000000  0 11G23G15G21G16G18G 6G29G26G17G14G 3
  21487597.754    -7258218.74849  -5640950.74947  21487597.176    21487603.875
  20865304.109    -7380527.49749  -5516128.72047  20865303.351    20865309.696
  20578217.928    -1245207.90749   -964539.89547  20578217.287    20578221.677
  24064775.493     2208432.15849   1724449.32945  24064775.143    24064783.792
  20408547.464    -4285973.10849  -3328150.48448  20408546.977    20408551.694
  22700323.792     7123562.39549   5448681.60846  22700323.523    22700332.206
  24404873.224     5690282.63849   4430552.21045  24404872.958    24404880.278
  22176557.364     2598345.71849   2074722.61046  22176557.309    22176563.674
  21304350.371     1061501.30049    829080.23047  21304349.676    21304356.516
  24645243.797    -2891239.39949  -2234510.90844  24645243.064    24645255.630
  23631904.952    -6415867.66149  -4978651.29245  23631904.833    23631912.986
 03  6  9 18 33  0.0000000  0 11G23G15G21G16G18G 6G29G26G17G14G 3
  21480188.720    -7297153.24949  -5671289.29147  21480188.145    21480194.847
  20856167.294    -7428541.62949  -5553542.31647  20856166.536    20856172.881
  20581419.081    -1228385.59749   -951431.60747  20581418.450    20581422.850
  24075445.247     2264502.08149   1768140.01945  24075444.937    24075453.827
  20407266.425    -4292705.03149  -3333396.13548  20407265.934    20407270.655
  22719401.574     7223816.21949   5526801.28146  22719401.276    22719410.013
  24421720.929     5778817.80449   4499540.59445  24421720.614    24421727.949
  22190016.806     2669075.59649   2129836.76346  22190016.781    22190023.167
  21311526.660     1099212.96949    858465.92447  21311525.978    21311532.813
  24623434.498    -3005847.36349  -2323815.65344  24623433.922    24623446.219
  23615554.664    -6501788.51649  -5045602.55345  23615554.522    23615562.665
 03  6  9 18 33 30.0000000  0 11G23G15G21G16G18G 6G29G26G17G14G 3
  21472841.255    -7335764.26449  -5701375.75547  21472840.662    21472847.366
  20847071.018    -7476342.78349  -5590789.95147  20847070.254    20847076.619
  20584677.480    -1211262.56949   -938088.98847  20584676.855    20584681.265
  24086172.303     2320872.81849   1812065.10245  24086172.090    24086181.009
  20406055.854    -4299066.59349  -3338353.18248  20406055.352    20406060.065
  22738525.695     7324313.34349   5605110.53146  22738525.396    22738534.191
  24438621.316     5867629.69149   4568744.58645  24438621.035    24438628.390
  22203575.615     2740327.75749   2185357.92146  22203575.604    22203581.993
  21318753.533     1137190.27349    888058.61347  21318752.845    21318759.694
  24601627.867    -3120441.41549  -2413109.65144  24601627.218    24601639.954
  23599263.266    -6587400.18349  -5112312.88245  23599263.110    23599271.313
 03  6  9 18 34  0.0000000  0 11G23G15G21G16G18G 6G29G26G17G14G 3
  21465555.113    -7374053.01149  -5731211.11047  21465554.526    21465561.221
  20838015.370    -7523930.54049  -5627871.30747  20838014.593    20838020.956
  20587992.960    -1193839.43949   -924512.52947  20587992.330    20587996.768
  24096955.905     2377540.45249   1856221.52445  24096955.604    24096964.627
  20404915.454    -4305059.28149  -3343022.80048  20404914.971    20404919.677
  22757695.480     7425050.51849   5683606.84546  22757695.175    22757703.994
  24455573.727     5956715.15049   4638161.77445  24455573.519    24455580.703
  22217233.195     2812098.87449   2241283.44746  22217233.170    22217239.586
  21326030.806     1175432.69949    917857.89247  21326030.126    21326036.981
  24579824.163    -3235019.70749  -2502391.14344  24579823.912    24579835.902
  23583031.049    -6672701.14549  -5178781.12545  23583030.867    23583038.910
 03  6  9 18 34 30.0000000  0 11G23G15G21G16G18G 6G29G26G17G14G 3
  21458330.135    -7412020.37749  -5760796.03647  21458329.538    21458336.239
  20829000.455    -7571304.14249  -5664785.79047  20828999.684    20829006.050
  20591365.744    -1176115.56649   -910701.72947  20591365.125    20591369.544
  24107795.451     2434501.84649   1900606.88445  24107795.040    24107804.031
  20403845.008    -4310684.50149  -3347406.07948  20403844.512    20403849.218
  22776910.416     7526024.98849   5762288.05646  22776910.123    22776919.042
  24472577.651     6046071.04049   4707789.69345  24472577.367    24472584.576
  22230989.013     2884385.89849   2297610.97446  22230988.957    22230995.407
  21333358.635     1213940.59849    947864.03447  21333357.953    21333364.793
  24558023.887    -3349580.82549  -2591659.73344  24558023.614    24558037.567
  23566858.495    -6757689.04049  -5245005.41345  23566858.223    23566866.242
 03  6  9 18 35  0.0000000  0 11G23G15G21G16G18G 6G29G26G17G14G 3
  21451166.206    -7449666.96349  -5790130.99847  21451165.597    21451172.311
  20820026.469    -7618462.53549  -5701532.57747  20820025.726    20820032.079
  20594795.768    -1158090.74149   -896656.41747  20594795.150    20594799.555
  24118690.344     2491754.10149   1945218.85145  24118689.888    24118698.938
  20402844.296    -4315943.32649  -3351503.85348  20402843.795    20402848.504
  22796170.047     7627234.17949   5841152.15646  22796169.710    22796178.719
  24489632.558     6135694.73349   4777626.30045  24489632.190    24489639.503
  22244842.431     2957185.95749   2354338.27146  22244842.346    22244848.788
  21340736.967     1252713.96649    978077.03747  21340736.276    21340743.121
  24536227.735    -3464120.63149  -2680911.01144  24536228.162    24536240.115
  23550745.770    -6842361.86149  -5310984.17945  23550745.508    23550753.505
 03  6  9 18 35 30.0000000  0 11G23G15G21G16G18G 6G29G26G17G14G 3
  21444063.265    -7486993.06149  -5819216.23347  21444062.644    21444069.367
  20811093.753    -7665404.33049  -5738110.58647  20811093.000    20811099.357
  20598283.233    -1139764.09549   -882375.92147  20598282.616    20598287.029
  24129640.065     2549294.50449   1990055.36445  24129639.748    24129648.644
  20401913.174    -4320836.43949  -3355316.65748  20401912.690    20401917.370
  22815473.906     7728675.89349   5920197.44546  22815473.576    22815482.595
  24506737.947     6225584.09749   4847669.91145  24506737.648    24506745.049
  22258793.001     3030496.63449   2411463.46146  22258792.918    22258799.341
  21348166.075     1291754.00849   1008497.83747  21348165.373    21348172.218
  24514435.533    -3578638.62649  -2770145.92544  24514435.419    24514448.565
  23534693.583    -6926716.72949  -5376715.19545  23534693.300    23534701.310
 03  6  9 18 36  0.0000000  0 11G23G15G21G16G18G 6G29G26G17G14G 3
  21437021.238    -7523998.85449  -5848051.87847  21437020.640    21437027.348
  20802202.500    -7712127.95849  -5774518.59447  20802201.765    20802208.125
  20601828.304    -1121134.46249   -867859.33347  20601827.682    20601832.140
  24140644.100     2607120.45649   2035114.37345  24140643.710    24140652.711
  20401051.523    -4325364.55949  -3358845.04948  20401051.016    20401055.676
  22834821.603     7830347.99049   5999422.24646  22834821.282    22834830.352
  24523893.401     6315736.59249   4917918.54845  24523893.122    24523900.568
  22272840.276     3104315.47349   2468984.61446  22272840.243    22272846.666
  21355645.946     1331060.95949   1039126.61547  21355645.234    21355652.114
  24492648.501    -3693129.73049  -2859359.56844  24492648.572    24492660.635
  23518702.329    -7010750.98249  -5442196.37245  23518702.052    23518710.115
 03  6  9 18 36 30.0000000  0 11G23G15G21G16G18G 6G29G26G17G14G 3
  21430040.009    -7560685.34149  -5876638.71647  21430039.422    21430046.097
  20793352.954    -7758632.80749  -5810756.12947  20793352.212    20793358.546
  20605431.026    -1102202.01749   -853106.79047  20605430.407    20605434.890
  24151701.902     2665228.85749   2080393.48745  24151701.345    24151710.504
  20400259.013    -4329529.09849  -3362090.13948  20400258.515    20400263.195
  22854212.649     7932247.61249   6078824.34346  22854212.348    22854221.408
  24541098.444     6406149.28349   4988369.93145  24541098.081    24541105.513
  22286983.670     3178639.34849   2526899.32046  22286983.592    22286990.030
  21363176.706     1370635.25249   1069963.71247  21363176.021    21363182.843
  24470866.701    -3807593.39249  -2948551.50944  24470866.552    24470878.551
  23502772.479    -7094462.69349  -5507426.24045  23502772.290    23502780.258
 03  6  9 18 37  0.0000000  0 11G23G15G21G16G18G 6G29G26G17G14G 3
  21423119.461    -7597053.00349  -5904977.11847  21423118.863    21423125.519
  20784545.260    -7804917.54649  -5846822.14647  20784544.509    20784550.849
  20609091.562    -1082965.78949   -838117.52747  20609090.953    20609095.431
  24162812.892     2723616.79449   2125890.42745  24162812.263    24162821.459
  20399535.537    -4333330.99049  -3365052.64348  20399535.036    20399539.704
  22873646.459     8034372.15349   6158401.69246  22873646.154    22873655.222
  24558352.510     6496819.89149   5059022.28745  24558352.376    24558359.639
  22301222.662     3253465.40749   2585205.31646  22301222.605    22301228.930
  21370758.339     1410476.78749   1101009.05447  21370757.642    21370764.470
  24449090.715    -3922026.26549  -3037719.82645  24449090.377    24449102.781
  23486904.429    -7177849.52149  -5572402.93145  23486904.295    23486912.170
 03  6  9 18 37 30.0000000  0 11G23G15G21G16G18G 6G29G26G17G14G 3
  21416259.516    -7633102.29649  -5933067.43747  21416258.912    21416265.534
  20775779.667    -7850980.99049  -5882715.72147  20775778.927    20775785.246
  20612809.964    -1063425.48849   -822891.32447  20612809.349    20612813.827
  24173976.615     2782281.36749   2171602.93045  24173976.124    24173985.325
  20398880.877    -4336771.22249  -3367733.33548  20398880.379    20398885.055
  22893122.630     8136719.12049   6238152.36846  22893122.311    22893131.401
  24575655.148     6587745.32449   5129873.21945  24575655.028    24575662.180
  22315556.611     3328790.86949   2643900.47046  22315556.582    22315562.910
  21378390.911     1450586.30049   1132263.20547  21378390.238    21378397.067
  24427321.057    -4036426.08249  -3126862.26045  24427320.558    24427332.798
  23471098.737    -7260909.00049  -5637124.55645  23471098.547    23471106.427
 03  6  9 18 38  0.0000000  0 11G23G15G21G16G18G 6G29G26G17G14G 3
  21409460.165    -7668833.17749  -5960909.65547  21409459.550    21409466.157
  20767056.498    -7896821.60849  -5918435.67447  20767055.757    20767062.055
  20616586.413    -1043580.12949   -807427.41847  20616585.795    20616590.285
  24185192.414     2841220.22749   2217529.16645  24185191.870    24185201.270
  20398294.964    -4339850.25849  -3370132.58248  20398294.465    20398299.142
  22912640.721     8239286.73849   6318074.96346  22912640.429    22912649.518
  24593005.843     6678924.04949   5200921.51345  24593005.627    24593012.955
  22329985.181     3404613.62149   2702983.10946  22329985.183    22329991.529
  21386074.656     1490964.54449   1163726.75647  21386073.979    21386080.809
  24405558.172    -4150789.87349  -3215976.63745  24405557.794    24405569.724
  23455355.991    -7343637.97449  -5701588.63645  23455355.685    23455363.517
 03  6  9 18 38 30.0000000  0 11G23G15G21G16G18G 6G29G26G17G14G 3
  21402721.131    -7704246.76749  -5988504.63047  21402720.525    21402727.141
  20758375.859    -7942438.55549  -5953981.33447  20758375.136    20758381.412
  20620421.005    -1023429.15449   -791725.36547  20620420.390    20620424.900
  24196459.733     2900429.92049   2263666.42145  24196459.099    24196468.718
  20397777.550    -4342569.32049  -3372251.32748  20397777.053    20397781.716
  22932200.269     8342071.94349   6398167.10146  22932200.028    22932209.119
  24610404.160     6770352.79349   5272164.62645  24610403.922    24610411.365
  22344507.850     3480930.30949   2762450.63146  22344507.839    22344514.166
  21393809.561     1531611.68849   1195399.84047  21393808.894    21393815.723
  24383802.436    -4265115.58049  -3305061.34945  24383802.036    24383813.938
  23439676.486    -7426034.84549  -5765793.94745  23439676.140    23439683.835
 03  6  9 18 39  0.0000000  0 11G23G15G21G16G18G 6G29G26G17G14G 3
  21396042.384    -7739343.68749  -6015852.84547  21396041.798    21396048.405
  20749737.998    -7987830.72349  -5989351.83547  20749737.276    20749743.545
  20624313.813    -1002972.40149   -775785.04347  20624313.215    20624317.720
  24207778.112     2959907.47949   2310012.40945  24207777.513    24207787.016
  20397328.413    -4344929.51649  -3374090.43648  20397327.914    20397332.597
  22951800.708     8445072.18749   6478426.81846  22951800.489    22951809.636
  24627849.636     6862029.08949   5343600.64845  24627849.275    24627856.858
  22359123.970     3557738.25049   2822300.95446  22359123.960    22359130.289
  21401595.723     1572527.97049   1227282.64547  21401595.034    21401601.895
  24362054.562    -4379400.61449  -3394114.38145  24362053.892    24362065.991
  23424060.627    -7508097.05749  -5829738.47845  23424060.261    23424067.904
 03  6  9 18 39 30.0000000  0 11G23G15G21G16G18G 6G29G26G17G14G 3
  21389423.859    -7774124.09149  -6042954.42247  21389423.270    21389429.874
  20741143.304    -8032996.20449  -6024545.70747  20741142.586    20741148.846
  20628265.010     -982208.79449   -759605.61447  20628264.400    20628268.916
  24219146.969     3019650.67449   2356565.38345  24219146.513    24219155.851
  20396947.437    -4346931.35949  -3375650.30948  20396946.957    20396951.631
  22971441.696     8548285.54749   6558852.58646  22971441.521    22971450.748
  24645341.795     6953950.74349   5415227.84145  24645341.535    24645349.112
  22373833.138     3635035.02949   2882532.19946  22373833.118    22373839.424
  21409433.219     1613714.42049   1259375.96747  21409432.558    21409439.424
  24340314.936    -4493642.05849  -3483133.48045  24340314.272    24340326.497
  23408508.978    -7589821.68849  -5893419.96545  23408508.597    23408516.090
 03  6  9 18 40  0.0000000  0 11G23G15G21G16G18G 6G29G26G17G14G 3
  21382865.458    -7808588.71249  -6069809.94547  21382864.861    21382871.439
  20732591.919    -8077934.03749  -6059562.18747  20732591.196    20732597.447
  20632274.687     -961137.78549   -743186.65547  20632274.094    20632278.586
  24230565.758     3079656.25349   2403322.79645  24230565.299    24230574.689
  20396634.491    -4348575.99249  -3376931.83848  20396633.984    20396638.675
  22991122.825     8651709.42949   6639442.39146  22991122.577    22991131.878
  24662880.178     7046115.14049   5487044.20445  24662879.993    24662887.327
  22388634.663     3712817.75349   2943142.09146  22388634.631    22388641.006
  21417322.195     1655171.13649   1291679.88547  21417321.546    21417328.429
  24318584.139    -4607837.37849  -3572116.62345  24318583.406    24318595.532
  23393021.911    -7671206.46849  -5956836.62645  23393021.508    23393029.025
 03  6  9 18 40 30.0000000  0 11G23G15G21G16G18G 6G29G26G17G14G 3
  21376367.024    -7842738.02549  -6096419.77047  21376366.430    21376373.009
  20724084.069    -8122643.01449  -6094400.33847  20724083.326    20724089.599
  20636343.043     -939758.54849   -726527.51947  20636342.437    20636346.945
  24242033.980     3139921.57949   2450282.62045  24242033.499    24242043.073
  20396389.320    -4349864.29349  -3377935.71348  20396388.824    20396393.512
  23010843.500     8755341.40349   6720194.34646  23010843.225    23010852.632
  24680464.347     7138519.88049   5559047.84845  24680464.140    24680471.381
  22403528.189     3791083.66549   3004128.49246  22403528.200    22403534.541
  21425262.692     1696898.46949   1324194.67647  21425262.030    21425268.917
  24296862.586    -4721983.78349  -3661061.63945  24296861.973    24296873.990
  23377600.006    -7752248.95649  -6019986.56945  23377599.635    23377607.138
 03  6  9 18 41  0.0000000  0 11G23G15G21G16G18G 6G29G26G17G14G 3
  21369928.524    -7876572.59849  -6122784.34647  21369927.907    21369934.484
  20715619.950    -8167122.24149  -6129059.46747  20715619.205    20715625.476
  20640470.085     -918070.92649   -709628.08347  20640469.480    20640473.975
  24253551.149     3200443.53649   2497442.40245  24253550.676    24253560.190
  20396211.745    -4350797.48649  -3378662.88048  20396211.247    20396215.924
  23030603.224     8859178.72649   6801106.31046  23030602.975    23030612.402
  24698093.572     7231162.08449   5631236.52045  24698093.405    24698100.684
  22418513.139     3869829.62249   3065488.95846  22418513.126    22418519.382
  21433254.660     1738896.51849   1356920.40847  21433253.987    21433260.887
  24275150.887    -4836078.87449  -3749966.66945  24275150.204    24275162.272
  23362243.699    -7832946.83849  -6082867.99445  23362243.356    23362250.798
 03  6  9 18 41 30.0000000  0 11G23G15G21G16G18G 6G29G26G17G14G 3
  21363549.707    -7910093.28049  -6148904.32847  21363549.113    21363555.684
  20707199.838    -8211370.18449  -6163538.37147  20707199.084    20707205.359
  20644655.882     -896074.29849   -692487.86047  20644655.272    20644659.774
  24265116.499     3261219.04049   2544799.76345  24265116.080    24265125.453
  20396101.513    -4351376.73049  -3379114.24448  20396101.013    20396105.720
  23050401.587     8963218.84849   6882176.29846  23050401.339    23050410.808
  24715767.532     7324039.29849   5703608.33045  24715767.400    24715774.811
  22433588.834     3949052.80849   3127221.28246  22433588.810    22433595.065
  21441298.340     1781166.15249   1389857.76747  21441297.668    21441304.604
  24253449.319    -4950120.25549  -3838829.86045  24253448.448    24253460.613
  23346953.371    -7913297.84949  -6145479.13645  23346953.041    23346960.370
 03  6  9 18 42  0.0000000  0 11G23G15G21G16G18G 6G29G26G17G14G 3
  21357230.598    -7943300.26649  -6174779.87647  21357230.007    21357236.577
  20698824.051    -8255385.34249  -6197835.89247  20698823.303    20698829.558
  20648900.686     -873767.84649   -675106.22247  20648900.074    20648904.575
  24276729.583     3322245.59549   2592352.71445  24276729.160    24276738.633
  20396058.566    -4351602.50949  -3379290.18048  20396058.073    20396062.734
  23070238.175     9067459.78349   6963402.75846  23070237.906    23070247.389
  24733485.778     7417149.21849   5776161.44245  24733485.484    24733493.085
  22448754.856     4028750.77449   3189323.57346  22448754.810    22448761.110
  21449393.752     1823707.86849   1423007.13147  21449393.094    21449400.035
  24231758.530    -5064105.01449  -3927648.95045  24231757.714    24231769.946
  23331729.621    -7993299.20149  -6207817.81845  23331729.250    23331736.605
 03  6  9 18 42 30.0000000  0 11G23G15G21G16G18G 6G29G26G17G14G 3
  21350971.030    -7976194.33149  -6200411.58347  21350970.441    21350977.017
  20690492.772    -8299166.52249  -6231951.08647  20690492.021    20690498.255
  20653204.541     -851150.96849   -657482.68947  20653203.905    20653208.426
  24288389.947     3383520.14549   2640098.93045  24288389.327    24288399.006
  20396082.613    -4351476.12949  -3379191.70148  20396082.126    20396086.784
  23090112.478     9171898.83049   7044783.60846  23090112.228    23090121.702
  24751247.802     7510489.19049   5848893.82945  24751247.557    24751255.231
  22464010.572     4108920.45949   3251793.42846  22464010.559    22464016.913
  21457541.061     1866522.04049   1456368.80047  21457540.384    21457547.334
  24210078.939    -5178030.66949  -4016421.92345  24210078.252    24210090.477
  23316572.755    -8072948.62449  -6269882.25645  23316572.413    23316579.804
 03  6  9 18 43  0.0000000  0 11G23G15G21G16G18G 6G29G26G17G14G 3
  21344770.884    -8008776.24849  -6225800.05847  21344770.283    21344776.855
  20682206.177    -8342712.80149  -6265883.24547  20682205.437    20682211.654
  20657567.524     -828223.42949   -639617.08547  20657566.904    20657571.400
  24300096.848     3445039.73749   2688036.12845  24300096.443    24300105.962
  20396173.542    -4350998.50449  -3378819.53148  20396173.043    20396177.700
  23110023.958     9276533.24949   7126316.68446  23110023.663    23110033.161
  24769053.039     7604056.37849   5921803.26945  24769052.942    24769060.541
  22479355.609     4189558.99949   3314628.62446  22479355.556    22479361.916
  21465740.228     1909608.87049   1489942.93147  21465739.568    21465746.542
  24188411.170    -5291894.76449  -4105146.97245  24188410.622    24188422.629
  23301483.280    -8152244.12149  -6331670.88745  23301482.899    23301490.419
 03  6  9 18 43 30.0000000  0 11G23G15G21G16G18G 6G29G26G17G14G 3
  21338630.137    -8041046.04349  -6250945.32747  21338629.524    21338636.104
  20673964.661    -8386022.27149  -6299630.86847  20673963.913    20673970.108
  20661989.780     -804984.28249   -621508.66747  20661989.173    20661993.680
  24311849.837     3506801.82649   2736162.26645  24311849.456    24311859.050
  20396331.069    -4350170.65049  -3378174.45048  20396330.564    20396335.233
  23129972.237     9381361.19249   7208000.55846  23129971.923    23129981.558
  24786901.209     7697849.01649   5994888.41045  24786901.176    24786908.472
  22494789.299     4270663.72749   3377827.08346  22494789.281    22494795.700
  21473991.421     1952969.16849   1523730.16047  21473990.756    21473997.744
  24166755.695    -5405694.32049  -4193821.72945  24166755.104    24166767.072
  23286461.653    -8231182.88649  -6393181.55645  23286461.268    23286468.770
 03  6  9 18 44  0.0000000  0 11G23G15G21G16G18G 6G29G26G17G14G 3
  21332548.535    -8073004.84849  -6275848.27347  21332547.934    21332554.524
  20665768.321    -8429094.26549  -6333193.45547  20665767.587    20665773.768
  20666471.396     -781433.23649   -603157.21647  20666470.770    20666475.317
  24323648.297     3568802.76549   2784474.52645  24323647.949    24323657.513
  20396555.054    -4348993.65349  -3377257.31448  20396554.559    20396559.206
  23149956.764     9486379.57449   7289832.81346  23149956.469    23149966.149
  24804791.727     7791864.00049   6068146.81345  24804791.620    24804799.086
  22510311.113     4352231.40649   3441386.28146  22510311.116    22510317.572
  21482294.672     1996602.90049   1557730.44647  21482294.007    21482301.001
  24145112.909    -5519427.11349  -4282444.48045  24145112.407    24145124.017
  23271508.367    -8309762.85849  -6454412.64545  23271507.940    23271515.490
 03  6  9 18 44 30.0000000  0 11G23G15G21G16G18G 6G29G26G17G14G 3
  21326526.077    -8104653.22549  -6300509.31447  21326525.484    21326532.038
  20657617.450    -8471927.30749  -6366569.83547  20657616.710    20657622.901
  20671012.533     -757569.46549   -584562.07947  20671011.916    20671016.448
  24335491.769     3631039.93349   2832970.83945  24335491.440    24335501.015
  20396845.248    -4347468.75349  -3376069.08048  20396844.738    20396849.412
  23169977.049     9591585.89849   7371811.51546  23169976.758    23169986.486
  24822724.036     7886098.73949   6141576.42645  24822723.895    24822731.260
  22525920.514     4434259.20349   3505304.01746  22525920.510    22525926.929
  21490649.969     2040510.35049   1591944.01747  21490649.303    21490656.313
  24123483.416    -5633090.41949  -4371013.03245  24123482.901    24123494.407
  23256623.773    -8387981.47649  -6515362.16945  23256623.395    23256630.923
 03  6  9 18 45  0.0000000  0 11G23G15G21G16G18G 6G29G26G17G14G 3
  21320562.575    -8135991.76849  -6324928.93347  21320561.952    21320568.478
  20649512.336    -8514520.04749  -6399758.97547  20649511.591    20649517.777
  20675613.249     -733392.55349   -565722.94047  20675612.651    20675617.168
  24347379.685     3693510.67449   2881649.17345  24347379.320    24347388.892
  20397201.517    -4345596.55549  -3374610.22848  20397201.012    20397205.698
  23190032.639     9696977.94149   7453934.93246  23190032.444    23190042.153
  24840697.725     7980550.91049   6215175.47145  24840697.623    24840704.819
  22541616.929     4516744.51849   3569578.25846  22541616.923    22541623.346
  21499057.519     2084692.19349   1626371.40947  21499056.882    21499063.868
  24101867.592    -5746681.73949  -4459525.51745  24101867.075    24101878.478
  23241808.420    -8465836.48549  -6576028.36146  23241808.021    23241815.558
 03  6  9 18 45 30.0000000  0 11G23G15G21G16G18G 6G29G26G17G14G 3
  21314657.854    -8167021.08549  -6349107.59247  21314657.250    21314663.774
  20641453.116    -8556871.39749  -6432760.01547  20641452.370    20641458.571
  20680273.659     -708902.16149   -546639.52547  20680273.045    20680277.550
  24359311.418     3756211.63649   2930506.90145  24359310.999    24359320.640
  20397623.638    -4343378.28449  -3372881.70348  20397623.139    20397627.808
  23210123.039     9802552.91349   7536200.89346  23210122.886    23210132.542
  24858712.247     8075217.74449   6288941.78645  24858711.993    24858719.476
  22557399.898     4599684.15049   3634206.50946  22557399.877    22557406.236
  21507517.356     2129148.77249   1661012.87447  21507516.696    21507523.696
  24080265.972    -5860198.52749  -4547979.95045  24080265.460    24080276.724
  23227062.737    -8543325.50749  -6636409.37546  23227062.340    23227069.865
 03  6  9 18 46  0.0000000  0 10G23G15G21G16G18G 6G26G17G14G 3
  21308812.160    -8197740.20849  -6373044.54247  21308811.557    21308818.071
  20633440.435    -8598978.24149  -6465570.53347  20633439.697    20633445.892
  20684994.166     -684095.83549   -527309.93447  20684993.557    20684998.053
  24371286.732     3819141.53849   2979543.01345  24371286.449    24371295.985
  20398111.676    -4340813.59949  -3370883.24548  20398111.172    20398115.832
  23230248.116     9908310.01449   7618608.76246  23230247.933    23230257.679
  22573269.051     4683076.70649   3699187.70046  22573268.981    22573275.336
  21516029.815     2173882.13449   1695870.01747  21516029.173    21516036.179
  24058679.276    -5973636.37449  -4636372.86045  24058678.764    24058690.048
  23212387.400    -8620444.35449  -6696501.93846  23212387.049    23212394.598
 03  6  9 18 46 30.0000000  0 10G23G15G21G16G18G 6G26G17G14G 3
  21303024.953    -8228151.98949  -6396742.01447  21303024.373    21303030.870
  20625474.110    -8640841.52849  -6498191.27947  20625473.372    20625479.561
  20689774.439     -658975.31949   -507735.52447  20689773.848    20689778.355
  24383304.633     3882295.33949   3028753.54945  24383304.219    24383313.833
  20398665.065    -4337905.58949  -3368617.26948  20398664.578    20398669.203
  23250407.055    10014244.66849   7701154.96645  23250406.858    23250416.617
  22589223.397     4766917.18249   3764517.89646  22589223.316    22589229.692
  21524594.610     2218890.32149   1730941.30047  21524593.974    21524601.018
  24037107.727    -6086995.07349  -4724704.09945  24037107.196    24037118.389
  23197782.629    -8697192.84549  -6756305.93446  23197782.259    23197789.761
 03  6  9 18 47  0.0000000  0 10G23G15G21G16G18G 6G26G17G14G 3
  21297295.962    -8258258.08049  -6420201.29047  21297295.379    21297301.858
  20617554.189    -8682460.98349  -6530622.02547  20617553.455    20617559.640
  20694614.390     -633541.21649   -487916.76147  20694613.807    20694618.325
  24395364.546     3945669.28149   3078135.61945  24395364.061    24395373.698
  20399283.421    -4334656.32349  -3366085.38148  20399282.930    20399287.559
  23270599.113    10120353.26049   7783836.69245  23270598.859    23270608.636
  22605262.221     4851201.68749   3830194.07546  22605262.173    22605268.571
  21533211.559     2264172.62849   1766226.17347  21533210.908    21533217.996
  24015551.513    -6200272.77049  -4812972.24545  24015551.040    24015562.085
  23183248.524    -8773569.98449  -6815820.57446  23183248.191    23183255.589
 03  6  9 18 47 30.0000000  0 10G23G15G21G16G18G 6G26G17G14G 3
  21291625.552    -8288056.14149  -6443420.53547  21291624.975    21291631.450
  20609681.507    -8723832.13149  -6562859.28147  20609680.775    20609686.959
  20699514.772     -607789.69249   -467850.66247  20699514.164    20699518.703
  24407466.232     4009263.25049   3127689.16745  24407465.682    24407475.512
  20399967.102    -4331063.51749  -3363285.79648  20399966.617    20399971.254
  23290824.438    10226636.53649   7866654.53945  23290824.148    23290833.975
  22621385.611     4935930.40649   3896216.40746  22621385.590    22621391.951
  21541881.319     2309732.44649   1801727.30347  21541880.666    21541887.774
  23994011.804    -6313463.83549  -4901172.88445  23994011.113    23994022.321
  23168786.068    -8849570.19849  -6875041.48646  23168785.704    23168793.222
 03  6  9 18 48  0.0000000  0 10G23G15G21G16G18G 6G26G17G14G 3
  21286013.348    -8317548.47449  -6466401.55447  21286012.770    21286019.238
  20601855.986    -8764955.55749  -6594903.50747  20601855.252    20601861.414
  20704475.328     -581721.73449   -447537.98747  20704474.720    20704479.283
  24419608.958     4073072.68749   3177410.60245  24419608.527    24419618.189
  20400715.572    -4327130.07149  -3360220.77748  20400715.089    20400719.741
  23311082.119    10333090.21249   7949605.18345  23311081.813    23311091.678
  22637592.571     5021098.55949   3962581.18046  22637592.571    22637598.935
  21550603.630     2355568.52749   1837443.69547  21550602.988    21550610.086
  23972488.726    -6426567.42649  -4989305.39645  23972487.982    23972499.240
  23154395.463    -8925192.98349  -6933968.29346  23154395.116    23154402.635
 03  6  9 18 48 30.0000000  0 10G23G15G21G16G18G 6G26G17G14G 3
  21280459.190    -8346735.57549  -6489144.72647  21280458.615    21280465.074
  20594077.939    -8805829.58749  -6626753.39647  20594077.177    20594083.348
  20709496.243     -555336.79849   -426978.30747  20709495.644    20709500.223
  24431792.094     4137094.96449   3227297.87645  24431791.582    24431801.569
  20401528.742    -4322856.95649  -3356891.07648  20401528.246    20401532.913
  23331371.749    10439712.06249   8032686.84945  23331371.487    23331381.423
  22653882.712     5106703.58549   4029286.37146  22653882.683    22653889.132
  21559378.657     2401681.25149   1873375.65747  21559377.993    21559385.101
  23950982.850    -6539580.61649  -5077367.44045  23950982.151    23950993.300
  23140077.311    -9000435.56149  -6992598.84446  23140076.888    23140084.464
 03  6  9 18 49  0.0000000  0 10G23G15G21G16G18G 6G26G17G14G 3
  21274963.165    -8375617.34749  -6511649.98247  21274962.600    21274969.053
  20586347.725    -8846452.15949  -6658407.35147  20586346.969    20586353.137
  20714577.682     -528633.59249   -406170.63847  20714577.096    20714581.688
  24444015.336     4201327.70049   3277349.14045  24444014.900    24444024.813
  20402406.550    -4318244.15749  -3353296.69848  20402406.048    20402410.713
  23351692.960    10546500.19749   8115898.08545  23351692.769    23351702.850
  22670255.520     5192743.33849   4096330.29146  22670255.469    22670261.998
  21568206.576     2448071.97849   1909524.23747  21568205.882    21568212.998
  23929494.808    -6652500.15349  -5165356.50145  23929494.117    23929505.217
  23125832.063    -9075294.87549  -7050930.75146  23125831.600    23125839.188
 03  6  9 18 49 30.0000000  0 10G23G15G21G16G18G 6G26G17G14G 3
  21269524.721    -8404196.42149  -6533919.35847  21269524.165    21269530.620
  20578665.234    -8886823.69149  -6689865.68047  20578664.497    20578670.654
  20719719.484     -501613.45549   -385115.99347  20719718.897    20719723.484
  24456277.725     4265766.12249   3327560.70345  24456277.350    24456287.269
  20403348.382    -4313294.75249  -3349440.01448  20403347.886    20403352.547
  23372045.055    10653450.11649   8199235.39845  23372044.820    23372055.022
  22686710.097     5279212.65049   4163708.94446  22686710.038    22686716.651
  21577087.079     2494739.22049   1945888.30047  21577086.404    21577093.518
  23908024.745    -6765325.28749  -5253272.00545  23908024.140    23908035.081
  23111659.754    -9149770.48649  -7108963.65446  23111659.341    23111666.892
 03  6  9 18 50  0.0000000  0 10G23G15G21G16G18G 6G26G17G14G 3
  21264144.028    -8432472.23649  -6555952.42647  21264143.440    21264149.895
  20571031.045    -8926941.76349  -6721126.50347  20571030.312    20571036.466
  20724921.908     -474274.77549   -363813.13347  20724921.305    20724925.885
  24468578.932     4330408.25249   3377931.01445  24468578.675    24468588.315
  20404354.255    -4308008.78249  -3345321.07248  20404353.740    20404358.436
  23392427.628    10760560.59149   8282697.83945  23392427.349    23392437.685
  22703246.173     5366109.99149   4231421.13846  22703246.099    22703252.664
  21586020.492     2541684.62149   1982469.10747  21586019.809    21586026.913
  23886573.425    -6878052.11849  -5341110.89445  23886572.800    23886583.835
  23097561.155    -9223859.08549  -7166694.98046  23097560.761    23097568.249
 03  6  9 18 50 30.0000000  0 10G23G15G21G16G18G 6G26G17G14G 3
  21258820.840    -8460445.66849  -6577749.88347  21258820.275    21258826.735
  20563445.276    -8966805.27149  -6752188.96747  20563444.544    20563450.700
  20730185.014     -446617.07149   -342261.68747  20730184.402    20730188.966
  24480918.327     4395251.17249   3428457.75345  24480918.063    24480927.802
  20405423.933    -4302387.46549  -3340940.82248  20405423.429    20405428.135
  23412840.290    10867828.93149   8366283.24945  23412840.047    23412850.458
  22719863.103     5453432.08149   4299464.29546  22719863.036    22719869.602
  21595006.854     2588908.22149   2019266.70147  21595006.169    21595013.277
  23865141.275    -6990678.15549  -5428871.27545  23865140.717    23865151.608
  23083536.594    -9297558.50249  -7224123.05846  23083536.220    23083543.733
 03  6  9 18 51  0.0000000  0 10G23G15G21G16G18G 6G26G17G14G 3
  21253555.077    -8488117.23749  -6599312.12047  21253554.500    21253560.976
  20555908.253    -9006412.43149  -6783051.68047  20555907.512    20555913.673
  20735509.001     -418639.46849   -320460.96347  20735508.366    20735512.952
  24493295.479     4460292.25349   3479138.89845  24493295.155    24493304.908
  20406557.302    -4296431.52649  -3336299.82648  20406556.805    20406561.526
  23433282.566    10975252.82249   8449989.89245  23433282.405    23433292.829
  22736560.293     5541176.19849   4367836.29846  22736560.237    22736566.745
  21604046.244     2636410.53949   2056281.47047  21604045.581    21604052.677
  23843728.884    -7103200.26049  -5516550.66145  23843728.260    23843739.242
  23069586.539    -9370866.10749  -7281245.83246  23069586.188    23069593.690
 03  6  9 18 51 30.0000000  0 10G23G15G21G16G18G 6G26G17G14G 3
  21248346.660    -8515487.57149  -6620639.63247  21248346.086    21248352.567
  20548420.310    -9045761.77849  -6813713.50447  20548419.565    20548425.754
  20740893.877     -390341.71549   -298410.78447  20740893.258    20740897.847
  24505709.767     4525528.50249   3529972.14645  24505709.300    24505719.270
  20407754.167    -4290141.99849  -3331398.89748  20407753.656    20407758.388
  23453753.970    11082829.86149   8533815.84345  23453753.833    23453764.384
  22753337.228     5629339.40649   4436534.87246  22753337.182    22753343.739
  21613138.823     2684192.26049   2093513.94746  21613138.166    21613145.248
  23822336.723    -7215616.36749  -5604147.45245  23822335.940    23822347.020
  23055711.589    -9443779.35449  -7338061.32146  23055711.283    23055718.709
 03  6  9 18 52  0.0000000  0 10G23G15G21G16G18G 6G26G17G14G 3
  21243195.314    -8542557.86449  -6641733.35047  21243194.742    21243201.213
  20540981.570    -9084852.50149  -6844173.80247  20540980.845    20540987.032
  20746339.776     -361723.41049   -276110.81947  20746339.138    20746343.738
  24518160.526     4590956.43949   3580954.71945  24518159.901    24518170.097
  20409014.180    -4283520.44449  -3326239.24648  20409013.674    20409018.422
  23474253.968    11190557.04549   8617758.79845  23474253.741    23474264.407
  22770193.224     5717918.23249   4505557.29746  22770193.163    22770199.777
  21622284.530     2732253.00849   2130963.85346  21622283.874    21622290.934
  23800965.091    -7327924.13449  -5691659.87045  23800964.355    23800975.279
  23041912.112    -9516296.45649  -7394568.12446  23041911.806    23041919.154
 03  6  9 18 52 30.0000000  0 10G23G15G21G16G18G 6G26G17G14G 3
  21238100.733    -8569330.02049  -6662594.74747  21238100.149    21238106.614
  20533592.092    -9123684.39049  -6874432.40547  20533591.351    20533597.579
  20751846.494     -332785.42849   -253561.75147  20751845.886    20751850.489
  24530646.785     4656571.84449   3632083.39545  24530646.088    24530656.478
  20410336.982    -4276569.06249  -3320822.58548  20410336.468    20410341.220
  23494781.829    11298430.79649   8701815.96645  23494781.730    23494792.473
  22787127.514     5806908.49649   4574900.32446  22787127.460    22787134.090
  21631483.101     2780591.58449   2168630.24546  21631482.426    21631489.474
  23779614.381    -7440121.82749  -5779086.48945  23779613.686    23779624.472
  23028188.120    -9588416.68849  -7450765.67646  23028187.777    23028195.131
 03  6  9 18 53  0.0000000  0 10G23G15G21G16G18G 6G26G17G14G 3
  21233063.512    -8595800.88649  -6683221.37647  21233062.926    21233069.378
  20526252.825    -9162252.41849  -6904485.40747  20526252.101    20526258.319
  20757414.892     -303523.33749   -230760.13247  20757414.281    20757418.889
  24543168.850     4722375.90649   3683359.06145  24543168.407    24543178.763
  20411723.048    -4269285.34049  -3315146.96448  20411722.559    20411727.289
  23515337.851    11406452.43849   8785988.36245  23515337.710    23515348.501
  22804140.188     5896311.08049   4644564.64746  22804140.222    22804146.833
  21640735.372     2829212.41549   2206516.58146  21640734.691    21640741.725
  23758285.897    -7552203.06349  -5866422.35945  23758285.311    23758296.009
  23014540.773    -9660133.97049  -7506649.23446  23014540.445    23014547.726
 03  6  9 18 53 30.0000000  0 10G23G15G21G16G18G 6G26G17G14G 3
  21228082.936    -8621973.86349  -6703615.88447  21228082.344    21228088.810
  20518963.514    -9200558.01749  -6934333.92047  20518962.788    20518969.014
  20763044.499     -273939.60949   -207707.89047  20763043.904    20763048.499
  24555725.865     4788362.75649   3734777.18345  24555725.336    24555735.771
  20413171.696    -4261672.68949  -3309215.03148  20413171.206    20413175.908
  23535921.087    11514616.75649   8870271.94845  23535920.930    23535931.834
  22821230.353     5986120.23849   4714545.77546  22821230.301    22821236.912
  21650040.937     2878113.31849   2244621.15446  21650040.259    21650047.292
  23736979.571    -7664167.92449  -5953667.52545  23736978.952    23736989.658
  23000970.047    -9731448.35449  -7562218.86646  23000969.740    23000976.967
 03  6  9 18 54  0.0000000  0 10G23G15G21G16G18G 6G26G17G14G 3
  21223158.874    -8647849.79949  -6723778.93447  21223158.294    21223164.752
  20511724.451    -9238599.55949  -6963976.67147  20511723.729    20511729.921
  20768735.517     -244033.13649   -184404.15647  20768734.914    20768739.502
  24568317.027     4854529.48549   3786335.43545  24568316.577    24568326.881
  20414682.707    -4253732.37249  -3303027.77448  20414682.220    20414686.913
  23556530.982    11622921.27649   8954664.76645  23556530.823    23556541.848
  22838397.329     6076333.01749   4784841.42346  22838397.276    22838403.908
  21659399.846     2927294.60949   2282944.21246  21659399.170    21659406.154
  23715695.915    -7776013.71149  -6040819.96445  23715695.376    23715705.980
  22987476.409    -9802357.54849  -7617472.73546  22987476.092    22987483.300
 03  6  9 18 54 30.0000000  0 10G23G15G21G16G18G 6G26G17G14G 3
  21218291.256    -8673429.21349  -6743710.92247  21218290.693    21218297.136
  20504535.905    -9276375.52049  -6993412.47847  20504535.186    20504541.403
  20774488.056     -213803.62749   -160848.70847  20774487.451    20774492.043
  24580942.028     4920873.23749   3838031.67944  24580941.498    24580951.819
  20416255.951    -4245465.05049  -3296585.71048  20416255.470    20416260.159
  23577167.205    11731363.66249   9039164.99745  23577167.006    23577178.101
  22855640.488     6166946.57549   4855449.35846  22855640.449    22855647.133
  21668812.207     2976756.75449   2321486.12246  21668811.544    21668818.532
  23694435.405    -7887737.78549  -6127877.55445  23694434.894    23694445.546
  22974060.357    -9872859.11249  -7672408.99446  22974060.079    22974067.241
 03  6  9 18 55  0.0000000  0 10G23G15G21G16G18G 6G26G17G14G 3
  21213479.947    -8698712.84349  -6763412.43047  21213479.364    21213485.793
  20497398.137    -9313884.74249  -7022640.43947  20497397.427    20497403.649
  20780302.075     -183250.85249   -137041.36647  20780301.467    20780306.057
  24593600.046     4987390.78949   3889863.29444  24593599.326    24593610.148
  20417891.093    -4236872.30949  -3289890.07348  20417890.588    20417895.285
  23597829.205    11839941.27149   9123770.60645  23597828.913    23597840.076
  22872959.365     6257957.73049   4926367.11446  22872959.370    22872965.979
  21678278.078     3026499.92049   2360246.99946  21678277.411    21678284.385
  23673198.468    -7999337.42549  -6214838.16545  23673198.036    23673208.659
  22960722.320    -9942951.26849  -7727026.23046  22960721.993    22960729.147
 03  6  9 18 55 30.0000000  0 10G23G15G21G16G18G 6G26G17G14G 3
  21208724.798    -8723701.39249  -6782884.01047  21208724.206    21208730.630
  20490311.471    -9351125.56549  -7051659.25947  20490310.753    20490316.946
  20786177.726     -152374.12849   -112981.59847  20786177.129    20786181.703
  24606290.701     5054079.31549   3941828.14244  24606289.929    24606300.701
  20419587.996    -4227955.10249  -3282941.60448  20419587.514    20419592.174
  23618516.321    11948651.59949   9208479.61545  23618515.991    23618527.319
  22890353.368     6349363.52349   4997592.36446  22890353.398    22890359.925
  21687797.444     3076524.27649   2399226.97846  21687796.751    21687803.721
  23651985.802    -8110810.13249  -6301699.90545  23651985.432    23651996.017
  22947462.595   -10012631.66249  -7781322.61346  22947462.232    22947469.382
 03  6  9 18 56  0.0000000  0 10G23G15G21G16G18G 6G26G17G14G 3
  21204025.624    -8748395.63549  -6802126.26147  21204025.009    21204031.442
  20483276.086    -9388096.71649  -7080467.94047  20483275.354    20483281.559
  20792115.204     -121172.72649    -88668.82847  20792114.608    20792119.176
  24619013.377     5120936.04349   3993924.05444  24619012.681    24619023.177
  20421346.467    -4218714.42649  -3275741.08248  20421345.966    20421350.627
  23639228.235    12057492.09049   9293290.06445  23639227.952    23639239.334
  22907821.881     6441160.84749   5069122.70846  22907821.935    22907828.456
  21697370.328     3126830.15649   2438426.33846  21697369.644    21697376.654
  23630797.872    -8222153.10149  -6388460.53345  23630797.480    23630808.041
  22934281.624   -10081898.05849  -7835296.40246  22934281.268    22934288.395
 03  6  9 18 56 30.0000000  0 11G23G15G21G16G18G 6G 9G26G17G14G 3
  21199382.291    -8772796.24149  -6821139.70647  21199381.704    21199388.140
  20476292.315    -9424796.74949  -7109065.36647  20476291.578    20476297.780
  20798114.512      -89646.20149    -64102.71847  20798113.905    20798118.459
  24631767.409     5187957.96349   4046148.68944  24631766.703    24631777.012
  20423166.300    -4209151.07449  -3268289.12548  20423165.816    20423170.485
  23659964.491    12166460.41449   9378200.10945  23659964.167    23659975.674
                  -1632770.12449  -1251055.90043
  22925364.231     6533346.91549   5140955.96146  22925364.271    22925370.915
  21706996.927     3177418.20049   2477845.55846  21706996.229    21707003.257
  23609635.168    -8333363.59349  -6475117.94845  23609634.729    23609645.215
  22921179.855   -10150747.97949  -7888945.66146  22921179.498    22921186.662
 03  6  9 18 57  0.0000000  0 11G23G15G21G16G18G 6G 9G26G17G14G 3
  21194794.732    -8796903.96949  -6839924.93347  21194794.139    21194800.581
  20469360.415    -9461224.22849  -7137450.40847  20469359.667    20469365.867
  20804175.752      -57794.18149    -39282.97947  20804175.159    20804179.703
  24644552.384     5255142.17549   4098499.79344  24644551.561    24644561.959
  20425047.313    -4199266.38149  -3260586.76948  20425046.814    20425051.492
  23680724.663    12275553.99249   9463207.74845  23680724.205    23680735.763
                  -1703595.89149  -1088721.17043
  22942980.060     6625918.60049   5213089.71246  22942980.066    22942986.772
  21716677.224     3228288.63949   2517484.83046  21716676.568    21716683.633
  23588498.173    -8444438.87649  -6561669.99945  23588497.773    23588508.154
  22908157.838   -10219179.24849  -7942268.69946  22908157.463    22908164.673
 03  6  9 18 57 30.0000000  0 11G23G15G21G16G18G 6G 9G26G17G14G 3
  21190262.751    -8820719.67949  -6858482.61047  21190262.177    21190268.604
  20462480.573    -9497378.02349  -7165622.19047  20462479.840    20462486.027
  20810299.012      -25616.34849    -14209.35847  20810298.400    20810302.951
  24657367.550     5322485.52349   4150974.89144  24657366.780    24657377.196
  20426989.207    -4189061.62949  -3252635.01848  20426988.720    20426993.420
  23701508.079    12384770.35349   9548311.08645  23701507.617    23701519.308
                  -1774196.72149  -1143735.15943
  22960668.596     6718872.73349   5285521.46445  22960668.600    22960675.308
  21726411.315     3279441.60549   2557344.24546  21726410.669    21726417.730
  23567387.367    -8555376.52849  -6648114.79645  23567386.998    23567397.276
  22895215.786   -10287189.90149  -7995263.98246  22895215.423    22895222.698
 03  6  9 18 58  0.0000000  0 11G23G15G21G16G18G 6G 9G26G17G14G 3
  21185786.189    -8844244.10149  -6876813.31847  21185785.606    21185792.011
  20455653.209    -9533256.19949  -7193579.20647  20455652.457    20455658.637
  20816484.412        6888.04049     11118.71747  20816483.808    20816488.352
  24670212.535     5389985.22349   4203571.80544  24670211.827    24670222.365
  20428991.864    -4178537.69849  -3244434.55848  20428991.384    20428996.064
  23722314.353    12494107.19449   9633508.27045  23722313.974    23722325.678
                  -1844569.03349  -1198570.61243
  22978429.500     6812206.59049   5358249.09845  22978429.484    22978436.251
  21736199.293     3330877.50249   2597424.12346  21736198.623    21736205.709
  23546303.317    -8666173.65149  -6734450.07945  23546302.924    23546313.122
  22882354.248   -10354777.52049  -8047929.63046  22882353.876    22882361.225
 03  6  9 18 58 30.0000000  0 10G23G15G21G18G 6G 9G26G17G14G 3
  21181365.380    -8867475.41449  -6894915.62647  21181364.826    21181371.216
  20448879.009    -9568854.76449  -7221318.34547  20448878.266    20448884.443
  20822732.511       39722.03749     36703.63247  20822731.913    20822736.447
  20431055.547    -4167693.02849  -3235984.17348  20431055.065    20431059.719
  23743143.537    12603564.50649   9718799.32445  23743143.204    23743155.034
                  -1914707.22049  -1253223.60744                  24301549.274
  22996262.531     6905919.45149   5431272.05645  22996262.529    22996269.127
  21746041.615     3382598.89049   2637726.46146  21746040.919    21746048.011
  23525247.034    -8776825.15849  -6820671.90145  23525246.631    23525256.757
  22869574.124   -10421937.30149  -8100261.90746  22869573.774    22869581.121
 03  6  9 18 59  0.0000000  0 10G23G15G21G18G 6G 9G26G17G14G 3
  21177000.312    -8890414.01549  -6912789.85147  21176999.728    21177006.138
  20442158.301    -9604172.18549  -7248838.41847  20442157.559    20442163.754
  20829043.517       72886.45549     62546.00747  20829042.914    20829047.444
  20433180.092    -4156528.40749  -3227284.48548  20433179.614    20433184.276
  23763995.318    12713140.07649   9804182.51645  23763995.078    23764006.906
  24288238.439    -1984607.54649  -1307691.36044  24288237.693    24288245.796
  23014167.139     7000008.68549   5504588.29045  23014167.224    23014173.748
  21755938.384     3434606.57249   2678251.86846  21755937.688    21755944.804
  23504219.050    -8887327.98149  -6906777.88545  23504218.578    23504228.588
  22856875.845   -10488666.89149  -8152258.98346  22856875.485    22856882.846
 03  6  9 18 59 30.0000000  0 10G23G15G21G18G 6G 9G26G17G14G 3
  21172689.696    -8913066.43349  -6930441.08047  21172689.132    21172695.495
  20435490.294    -9639212.81849  -7276142.80947  20435489.545    20435495.735
  20835416.369      106375.78349     88641.56147  20835415.762    20835420.256
  20435364.251    -4145050.71049  -3218340.84048  20435363.762    20435368.422
  23784868.056    12822825.78049   9889651.53145  23784867.798    23784879.724
  24274981.618    -2054272.03549  -1361975.31045  24274980.361    24274989.028
  23032141.617     7094465.52349   5578190.96345  23032141.750    23032148.339
  21765888.628     3486895.43049   2718996.38446  21765887.959    21765895.052
  23483218.705    -8997685.27949  -6992770.44345  23483218.196    23483228.149
  22844258.875   -10554969.59649  -8203923.41746  22844258.509    22844265.833
 03  6  9 19  0  0.0000000  0 10G23G15G21G18G 6G 9G26G17G14G 3
  21168433.629    -8935432.24849  -6947868.97647  21168433.059    21168439.416
  20428875.393    -9673974.34749  -7303229.71647  20428874.664    20428880.837
  20841851.354      140191.67049    114991.57447  20841850.747    20841855.231
  20437607.983    -4133259.82749  -3209153.15348  20437607.489    20437612.163
  23805761.597    12932620.23849   9975205.29645  23805761.344    23805773.369
  24261770.299    -2123696.66849  -1416072.35745  24261769.227    24261777.790
  23050185.838     7189288.15349   5652078.65645  23050185.879    23050192.560
  21775892.662     3539466.78049   2759961.01846  21775892.024    21775899.081
  23462246.752    -9107893.19249  -7078646.59345  23462246.255    23462256.165
  22831723.654   -10620842.53749  -8255252.96746  22831723.297    22831730.585
 03  6  9 19  0 30.0000000  0 10G23G15G21G18G 6G 9G26G17G14G 3
  21164232.087    -8957511.52849  -6965073.60047  21164231.507    21164237.864
  20422314.066    -9708454.34749  -7330097.25247  20422313.337    20422319.509
  20848348.702      174335.38949    141597.04247  20848348.089    20848352.575
  20439911.220    -4121156.34049  -3199721.88148  20439910.744    20439915.406
  23826675.368    13042521.51249  10060842.29045  23826675.125    23826687.234
  24248605.594    -2192877.45449  -1469979.38945  24248604.770    24248613.400
  23068299.126     7284474.17549   5726249.52145  23068299.199    23068305.939
  21785950.574     3592321.15449   2801146.19446  21785949.931    21785956.958
  23441303.854    -9217948.25349  -7164403.62845  23441303.314    23441313.234
  22819270.833   -10686282.66949  -8306245.26646  22819270.468    22819277.714
 03  6  9 19  1  0.0000000  0 10G23G15G21G18G 6G 9G26G17G14G 3
  21160084.909    -8979305.16249  -6982055.65347  21160084.319    21160090.661
  20415806.587    -9742651.40049  -7356744.31847  20415805.862    20415812.007
  20854908.547      208807.28049    168458.21747  20854907.928    20854912.391
  20442273.694    -4108741.42649  -3190047.94348  20442273.219    20442277.888
  23847609.016    13152527.12849  10146560.56145  23847608.803    23847620.965
  24235487.889    -2261811.25249  -1523694.00545  24235487.201    24235495.865
  23086481.051     7380020.40349   5800701.04845  23086481.092    23086487.803
  21796062.359     3645458.74449   2842552.05046  21796061.730    21796068.724
  23420390.542    -9327847.90949  -7250039.57345  23420389.992    23420399.829
  22806900.741   -10751287.93349  -8356898.71446  22806900.401    22806907.583
 03  6  9 19  1 30.0000000  0 10G23G15G21G18G 6G 9G26G17G14G 3
  21155991.853    -9000814.12649  -6998815.88947  21155991.272    21155997.603
  20409353.262    -9776564.15749  -7383169.85847  20409352.509    20409358.654
  20861530.918      243607.87049    195575.51647  20861530.293    20861534.755
  20444695.253    -4096016.05849  -3180132.09948  20444694.782    20444699.454
  23868561.970    13262634.29949  10232357.92045  23868561.768    23868574.059
  24222417.822    -2330494.70249  -1577213.58245  24222417.290    24222425.901
  23104730.995     7475923.76149   5875430.84045  23104730.997    23104737.711
  21806228.162     3698880.02449   2884178.94646  21806227.512    21806234.554
  23399507.271    -9437589.90249  -7335552.66945  23399506.649    23399516.505
  22794613.808   -10815856.21649  -8407211.68346  22794613.427    22794620.637
 03  6  9 19  2  0.0000000  0 10G23G15G21G18G 6G 9G26G17G14G 3
  21151953.078    -9022038.07949  -7015354.01447  21151952.508    21151958.809
  20402954.457    -9810190.14749  -7409371.92447  20402953.699    20402959.859
  20868216.072      278738.34649    222949.89447  20868215.465    20868219.922
  20447175.942    -4082980.18049  -3169974.27848  20447175.465    20447180.137
  23889534.031    13372841.78449  10318233.55145  23889533.809    23889546.136
  24209396.233    -2398923.31449  -1630534.48945  24209395.754    24209404.379
  23123048.451     7572182.22149   5950437.39545  23123048.457    23123055.198
  21816448.116     3752586.21549   2926027.88846  21816447.468    21816454.570
  23378654.702    -9547170.16049  -7420939.67045  23378654.155    23378663.817
  22782410.693   -10879984.28249  -8457181.57546  22782410.256    22782417.518
 03  6  9 19  2 30.0000000  0 10G23G15G21G18G 6G 9G26G17G14G 3
  21147968.219    -9042978.61449  -7031671.29847  21147967.627    21147973.958
  20396610.343    -9843528.71749  -7435350.03147  20396609.591    20396615.761
  20874963.913      314198.47249    250581.14247  20874963.284    20874967.773
  20449715.320    -4069635.76049  -3159576.03948  20449714.827    20449719.524
  23910524.652    13483146.39949  10404184.82645  23910524.398    23910536.773
  24196423.600    -2467094.65649  -1683654.95745  24196423.125    24196431.896
  23141432.698     7668791.91649   6025717.61345  23141432.689    23141439.413
  21826722.219     3806576.99649   2968098.57846  21826721.555    21826728.725
  23357833.192    -9656586.86349  -7506199.24045  23357832.679    23357842.322
  22770291.587   -10943670.81949  -8506807.42546  22770291.166    22770298.372
 03  6  9 19  3  0.0000000  0 10G23G15G21G18G 6G 9G26G17G14G 3
  21144037.245    -9063635.97149  -7047767.93047  21144036.668    21144043.018
  20390321.288    -9876577.89149  -7461102.63647  20390320.545    20390326.714
  20881774.707      349989.34949    278470.11347  20881774.069    20881778.571
  20452313.310    -4055983.30749  -3148937.77648  20452312.828    20452317.516
  23931533.329    13593546.12949  10490210.21645  23931533.133    23931545.560
  24183500.553    -2535004.97849  -1736572.02345  24183500.201    24183508.911
  23159883.337     7765750.60349   6101269.79145  23159883.356    23159890.116
  21837050.722     3860853.28749   3010391.74446  21837050.065    21837057.217
  23337043.415    -9765836.81249  -7591328.84145  23337042.962    23337052.580
  22758256.901   -11006913.35849  -8556087.30446  22758256.477    22758263.696
 03  6  9 19  3 30.0000000  0 10G23G15G21G18G 6G 9G26G17G14G 3
  21140159.933    -9084011.37149  -7063644.85347  21140159.332    21140165.672
  20384087.502    -9909336.58249  -7486628.88947  20384086.750    20384092.949
  20888648.426      386111.00849    306616.84047  20888647.810    20888652.317
  20454969.600    -4042024.52949  -3138060.82048  20454969.119    20454973.785
  23952559.461    13704037.92249  10576307.34145  23952559.298    23952571.870
  24170627.785    -2602651.53849  -1789283.56845  24170627.423    24170636.273
  23178399.820     7863054.49149   6177090.95045  23178399.768    23178406.524
  21847433.435     3915414.38649   3052906.84646  21847432.777    21847439.896
  23316285.861    -9874917.72649  -7676326.73345  23316285.431    23316295.025
  22746307.024   -11069710.17949  -8605019.87746  22746306.649    22746313.830
 03  6  9 19  4  0.0000000  0 10G23G15G21G18G 6G 9G26G17G14G 3
  21136336.304    -9104104.68049  -7079301.96547  21136335.719    21136342.030
  20377909.431    -9941802.45949  -7511926.97947  20377908.677    20377914.920
  20895585.343      422564.51949    335022.15147  20895584.718    20895589.231
  20457684.144    -4027759.62149  -3126945.31648  20457683.670    20457688.315
  23973602.809    13814620.29549  10662475.04845  23973602.689    23973615.328
  24157806.053    -2670030.10849  -1841786.29645  24157805.619    24157814.486
  23196981.509     7960701.60949   6253179.55545  23196981.464    23196988.229
  21857870.621     3970261.79549   3095645.03846  21857869.932    21857877.092
  23295561.118    -9983826.06349  -7761190.13845  23295560.689    23295570.218
  22734442.564   -11132058.25349  -8653602.77846  22734442.193    22734449.376
 03  6  9 19  4 30.0000000  0 10G23G15G21G18G 6G 9G26G17G14G 3
  21132565.897    -9123918.15449  -7094741.01747  21132565.330    21132571.660
  20371787.098    -9973975.43849  -7536996.83047  20371786.356    20371792.593
  20902585.199      459349.09249    363685.43747  20902584.592    20902589.108
  20460456.464    -4013191.03149  -3115593.17148  20460455.981    20460460.612
  23994662.664    13925289.48349  10748710.41845  23994662.560    23994675.268
  24145035.630    -2737138.70149  -1894078.63045  24145035.200    24145044.251
  23215627.587     8058687.38649   6329532.04745  23215627.575    23215634.404
  21868361.923     4025393.95349   3138605.12246  21868361.258    21868368.436
  23274869.492   -10092560.55649  -7845918.06245  23274869.074    23274878.479
  22722663.589   -11193957.14649  -8701835.64446  22722663.257    22722670.312
 03  6  9 19  5  0.0000000  0 10G23G15G21G18G 6G 9G26G17G14G 3
  21128848.737    -9143452.03849  -7109962.21547  21128848.153    21128854.478
  20365720.909   -10005853.54649  -7561836.91547  20365720.165    20365726.411
  20909648.240      496465.59749    392607.36147  20909647.632    20909652.180
  20463286.471    -3998319.36149  -3104004.87248  20463285.992    20463290.610
  24015738.777    14036043.56349  10835011.92045  24015738.599    24015751.472
  24132317.394    -2803973.50949  -1946157.64645  24132316.935    24132325.880
  23234337.718     8157009.39049   6406146.53545  23234337.612    23234344.409
  21878907.677     4080811.84849   3181787.85046  21878907.018    21878914.150
  23254211.536   -10201118.18449  -7930508.18245  23254211.115    23254220.456
  22710970.612   -11255404.00649  -8749716.30646  22710970.292    22710977.302
 03  6  9 19  5 30.0000000  0 10G23G15G21G18G 6G 9G26G17G14G 3
  21125184.557    -9162707.30249  -7124966.30547  21125183.980    21125190.300
  20359711.036   -10037435.59349  -7586446.29747  20359710.306    20359716.537
  20916774.522      533914.39549    421788.22447  20916773.929    20916778.495
  20466173.967    -3983145.55249  -3092181.12848  20466173.493    20466178.112
  24036830.620    14146880.02749  10921377.63145  24036830.477    24036843.319
  24119651.694    -2870531.48049  -1998020.92745  24119651.423    24119660.141
  23253111.240     8255664.65649   6483020.71945  23253111.156    23253117.927
  21889507.890     4136515.89649   3225193.56046  21889507.209    21889514.341
  23233587.765   -10309496.19549  -8014958.32945  23233587.362    23233596.560
  22699364.024   -11316396.78849  -8797243.12246  22699363.727    22699370.766
 03  6  9 19  6  0.0000000  0 10G23G15G21G18G 6G 9G26G17G14G 3
  21121573.270    -9181684.66849  -7139753.85447  21121572.709    21121579.039
  20353757.849   -10068719.75649  -7610823.56947  20353757.127    20353763.315
  20923964.158      571695.97649    451228.39447  20923963.571    20923968.145
  20469118.691    -3967670.78549  -3080122.87848  20469118.224    20469122.850
  24057937.611    14257796.37649  11007805.58945  24057937.455    24057950.340
  24107039.576    -2936808.90449  -2049665.58345  24107039.344    24107047.821
  23271947.532     8354649.94349   6560152.07645  23271947.476    23271954.235
  21900162.553     4192506.26849   3268822.37646  21900161.863    21900168.998
  23212998.649   -10417691.89749  -8099266.41345  23212998.186    23213007.390
  22687844.172   -11376933.50149  -8844414.55446  22687843.833    22687851.009
 03  6  9 19  6 30.0000000  0 10G23G15G21G18G 6G 9G26G17G14G 3
  21118014.709    -9200385.04449  -7154325.56047  21118014.143    21118020.422
  20347861.609   -10099704.76749  -7634967.72647  20347860.889    20347867.067
  20931217.122      609810.55649    480928.05047  20931216.520    20931221.095
  20472120.475    -3951896.35849  -3067831.11848  20472120.016    20472124.644
  24079059.290    14368790.04849  11094293.78245  24079059.143    24079072.106
  24094481.296    -3002803.00549  -2101089.49045  24094480.888    24094489.444
  23290846.088     8453962.22949   6637538.22245  23290846.043    23290852.708
  21910871.588     4248782.60849   3312674.02246  21910870.930    21910878.061
  23192444.808   -10525702.72349  -8183430.45145  23192444.236    23192453.495
  22676411.566   -11437012.08149  -8891229.00946  22676411.247    22676418.434
 03  6  9 19  7  0.0000000  0 10G23G15G21G18G 6G 9G26G17G14G 3
  21114508.628    -9218809.57649  -7168682.32747  21114508.060    21114514.328
  20342022.512   -10130389.57749  -7658877.96947  20342021.791    20342027.951
  20938533.511      648258.29849    510887.30847  20938532.925    20938537.517
  20475178.999    -3935823.70449  -3055306.97948  20475178.519    20475183.180
  24100195.212    14479858.17849  11180839.99045  24100195.042    24100208.084
  24081977.416    -3068510.75449  -2152290.24845  24081977.114    24081985.689
  23309806.272     8553598.01149   6715176.43145  23309806.157    23309812.813
  21921635.082     4305344.83149   3356748.43246  21921634.398    21921641.564
  23171926.451   -10633526.56249  -8267448.78545  23171925.890    23171935.065
  22665066.492   -11496630.97949  -8937685.27746  22665066.112    22665073.347
 03  6  9 19  7 30.0000000  0 10G23G15G21G18G 6G 9G26G17G14G 3
  21111054.911    -9236958.89949  -7182824.64947  21111054.351    21111060.612
  20336240.885   -10160772.29249  -7682552.81547  20336240.154    20336246.328
  20945913.336      687039.46549    541106.37647  20945912.746    20945917.330
  20478294.136    -3919453.56749  -3042551.03748  20478293.672    20478298.349
  24121344.836    14590998.53849  11267442.48445  24121344.581    24121357.721
  24069528.830    -3133928.57349  -2203265.11445  24069528.462    24069537.049
  23328827.415     8653554.57249   6793064.60145  23328827.339    23328833.957
  21932453.146     4362194.01949   3401046.45246  21932452.429    21932459.641
  23151444.112   -10741160.37749  -8351319.07145  23151443.580    23151452.755
  22653809.257   -11555788.03449  -8983781.66146  22653808.835    22653816.124
 03  6  9 19  8  0.0000000  0 10G23G15G21G18G 6G 9G26G17G14G 3
  21107653.419    -9254833.86749  -7196753.18347  21107652.836    21107659.110
  20330516.960   -10190851.68749  -7705991.30647  20330516.226    20330522.397
  20953356.712      726154.54249    571585.62947  20953356.103    20953360.699
  20481465.700    -3902786.95949  -3029564.07448  20481465.227    20481469.921
  24142507.738    14702208.50049  11354099.19245  24142507.390    24142520.682
  24057135.971    -3199053.40449  -2254011.69445  24057135.512    24057144.144
  23347908.995     8753828.73549   6871200.24045  23347908.988    23347915.648
  21943325.779     4419329.86049   3445567.82346  21943325.062    21943332.289
  23130998.440   -10848601.74449  -8435039.38345  23130997.934    23131007.159
  22642640.269   -11614481.25549  -9029516.62746  22642639.936    22642647.174
 03  6  9 19  8 30.0000000  0 10G23G15G21G18G 6G 9G26G17G14G 3
  21104303.873    -9272435.61249  -7210468.82247  21104303.315    21104309.589
  20324850.987   -10220626.52649  -7729192.48047  20324850.279    20324856.423
  20960863.667      765603.74849    602325.24547  20960863.056    20960867.661
  20484693.356    -3885825.37349  -3016347.26448  20484692.882    20484697.584
  24163683.444    14813485.47249  11440808.13345  24163683.010    24163696.335
  24044799.449    -3263882.14349  -2304527.52445  24044799.053    24044807.551
  23367050.411     8854417.08649   6949580.72145  23367050.337    23367057.139
  21954252.891     4476752.17649   3490312.44146  21954252.197    21954259.442
  23110589.919   -10955848.03549  -8518607.70446  23110589.422    23110598.632
  22631559.898   -11672709.18149  -9074889.02446  22631559.527    22631566.768
 03  6  9 19  9  0.0000000  0 10G23G15G21G18G 6G 9G26G17G14G 3
  21101006.292    -9289764.66649  -7223971.96747  21101005.718    21101011.979
  20319243.359   -10250094.85849  -7752154.81747  20319242.641    20319248.786
  20968434.293      805387.63349    633325.65347  20968433.685    20968438.287
  20487976.994    -3868569.71749  -3002901.30048  20487976.529    20487981.223
  24184871.425    14924827.37549  11527567.67545  24184870.962    24184884.394
  24032519.911    -3328411.31949  -2354809.89245  24032519.463    24032528.094
  23386251.087     8955317.10549   7028204.04645  23386251.065    23386257.911
  21965234.534     4534461.22549   3535280.47546  21965233.875    21965241.140
  23090219.044   -11062896.32849  -8602021.73746  23090218.605    23090227.799
  22620568.439   -11730469.30349  -9119896.88846  22620568.127    22620575.427
 03  6  9 19  9 30.0000000  0 10G23G15G21G18G 6G 9G26G17G14G 3
  21097760.455    -9306821.75149  -7237263.18847  21097759.865    21097766.139
  20313694.307   -10279255.37849  -7774877.30047  20313693.593    20313699.742
  20976068.741      845506.77349    664587.29547  20976068.140    20976072.748
  20491316.398    -3851021.20749  -2989227.14448  20491315.917    20491320.612
  24206071.250    15036231.66649  11614375.78945  24206070.846    24206084.250
  24020297.872    -3392637.81149  -2404856.43345  24020297.414    24020306.107
  23405510.465     9056525.66449   7107067.80945  23405510.472    23405517.395
  21976270.958     4592457.76249   3580472.53546  21976270.304    21976277.561
  23069886.475   -11169743.96749  -8685279.42946  23069886.001    23069895.173
  22609666.471   -11787759.61849  -9164538.67346  22609666.114    22609673.405
 03  6  9 19 10  0.0000000  0 10G23G15G21G18G 6G 9G26G17G14G 3
  21094566.030    -9323608.46449  -7250343.73447  21094565.436    21094571.730
  20308203.959   -10308107.35449  -7797359.36247  20308203.244    20308209.398
  20983766.884      885960.69749    696109.80547  20983766.281    20983770.898
  20494711.163    -3833181.48349  -2975326.06848  20494710.697    20494715.388
  24227282.322    15147695.13149  11701230.01545  24227281.801    24227295.587
  24008133.968    -3456558.92949  -2454665.04745  24008133.625    24008142.288
  23424827.975     9158039.10549   7186169.13145  23424827.958    23424834.846
  21987361.870     4650740.73849   3625887.80146  21987361.187    21987368.486
  23049592.424   -11276389.10149  -8768379.32446  23049591.940    23049601.116
  22598854.100   -11844578.98149  -9208813.48746  22598853.769    22598861.020
 03  6  9 19 10 30.0000000  0 10G23G15G21G18G 6G 9G26G17G14G 3
  21091422.908    -9340125.51649  -7263214.14847  21091422.322    21091428.648
  20302772.713   -10336648.83549  -7819599.47347  20302771.983    20302778.145
  20991528.840      926749.84549    727893.53647  20991528.247    20991532.859
  20498161.261    -3815051.25249  -2961198.61948  20498160.799    20498165.457
  24248504.253    15259215.70549  11788128.77445  24248503.780    24248517.585
  23996028.856    -3520171.23149  -2504233.00545  23996028.536    23996037.186
  23444202.931     9259854.50249   7265505.74445  23444202.846    23444209.603
  21998507.416     4709310.94249   3671526.88246  21998506.751    21998514.096
  23029337.541   -11382828.73949  -8851319.08846  23029336.992    23029346.167
  22588131.806   -11900925.02449  -9252719.47146  22588131.422    22588138.709
 03  6  9 19 11  0.0000000  0 10G23G15G21G18G 6G 9G26G17G14G 3
  21088330.963    -9356373.75849  -7275875.10547  21088330.383    21088336.691
  20297400.816   -10364878.45649  -7841596.58347  20297400.082    20297406.242
  20999354.600      967874.55649    759938.74147  20999354.020    20999358.663
  20501666.392    -3796631.78849  -2946845.79848  20501665.912    20501670.594
  24269736.652    15370791.08949  11875070.26545  24269736.250    24269750.029
  23983983.118    -3583471.53349  -2553557.84845  23983982.774    23983991.395
  23463634.725     9361968.77749   7345075.23745  23463634.653    23463641.356
  22009707.715     4768168.62949   3717389.96846  22009707.026    22009714.378
  23009122.122   -11489060.44749  -8934096.83846  23009121.587    23009130.729
  22577499.891   -11956795.99749  -9296255.27646  22577499.482    22577506.780
 03  6  9 19 11 30.0000000  0 10G23G15G21G18G 6G 9G26G17G14G 3
  21085290.003    -9372354.12449  -7288327.32747  21085289.408    21085295.705
  20292088.490   -10392794.86549  -7863349.62647  20292087.760    20292093.910
  21007244.308     1009335.19549    792245.71347  21007243.718    21007248.394
  20505226.320    -3777924.34449  -2932268.57348  20505225.837    20505230.510
  24290978.961    15482418.34149  11962052.10545  24290978.635    24290992.563
  23971997.401    -3646456.71549  -2602637.12945  23971997.042    23972005.749
  23483122.798     9464379.02849   7424875.37745  23483122.802    23483129.387
  22020962.588     4827313.30249   3763476.67346  22020961.925    22020969.281
  22988946.801   -11595081.63749  -9016710.55246  22988946.304    22988955.360
  22566958.691   -12012190.37449  -9339419.70746  22566958.280    22566965.594
 03  6  9 19 12  0.0000000  0 10G23G15G21G18G 6G 9G26G17G14G 3
  21082299.940    -9388067.03849  -7300571.14547  21082299.358    21082305.626
  20286836.141   -10420396.05949  -7884857.04847  20286835.426    20286841.572
  21015198.044     1051132.22749    824814.80647  21015197.441    21015202.139
  20508840.921    -3758929.46949  -2917467.38047  20508840.445    20508845.106
  24312230.809    15594095.55149  12049072.91545  24312230.342    24312244.371
  23960072.360    -3709123.04749  -2651467.97145  23960072.017    23960080.649
  23502666.626     9567082.19049   7504903.72145  23502666.622    23502673.219
  22032272.237     4886745.64649   3809787.52946  22032271.606    22032278.907
  22968812.164   -11700889.19749  -9099157.80546  22968811.653    22968820.615
  22556508.642   -12067105.81849  -9382210.93746  22556508.244    22556515.505
 03  6  9 19 12 30.0000000  0 10G23G15G21G18G 6G 9G26G17G14G 3
  21079360.472    -9403514.08549  -7312607.79447  21079359.883    21079366.157
  20281643.927   -10447681.50849  -7906118.43647  20281643.191    20281649.321
  21023215.713     1093265.32549    857645.76247  21023215.141    21023219.851
  20512509.845    -3739649.15949  -2902443.77047  20512509.365    20512514.034
  24333491.501    15705819.45549  12136130.11745  24333491.223    24333504.964
  23948208.446    -3771468.24149  -2700048.56145  23948208.111    23948216.735
  23522265.544     9670074.83449   7585157.74345  23522265.495    23522272.000
  22043636.487     4946464.82949   3856321.90446  22043635.878    22043643.174
  22948718.544   -11806481.21949  -9181437.11346  22948718.073    22948726.933
  22546149.905   -12121541.22949  -9424628.12146  22546149.466    22546156.758
 03  6  9 19 13  0.0000000  0 10G23G15G21G18G 6G 9G26G17G14G 3
  21076471.477    -9418695.77049  -7324437.66747  21076470.893    21076477.165
  20276512.118   -10474649.38449  -7927132.36547  20276511.383    20276517.503
  21031297.537     1135735.34249    890739.25747  21031296.936    21031301.663
  20516232.934    -3720084.22549  -2887198.37447  20516232.448    20516237.089
  24354760.718    15817587.98949  12223222.09045  24354760.250    24354774.115
  23936406.268    -3833488.79449  -2748376.18745  23936405.990    23936414.445
  23541918.929     9773353.98849   7665634.92645  23541918.888    23541925.549
  22055055.405     5006471.56249   3903080.34246  22055054.773    22055062.132
  22928666.495   -11911854.90649  -9263546.28946  22928665.945    22928674.750
  22535882.906   -12175494.34149  -9466669.48946  22535882.523    22535889.827
 03  6  9 19 13 30.0000000  0 11G23G15G21G18G 6G 9G31G26G17G14G 3
  21073632.647    -9433613.77249  -7336062.07447  21073632.058    21073638.310
  20271440.851   -10501298.94649  -7947898.26047  20271440.104    20271446.251
  21039443.326     1178541.74649    924094.87747  21039442.737    21039447.468
  20520009.855    -3700236.49849  -2871732.62247  20520009.383    20520014.009
  24376037.776    15929398.04949  12310346.33845  24376037.329    24376051.377
  23924666.400    -3895182.19449  -2796448.88445  23924666.108    23924674.567
  24363291.649    -1528123.31149   -904152.45144  24363289.835    24363299.154
  23561626.087     9876915.97649   7746332.53745  23561626.096    23561632.823
  22066528.937     5066765.04449   3950062.22246  22066528.261    22066535.647
  22908656.306   -12017008.28949  -9345483.79246  22908655.768    22908664.558
  22525707.888   -12228964.30149  -9508334.37246  22525707.487    22525714.803
 03  6  9 19 14  0.0000000  0 11G23G15G21G18G 6G 9G31G26G17G14G 3
  21070843.133    -9448272.82049  -7347484.69747  21070842.540    21070848.811
  20266429.748   -10527632.49649  -7968417.90947  20266429.023    20266435.155
  21047652.435     1221680.79749    957709.69147  21047651.834    21047656.554
  20523839.669    -3680110.70549  -2856050.19247  20523839.202    20523843.837
  24397321.467    16041243.33849  12397498.16845  24397321.045    24397335.331
  23912988.690    -3956549.12249  -2844267.17445  23912988.372    23912996.786
  24346225.406    -1617806.51949   -974035.40845  24346224.989    24346233.441
  23581385.805     9980754.04949   7827245.30145  23581385.766    23581392.628
  22078056.363     5127341.82549   3997264.85946  22078055.670    22078063.059
  22888687.807   -12121942.67349  -9427250.67846  22888687.272    22888695.983
  22515624.443   -12281953.08949  -9549624.32146  22515624.097    22515631.344
 03  6  9 19 14 30.0000000  0 11G23G15G21G18G 6G 9G31G26G17G14G 3
  21068103.908    -9462667.39049  -7358701.24147  21068103.336    21068109.615
  20261480.288   -10553642.15149  -7988685.17747  20261479.560    20261485.693
  21055926.092     1265158.92749    991588.72147  21055925.476    21055930.194
  20527723.370    -3659701.76749  -2840147.13547  20527722.883    20527727.543
  24418612.647    16153127.58049  12484680.27144  24418612.038    24418626.606
  23901374.921    -4017579.89549  -2891823.51145  23901374.663    23901382.892
  24329219.320    -1707173.71349  -1043672.17245  24329219.113    24329227.004
  23601198.654    10084871.48149   7908375.72445  23601198.650    23601205.538
  22089638.897     5188208.36649   4044693.28146  22089638.222    22089645.608
  22868762.685   -12226648.95249  -9508839.80846  22868762.166    22868770.856
  22505634.239   -12334452.35449  -9590532.82646  22505633.883    22505641.067
 03  6  9 19 15  0.0000000  0 11G23G15G21G18G 6G 9G31G26G17G14G 3
  21065414.793    -9476798.67749  -7369712.62647  21065414.227    21065420.522
  20256592.625   -10579326.96549  -8008699.31647  20256591.893    20256598.037
  21064264.324     1308976.49249   1025732.25247  21064263.714    21064268.446
  20531660.669    -3639010.99749  -2824024.46847  20531660.197    20531664.875
  24439910.745    16265048.21249  12571890.72544  24439909.962    24439924.927
  23889825.476    -4078271.97149  -2939115.93445  23889825.278    23889833.516
  24312273.822    -1796222.60449  -1113060.88545  24312273.303    24312281.437
  23621064.140    10189264.84649   7989721.15345  23621064.177    23621070.989
  22101276.531     5249364.33249   4092347.22746  22101275.845    22101283.292
  22848881.424   -12331125.00349  -9590249.53746  22848880.879    22848889.570
  22495737.419   -12386460.70349  -9631058.79646  22495737.056    22495744.195
 03  6  9 19 15 30.0000000  0 11G23G15G21G18G 6G 9G31G26G17G14G 3
  21062775.486    -9490668.34249  -7380520.14847  21062774.914    21062781.202
  20251766.899   -10604686.22549  -8028459.77647  20251766.184    20251772.323
  21072667.006     1353132.73449   1060139.67947  21072666.407    21072671.124
  20535651.255    -3618040.42949  -2807683.77247  20535650.775    20535655.484
  24461215.130    16377002.04349  12659127.08944  24461214.743    24461229.306
  23878340.967    -4138622.86249  -2986142.52245  23878340.768    23878349.041
  24295389.208    -1884951.39749  -1182200.11645  24295388.853    24295396.938
  23640981.277    10293930.23949   8071278.53445  23640981.309    23640988.233
  22112969.025     5310808.71849   4140225.91246  22112968.340    22112975.863
  22829044.359   -12435368.79449  -9671478.29446  22829043.802    22829052.469
  22485934.140   -12437977.26449  -9671201.55646  22485933.792    22485940.865
 03  6  9 19 16  0.0000000  0 11G23G15G21G18G 6G 9G31G26G17G14G 3
  21060185.709    -9504277.75649  -7391124.88347  21060185.127    21060191.433
  20247003.329   -10629718.97149  -8047965.81447  20247002.602    20247008.772
  21081134.129     1397627.55049   1094810.93647  21081133.515    21081138.230
  20539694.751    -3596791.62049  -2791126.27147  20539694.276    20539698.984
  24482525.240    16488985.94349  12746386.85044  24482524.839    24482539.556
  23866921.907    -4198630.05949  -3032901.28245  23866921.714    23866930.016
  24278565.929    -1973357.91349  -1251088.19945  24278565.548    24278573.736
  23660949.623    10398864.22949   8153045.24245  23660949.595    23660956.496
  22124716.368     5372541.16149   4188329.06046  22124715.678    22124723.212
  22809251.824   -12539378.38049  -9752524.56546  22809251.324    22809259.921
  22476224.686   -12489000.71049  -9710960.05546  22476224.333    22476231.383
 03  6  9 19 16 30.0000000  0 11G23G15G21G18G 6G 9G31G26G17G14G 3
  21057645.189    -9517628.13849  -7401527.76647  21057644.606    21057650.920
  20242302.082   -10654424.13749  -8067216.59047  20242301.386    20242307.556
  21089665.651     1442460.73149   1129745.85647  21089665.039    21089669.741
  20543790.964    -3575265.99349  -2774353.05947  20543790.490    20543795.209
  24503840.453    16600997.20349  12833667.92444  24503840.084    24503854.844
  23855568.749    -4258290.58149  -3079389.90445  23855568.534    23855576.906
  24261804.499    -2061439.88749  -1319723.42045  24261804.143    24261812.198
  23680968.392    10504063.41449   8235018.57445  23680968.467    23680975.305
  22136518.421     5434561.39249   4236656.46246  22136517.718    22136525.303
  22789504.327   -12643151.59949  -9833386.64446  22789503.845    22789512.379
  22466609.320   -12539529.58749  -9750333.18646  22466608.951    22466615.981
 03  6  9 19 17  0.0000000  0 11G23G15G21G18G 6G 9G31G26G17G14G 3
  21055153.774    -9530720.51749  -7411729.61347  21055153.181    21055159.513
  20237663.473   -10678800.40949  -8086211.08847  20237662.758    20237668.927
  21098261.507     1487632.47149   1164944.58647  21098260.898    21098265.638
  20547939.645    -3553464.65649  -2757365.01947  20547939.178    20547943.896
  24525160.388    16713033.34049  12920968.40544  24525160.085    24525175.076
  23844282.142    -4317601.36249  -3125605.98645  23844281.927    23844290.328
  24245105.278    -2149194.83149  -1388103.80445  24245104.732    24245112.785
  23701037.021    10609524.61949   8317196.06745  23701037.062    23701043.947
  22148375.343     5496869.79849   4285208.39546  22148374.659    22148382.280
  22769802.326   -12746685.71949  -9914062.42946  22769801.824    22769810.317
  22457088.396   -12589562.13949  -9789319.56946  22457088.061    22457095.098
 03  6  9 19 17 30.0000000  0 10G23G15G21G18G 9G31G26G17G14G 3
  21052711.461    -9543554.92949  -7421730.44547  21052710.882    21052717.215
  20233087.856   -10702845.33149  -8104947.39447  20233087.145    20233093.313
  21106922.021     1533143.75649   1200407.89847  21106921.432    21106926.174
  20552140.688    -3531388.08049  -2740162.50247  20552140.219    20552144.937
  23833063.046    -4376558.38949  -3171546.43245  23833062.704    23833071.102
  24228468.971    -2236619.16849  -1456226.61345  24228468.551    24228476.635
  23721155.094    10715245.80949   8399576.15445  23721155.196    23721162.009
  22160287.256     5559467.06749   4333985.43846  22160286.543    22160294.168
  22750146.433   -12849977.50649  -9994549.38246  22750145.952    22750154.384
  22447662.419   -12639096.14049  -9827917.47746  22447662.076    22447669.068
 03  6  9 19 18  0.0000000  0 10G23G15G21G18G 9G31G26G17G14G 3
  21050318.267    -9556131.42649  -7431530.30847  21050317.688    21050324.000
  20228575.817   -10726556.42549  -8123423.57647  20228575.099    20228581.254
  21115647.428     1578995.96749   1236136.85747  21115646.842    21115651.608
  20556394.130    -3509036.20249  -2722745.46247  20556393.645    20556398.333
  23821911.933    -4435157.86949  -3217208.25945  23821911.534    23821920.034
  24211896.112    -2323709.44249  -1524089.12545  24211895.743    24211903.759
  23741322.288    10821224.78949   8482157.12345  23741322.384    23741329.369
  22172254.252     5622353.77149   4382988.00946  22172253.548    22172261.173
  22730537.322   -12953023.46749 -10074844.78346  22730536.847    22730545.229
  22438331.802   -12688128.90549  -9866124.81346  22438331.436    22438338.436
 03  6  9 19 18 30.0000000  0 10G23G15G21G18G 9G31G26G17G14G 3
  21047973.268    -9568454.43649  -7441132.64547  21047972.682    21047978.988
  20224126.866   -10749935.79849  -8141641.27047  20224126.139    20224132.282
  21124437.017     1625185.29749   1272128.51047  21124436.407    21124441.199
  20560699.039    -3486413.91449  -2705117.71547  20560698.555    20560703.224
  23810828.686    -4493400.28749  -3262591.86445  23810828.288    23810836.854
  24195386.721    -2410466.60149  -1591692.05245  24195386.333    24195394.344
  23761537.273    10927454.98249   8564933.82345  23761537.290    23761544.275
  22184275.606     5685526.37649   4432213.36746  22184274.946    22184282.595
  22710974.836   -13055824.60449 -10154949.41446  22710974.370    22710982.633
  22429096.211   -12736662.42049  -9903943.12246  22429095.810    22429102.807
 03  6  9 19 19  0.0000000  0 10G23G15G21G18G 9G31G26G17G14G 3
  21045676.504    -9580524.03649  -7450537.51847  21045675.922    21045682.212
  20219741.480   -10772981.18949  -8159598.72347  20219740.755    20219746.879
  21133290.918     1671712.81449   1308383.69047  21133290.327    21133295.112
  20565055.392    -3463521.37549  -2687279.38447  20565054.919    20565059.549
  23799814.070    -4551281.72249  -3307694.17945  23799813.812    23799822.294
  24178941.383    -2496887.29449  -1659032.78645  24178940.988    24178949.152
  23781799.528    11033934.13349   8647904.53345  23781799.563    23781806.626
  22196351.680     5748986.10249   4481662.45046  22196351.005    22196358.675
  22691459.616   -13158377.38449 -10234860.52646  22691459.130    22691467.334
  22419955.964   -12784694.32749  -9941370.56746  22419955.588    22419962.612
 03  6  9 19 19 30.0000000  0 10G23G15G21G18G 9G31G26G17G14G 3
  21043427.862    -9592340.57149  -7459745.20547  21043427.288    21043433.583
  20215419.995   -10795690.68649  -8177294.43847  20215419.276    20215425.401
  21142209.351     1718579.55649   1344903.19247  21142208.773    21142213.572
  20569463.016    -3440359.20849  -2669230.95247  20569462.537    20569467.154
  23788868.840    -4608798.59849  -3352512.43445  23788868.579    23788877.086
  24162560.707    -2582968.38249  -1726108.89445  24162560.437    24162568.589
  23802108.715    11140659.75049   8731067.26845  23802108.753    23802115.897
  22208482.445     5812733.19949   4531335.44046  22208481.748    22208489.395
  22671992.181   -13260678.94249 -10314575.88746  22671991.657    22671999.806
  22410911.713   -12832222.28449  -9978405.33646  22410911.399    22410918.360
 03  6  9 19 20  0.0000000  0 10G23G15G21G18G 9G31G26G17G14G 3
  21041227.159    -9603905.47249  -7468756.81347  21041226.572    21041232.869
  20211162.578   -10818063.43149  -8194727.75447  20211161.864    20211168.020
  21151192.316     1765785.11149   1381686.70947  21151191.725    21151196.550
  20573921.671    -3416928.78349  -2650973.48947  20573921.191    20573925.821
  23777993.530    -4665948.28149  -3397044.56145  23777993.228    23778001.792
  24146245.153    -2668707.65049  -1792918.66945  24146244.823    24146253.009
  23822464.286    11247628.49249   8814419.48045  23822464.302    23822471.506
  22220667.704     5876766.94549   4581231.81246  22220667.002    22220674.657
  22652572.960   -13362727.01449 -10394093.72646  22652572.421    22652580.479
  22401963.521   -12879245.30749 -10015046.63946  22401963.184    22401970.147
 03  6  9 19 20 30.0000000  0 10G23G15G21G18G 9G31G26G17G14G 3
  21039074.199    -9615219.31049  -7477572.78847  21039073.642    21039079.883
  20206969.616   -10840097.57749  -8211897.22247  20206968.907    20206975.058
  21160239.760     1813329.73149   1418734.43547  21160239.171    21160244.016
  20578431.160    -3393231.22749  -2632507.87147  20578430.669    20578435.307
  23767188.736    -4722727.51049  -3441288.02845  23767188.418    23767196.911
  24129995.127    -2754102.26549  -1859459.88045  24129994.732    24130002.865
  23842865.637    11354837.59349   8897958.98445  23842865.607    23842872.660
  22232907.605     5941087.93249   4631352.00246  22232906.919    22232914.613
  22633202.524   -13464518.98249 -10473412.01646  22633202.000    22633209.924
  22393111.784   -12925761.55749 -10051293.06246  22393111.412    22393118.392
 03  6  9 19 21  0.0000000  0 10G23G15G21G18G 9G31G26G17G14G 3
  21036968.934    -9626282.64349  -7486193.56047  21036968.350    21036974.609
  20202841.456   -10861791.31249  -8228801.43147  20202840.744    20202846.875
  21169351.855     1861214.00849   1456046.82747  21169351.253    21169356.138
  20582991.348    -3369267.32249  -2613834.70447  20582990.872    20582995.506
  23756455.103    -4779132.89549  -3485240.19345  23756454.819    23756463.241
  24113811.152    -2839149.31849  -1925730.25345  24113810.647    24113818.803
  23863312.108    11462284.22749   8981683.55745  23863312.003    23863319.141
  22245202.260     6005696.48649   4681696.26446  22245201.577    22245209.289
  22613881.329   -13566051.76749 -10552528.33046  22613880.836    22613888.730
  22384356.803   -12971769.12249 -10087143.10146  22384356.432    22384363.455
 03  6  9 19 21 30.0000000  0 10G23G15G21G18G 9G31G26G17G14G 3
  21034911.099    -9637096.59249  -7494620.01347  21034910.525    21034916.763
  20198778.303   -10883143.41949  -8245439.44147  20198777.577    20198783.733
  21178528.685     1909438.38549   1493624.22947  21178528.090    21178532.981
  20587602.039    -3345038.09549  -2594954.80147  20587601.560    20587606.193
  23745793.189    -4835161.51749  -3528898.78045  23745792.920    23745801.226
  24097693.670    -2923846.29549  -1991727.83145  24097693.185    24097701.362
  23883803.162    11569965.26949   9065590.78845  23883803.126    23883810.243
  22257551.621     6070592.50249   4732264.52146  22257550.958    22257558.581
  22594609.881   -13667323.16849 -10631440.97446  22594609.417    22594617.318
  22375698.895   -13017266.58149 -10122595.66846  22375698.526    22375705.596
 03  6  9 19 22  0.0000000  0 10G23G15G21G18G 9G31G26G17G14G 3
  21032900.549    -9647662.09649  -7502852.87147  21032899.976    21032906.212
  20194780.412   -10904152.60949  -8261810.24647  20194779.685    20194785.837
  21187770.122     1958002.40749   1531466.29147  21187769.522    21187774.418
  20592262.983    -3320544.77549  -2575869.10847  20592262.493    20592267.143
  23735203.417    -4890810.48749  -3572261.51845  23735203.101    23735211.517
  24081643.370    -3008190.86549  -2057450.80245  24081642.906    24081650.976
  23904338.312    11677877.71049   9149678.33045  23904338.321    23904345.401
  22269955.646     6135775.75849   4783056.60546  22269954.991    22269962.615
  22575388.662   -13768330.49849 -10710147.85046  22575388.235    22575396.132
  22367138.358   -13062252.38049 -10157649.53746  22367138.013    22367145.080
 03  6  9 19 22 30.0000000  0 10G23G15G21G18G 9G31G26G17G14G 3
  21030937.091    -9657980.15049  -7510892.91247  21030936.516    21030942.754
  20190848.052   -10924817.38149  -8277912.67247  20190847.327    20190853.477
  21197076.189     2006906.04449   1569572.98347  21197075.590    21197080.506
  20596973.875    -3295788.87749  -2556578.81047  20596973.372    20596978.040
  23724686.470    -4946076.89749  -3615326.18045  23724686.202    23724694.640
  24065660.618    -3092180.40649  -2122897.12545  24065660.190    24065668.458
  23924916.941    11786018.57849   9233943.87545  23924916.964    23924924.019
  22282414.360     6201246.29749   4834072.52046  22282413.686    22282421.292
  22556218.213   -13869071.55149 -10788647.24046  22556217.746    22556225.584
  22358675.476   -13106725.02049 -10192303.54546  22358675.141    22358682.199
 03  6  9 19 23  0.0000000  0 10G23G15G21G18G 9G31G26G17G14G 3
  21029020.461    -9668052.11349  -7518741.19047  21029019.883    21029026.130
  20186981.417   -10945136.70949  -8293745.91647  20186980.674    20186986.821
  21206446.848     2056149.02349   1607944.10947  21206446.233    21206451.158
  20601734.566    -3270771.35449  -2537084.64547  20601734.086    20601738.737
  23714242.844    -5000958.00549  -3658090.59545  23714242.552    23714251.034
  24049745.934    -3175812.77449  -2188065.13145  24049745.387    24049753.728
  23945538.284    11894384.36449   9318384.67645  23945538.368    23945545.333
  22294927.497     6267003.16649   4885311.57446  22294926.813    22294934.491
  22537098.845   -13969544.07449 -10866937.37946  22537098.352    22537106.220
  22350310.446   -13150683.49549 -10226556.89946  22350310.112    22350317.164
 03  6  9 19 23 30.0000000  0 10G23G15G21G18G 9G31G26G17G14G 3
  21027150.546    -9677878.44349  -7526398.06947  21027149.967    21027156.231
  20183180.845   -10965108.79849  -8309308.59047  20183180.115    20183186.251
  21215882.215     2105732.14649   1646580.27547  21215881.611    21215886.549
  20606544.856    -3245493.18249  -2517387.37847  20606544.356    20606549.016
  23703873.246    -5055450.57849  -3700552.27645  23703873.010    23703881.299
  24033899.664    -3259085.03249  -2252952.53445  24033899.118    24033907.532
  23966201.882    12002972.48449   9402998.71645  23966201.874    23966209.001
  22307495.330     6333047.21249   4936774.39246  22307494.643    22307502.336
  22518031.116   -14069745.21549 -10945016.05046  22518030.602    22518038.444
  22342043.576   -13194125.94449 -10260408.15646  22342043.265    22342050.358
 03  6  9 19 24  0.0000000  0 10G23G15G21G18G 9G31G26G17G14G 3
  21025327.210    -9687460.03149  -7533864.23847  21025326.649    21025332.921
  20179446.656   -10984732.22249  -8324599.56947  20179445.930    20179452.048
  21225382.363     2155655.57149   1685481.60947  21225381.764    21225386.690
  20611404.560    -3219955.26149  -2497487.71047  20611404.052    20611408.725
  23693578.226    -5109551.38349  -3742708.67045  23693577.898    23693586.054
  24018122.318    -3341994.72449  -2317557.39845  24018121.751    24018130.345
  23986907.355    12111780.02949   9487783.73945  23986907.250    23986914.651
  22320117.719     6399378.02449   4988460.68346  22320117.054    22320124.741
  22499015.499   -14169672.45649 -11022881.30246  22499014.976    22499022.837
  22333875.170   -13237051.13049 -10293856.35246  22333874.840    22333881.965
 03  6  9 19 24 30.0000000  0 10G23G15G21G18G 9G31G26G17G14G 3
  21023550.210    -9696798.24349  -7541140.76147  21023549.659    21023555.904
  20175778.978   -11004005.95949  -8339618.06847  20175778.249    20175784.373
  21234947.125     2205918.80049   1724647.73347  21234946.532    21234951.489
  20616313.353    -3194159.37449  -2477387.02647  20616312.854    20616317.522
  23683358.054    -5163257.95949  -3784557.87145  23683357.743    23683365.952
  24002414.517    -3424539.56549  -2381877.98945  24002413.994    24002422.458
  24007653.851    12220803.57149   9572737.06845  24007653.747    24007661.350
  22332794.605     6465995.18149   5040370.07646  22332793.938    22332801.637
  22480052.380   -14269323.70649 -11100531.50046  22480051.854    22480059.691
  22325805.490   -13279457.75749 -10326900.47346  22325805.147    22325812.268
 03  6  9 19 25  0.0000000  0 10G23G15G21G18G 9G31G26G17G14G 3
  21021819.428    -9705893.66049  -7548228.09247  21021818.858    21021825.123
  20172178.227   -11022928.08949  -8354362.58648  20172177.512    20172183.603
  21244576.679     2256522.15749   1764078.89147  21244576.096    21244581.035
  20621271.128    -3168106.20049  -2457085.85847  20621270.611    20621275.320
  23673213.484    -5216567.39349  -3826097.62845  23673213.215    23673221.439
  23986776.642    -3506716.80849  -2445912.13745  23986776.061    23986784.542
  24028440.978    12330040.43649   9657856.61945  24028440.966    24028448.327
  22345526.018     6532899.12649   5092502.96346  22345525.394    22345533.031
  22461142.362   -14368696.11649 -11177964.41146  22461141.796    22461149.605
  22317834.808   -13321344.08249 -10359539.16546  22317834.435    22317841.537
 03  6  9 19 25 30.0000000  0 10G23G15G21G18G 9G31G26G17G14G 3
  21020134.617    -9714747.40849  -7555127.11247  21020134.044    21020140.312
  20168644.538   -11041497.73149  -8368832.44047  20168643.828    20168649.940
  21254270.944     2307465.64449   1803775.07747  21254270.355    21254275.294
  20626277.618    -3141796.95949  -2436585.15847  20626277.115    20626281.812
  23663145.142    -5269476.82649  -3867325.69145  23663144.786    23663153.008
  23971209.205    -3588524.15649  -2509658.05345  23971208.678    23971217.036
  24049268.071    12439487.31849   9743139.82245  24049268.068    24049275.574
  22358311.991     6600089.27249   5144858.85146  22358311.363    22358319.009
  22442285.766   -14467787.45449 -11255178.31246  22442285.250    22442293.006
  22309963.317   -13362709.09149 -10391771.64046  22309962.944    22309970.088
 03  6  9 19 26  0.0000000  0 10G23G15G21G18G 9G31G26G17G14G 3
  21018495.591    -9723360.48449  -7561838.59547  21018495.009    21018501.258
  20165178.223   -11059713.37549  -8383026.45148  20165177.508    20165183.631
  21264029.901     2358749.22249   1843736.27747  21264029.319    21264034.257
  20631332.617    -3115232.74549  -2415885.77747  20631332.126    20631336.826
  23653153.403    -5321983.09749  -3908239.61845  23653152.923    23653161.326
  23955712.663    -3669959.05449  -2573113.74545  23955712.076    23955720.541
  24070134.583    12549141.51449   9828584.56845  24070134.582    24070141.978
  22371152.376     6667565.56649   5197437.70546  22371151.744    22371159.398
  22423483.155   -14566595.22549 -11332171.25646  22423482.636    22423490.329
  22302191.324   -13403551.26049 -10423596.70446  22302190.935    22302198.072
 03  6  9 19 26 30.0000000  0 10G23G15G21G18G 9G31G26G17G14G 3
  21016902.228    -9731733.67149  -7568363.15147  21016901.652    21016907.891
  20161779.553   -11077573.51849  -8396943.45048  20161778.841    20161784.964
  21273853.692     2410373.34649   1883962.83047  21273853.098    21273858.056
  20636435.902    -3088414.69449  -2394988.60347  20636435.423    20636440.139
  23643238.979    -5374083.34649  -3948837.15545  23643238.576    23643246.973
  23940287.473    -3751018.96649  -2636277.24545  23940286.864    23940295.227
  24091039.937    12658999.95249   9914188.45745  24091039.900    24091047.423
  22384047.172     6735327.87449   5250239.42646  22384046.537    22384054.202
  22404734.987   -14665116.91249 -11408941.28146  22404734.496    22404742.160
  22294519.058   -13443869.41549 -10455013.44346  22294518.646    22294525.787
 03  6  9 19 27  0.0000000  0 10G23G15G21G18G 9G31G26G17G14G 3
  21015354.246    -9739868.27549  -7574701.79447  21015353.683    21015359.912
  20158448.740   -11095077.18349  -8410582.67248  20158448.007    20158454.120
  21283742.116     2462337.28949   1924454.18047  21283741.502    21283746.478
  20641587.266    -3061344.18249  -2373894.70647  20641586.777    20641591.487
  23633402.364    -5425775.05749  -3989116.36245  23633402.006    23633410.216
  23924934.029    -3831701.66349  -2699146.82845  23924933.443    23924941.671
  24111983.687    12769059.43749   9999949.02145  24111983.621    24111991.137
  22396996.324     6803375.94449   5303263.81946  22396995.693    22397003.367
  22386041.625   -14763350.47749 -11485486.78846  22386041.127    22386048.823
  22286946.666   -13483662.51949 -10486021.05046  22286946.278    22286953.396
 03  6  9 19 27 30.0000000  0 10G23G15G21G18G 9G31G26G17G14G 3
  21013851.586    -9747764.92649  -7580855.02047  21013850.984    21013857.210
  20155186.058   -11112222.67949  -8423942.80448  20155185.346    20155191.458
  21293695.277     2514641.41249   1965210.60847  21293694.662    21293699.666
  20646786.551    -3034021.94249  -2352604.65847  20646786.067    20646790.761
  23623643.972    -5477055.13449  -4029074.81445  23623643.532    23623651.930
  23909652.870    -3912004.54949  -2761720.44445  23909652.242    23909660.529
  24132965.154    12879317.16949  10085864.04145  24132965.086    24132972.773
  22409999.873     6871709.66549   5356510.80346  22409999.220    22410006.979
  22367403.627   -14861293.19349 -11561805.65946  22367403.130    22367410.796
  22279474.526   -13522928.94649 -10516618.26346  22279474.111    22279481.214
 03  6  9 19 28  0.0000000  0 10G23G15G21G18G 9G31G26G17G14G 3
  21012394.264    -9755423.29749  -7586822.57847  21012393.683    21012399.893
  20151992.054   -11129007.20849  -8437021.66048  20151991.337    20151997.461
  21303713.417     2567287.01349   2006233.11447  21303712.806    21303717.828
  20652033.762    -3006447.74049  -2331118.27547  20652033.285    20652037.953
  23613964.830    -5527919.21349  -4068709.12145  23613964.472    23613972.739
  23894444.580    -3991923.64249  -2823995.00845  23894443.961    23894452.299
  24153983.991    12989771.66849  10171932.41245  24153983.905    24153991.500
  22423058.015     6940330.68949   5409981.66046  22423057.351    22423065.177
  22348821.780   -14958941.19049 -11637894.88446  22348821.234    22348828.883
  22272103.105   -13561666.01949 -10546802.99546  22272102.704    22272109.788
 03  6  9 19 28 30.0000000  0 10G23G15G21G18G 9G31G26G17G14G 3
  21010981.118    -9762849.21749  -7592609.00347  21010980.541    21010986.764
  20148866.112   -11145434.23749  -8449821.94448  20148865.381    20148871.528
  21313795.686     2620269.51649   2047518.15547  21313795.057    21313800.061
  20657327.737    -2978627.77349  -2309440.38547  20657327.240    20657331.897
  23604364.454    -5578369.34549  -4108020.86145  23604364.109    23604372.339
  23879308.908    -4071461.48349  -2885972.50245  23879308.389    23879316.624
  24175038.723    13100414.86449  10258147.79945  24175038.699    24175046.304
  22436169.779     7009233.06449   5463671.75746  22436169.123    22436176.970
  22330295.468   -15056297.00649 -11713756.42446  22330294.968    22330302.548
  22264831.704   -13599877.53549 -10576578.19046  22264831.338    22264838.385
 03  6  9 19 29  0.0000000  0 10G23G15G21G18G 9G31G26G17G14G 3
  21009613.229    -9770037.49849  -7598210.26147  21009612.638    21009618.879
  20145809.571   -11161496.39249  -8462337.91248  20145808.857    20145814.985
  21323943.183     2673594.76849   2089070.26047  21323942.592    21323947.533
  20662669.392    -2950557.01349  -2287567.08247  20662668.922    20662673.586
  23594844.559    -5628396.70349  -4147003.19445  23594844.309    23594852.343
  23864247.563    -4150609.53549  -2947646.26245  23864246.976    23864255.154
  24196130.019    13211249.94349  10344512.70545  24196129.968    24196137.591
  22449336.162     7078422.87249   5517585.80346  22449335.529    22449343.387
  22311826.365   -15153352.17949 -11789383.72146  22311825.904    22311833.443
  22257661.733   -13637556.04649 -10605938.07346  22257661.371    22257668.391
 03  6  9 19 29 30.0000000  0 10G23G15G21G18G 9G31G26G17G14G 3
  21008289.823    -9776991.93949  -7603629.30147  21008289.244    21008295.473
  20142822.231   -11177195.04249  -8474570.62948  20142821.505    20142827.670
  21334155.353     2727259.83649   2130887.15847  21334154.752    21334159.684
  20668058.076    -2922239.38349  -2265501.40247  20668057.591    20668062.272
  23585405.004    -5678001.46649  -4185656.21245  23585404.864    23585412.816
  23849260.283    -4229368.12949  -3009016.54845  23849259.761    23849267.845
  24217256.795    13322271.31649  10431022.80245  24217256.702    24217264.399
  22462556.694     7147896.99349   5571721.39846  22462556.065    22462563.953
  22293414.464   -15250107.03349 -11864776.99246  22293413.981    22293421.500
  22250592.784   -13674703.38149 -10634884.04546  22250592.416    22250599.442
 03  6  9 19 30  0.0000000  0 10G23G15G21G18G 9G31G26G17G14G 3
  21007010.728    -9783713.57049  -7608866.93847  21007010.159    21007016.388
  20139904.295   -11192528.86049  -8486519.06448  20139903.575    20139909.732
  21344432.240     2781264.92349   2172969.00547  21344431.647    21344436.560
  20673493.572    -2893675.66949  -2243243.97447  20673493.079    20673497.788
  23576046.563    -5727180.73749  -4223977.67145  23576046.353    23576054.334
  23834347.580    -4307734.88849  -3070081.51445  23834347.095    23834355.066
  24238418.406    13433475.80049  10517675.56045  24238418.282    24238426.009
  22475831.367     7217655.83449   5626078.85546  22475830.736    22475838.659
  22275060.146   -15346559.23549 -11939934.43546  22275059.648    22275067.151
  22243625.282   -13711317.91449 -10663414.85346  22243624.939    22243631.919
 03  6  9 19 30 30.0000000  0 10G23G15G21G18G 9G31G26G17G14G 3
  21005776.025    -9790201.98249  -7613922.84147  21005775.434    21005781.680
  20137056.262   -11207495.40749  -8498181.31348  20137055.527    20137061.694
  21354774.030     2835611.10849   2215316.64047  21354773.438    21354778.348
  20678975.902    -2864865.69949  -2220794.66047  20678975.423    20678980.143
  23566769.766    -5775930.56649  -4261964.52345  23566769.545    23566777.461
  23819510.243    -4385706.13349  -3130838.29345  23819509.766    23819517.602
  24259614.593    13544862.06149  10604469.95345  24259614.558    24259622.262
  22489160.411     7287700.48749   5680659.01446  22489159.809    22489167.784
  22256764.101   -15442705.06349 -12014853.15046  22256763.594    22256771.046
  22236759.657   -13747397.38149 -10691528.73446  22236759.282    22236766.261
 03  6  9 19 31  0.0000000  0 10G23G15G21G18G 9G31G26G17G14G 3
  21004584.868    -9796461.44549  -7618800.34147  21004584.299    21004590.550
  20134277.742   -11222096.61549  -8509558.88348  20134277.010    20134283.181
  21365180.090     2890294.94349   2257927.37947  21365179.504    21365184.391
  20684504.219    -2835814.24349  -2198157.17347  20684503.726    20684508.504
  23557574.599    -5824251.38749  -4299617.07745  23557574.430    23557582.311
  23804747.930    -4463282.79149  -3191287.59845  23804747.337    23804755.092
  24280844.139    13656423.60649  10691400.94845  24280844.161    24280851.832
  22502543.241     7358027.31549   5735459.06346  22502542.623    22502550.651
  22238526.185   -15538545.66049 -12089534.01246  22238525.679    22238533.091
  22229995.332   -13782944.11949 -10719227.48946  22229994.925    22230001.957
 03  6  9 19 31 30.0000000  0 10G23G15G21G18G 9G31G26G17G14G 3
  21003437.585    -9802490.55749  -7623498.34947  21003437.013    21003443.274
  20131569.489   -11236328.61049  -8520648.75148  20131568.755    20131574.917
  21375650.891     2945318.99249   2300803.21547  21375650.275    21375655.149
  20690078.754    -2806519.80549  -2175330.35247  20690078.277    20690083.043
  23548462.048    -5872138.02249  -4336931.28645  23548461.839    23548469.775
  23790061.497    -4540459.89849  -3251425.55645  23790060.933    23790068.748
  24302106.946    13768160.00349  10778468.18745  24302106.961    24302114.493
  22515980.084     7428638.17949   5790480.42946  22515979.512    22515987.477
  22220347.281   -15634075.93549 -12163973.07346  22220346.764    22220354.157
  22223333.061   -13817954.38749 -10746508.22746  22223332.707    22223339.726
 03  6  9 19 32  0.0000000  0 10G23G15G21G18G 9G31G26G17G14G 3
  21002333.922    -9808290.32049  -7628017.63847  21002333.347    21002339.596
  20128931.748   -11250189.94549  -8531449.79348  20128931.011    20128937.175
  21386186.349     3000683.11549   2343944.06047  21386185.742    21386190.627
  20695699.307    -2776983.65949  -2152315.17847  20695698.816    20695703.597
  23539432.627    -5919587.89249  -4373905.16945  23539432.370    23539440.367
  23775451.466    -4617235.31049  -3311250.50745  23775450.928    23775459.030
  24323402.488    13880068.16549  10865669.27045  24323402.539    24323410.087
  22529470.921     7499532.58249   5845722.74046  22529470.372    22529478.267
  22202227.885   -15729293.72049 -12238168.63646  22202227.388    22202234.707
  22216773.082   -13852427.18649 -10773370.13846  22216772.718    22216779.742
 03  6  9 19 32 30.0000000  0 10G23G15G21G18G 9G31G26G17G14G 3
  21001273.762    -9813861.52649  -7632358.83247  21001273.201    21001279.463
  20126364.823   -11263679.12349  -8541960.84548  20126364.098    20126370.251
  21396786.535     3056387.25849   2387349.84347  21396785.923    21396790.810
  20701365.668    -2747206.62149  -2129112.30047  20701365.173    20701369.992
  23530486.897    -5966598.03449  -4410536.40045  23530486.593    23530494.620
  23760918.559    -4693606.42849  -3370760.42345  23760918.039    23760926.061
  24344730.123    13992145.42749  10953002.14945  24344730.124    24344737.641
  22543015.790     7570710.74349   5901186.15946  22543015.215    22543023.124
  22184168.395   -15824196.57449 -12312118.79846  22184167.890    22184175.184
  22210315.635   -13886361.36749 -10799812.35646  22210315.279    22210322.329
 03  6  9 19 33  0.0000000  0 10G23G15G21G18G 9G31G26G17G14G 3
  21000256.707    -9819206.09449  -7636523.42547  21000256.125    21000262.393
  20123868.764   -11276796.20749  -8552181.95148  20123868.046    20123874.175
  21407451.183     3112430.33849   2431019.74347  21407450.570    21407455.518
  20707077.555    -2717190.52249  -2105723.14547  20707077.089    20707081.898
  23521625.115    -6013166.68449  -4446823.60145  23521624.878    23521632.887
  23746462.809    -4769571.84649  -3429954.20445  23746462.356    23746470.285
  24366089.211    14104387.80749  11040463.68445  24366089.197    24366096.717
  22556614.388     7642171.65349   5956869.91446  22556613.821    22556621.739
  22166169.137   -15918783.02649 -12385822.40546  22166168.601    22166175.836
  22203960.716   -13919756.91149 -10825834.86246  22203960.348    22203967.391
 03  6  9 19 33 30.0000000  0 10G23G15G21G18G 9G31G26G17G14G 3
  20999282.845    -9824323.83549  -7640511.26847  20999282.269    20999288.524
  20121443.963   -11289538.57049  -8562111.06848  20121443.235    20121449.369
  21418180.467     3168813.28349   2474954.45647  21418179.872    21418184.874
  20712834.888    -2686935.55349  -2082147.85347  20712834.423    20712839.226
  23512848.030    -6059290.02349  -4482763.81945  23512847.804    23512855.846
  23732084.909    -4845128.11349  -3488829.17445  23732084.410    23732092.407
  24387479.423    14216793.65949  11128052.60545  24387479.289    24387486.963
  22570266.999     7713915.84049   6012774.38946  22570266.389    22570274.322
  22148230.706   -16013049.83549 -12459276.94846  22148230.149    22148237.341
  22197708.669   -13952611.53649 -10851435.86446  22197708.326    22197715.352
 03  6  9 19 34  0.0000000  0 10G23G15G21G18G 9G31G26G17G14G 3
  20998351.899    -9829216.07049  -7644323.39647  20998351.334    20998357.574
  20119090.683   -11301905.17849  -8571747.38848  20119089.964    20119096.088
  21428974.404     3225535.74849   2519153.74047  21428973.790    21428978.855
  20718637.410    -2656443.21649  -2058387.60047  20718636.936    20718641.739
  23504156.149    -6104966.09349  -4518355.51045  23504155.991    23504163.873
  23717785.170    -4920273.30849  -3547383.82645  23717784.699    23717792.741
  24408899.957    14329359.50149  11215766.17645  24408899.929    24408907.562
  22583973.270     7785942.56749   6068899.02446  22583972.651    22583980.646
  22130353.470   -16106994.88949 -12532480.77846  22130352.916    22130360.103
  22191559.676   -13984924.48349 -10876614.78646  22191559.363    22191566.380
 03  6  9 19 34 30.0000000  0  9G23G15G21G18G 9G31G17G14G 3
  20997463.677    -9833883.70449  -7647960.50847  20997463.099    20997469.307
  20116809.166   -11313894.74849  -8581089.91848  20116808.433    20116814.555
  21439832.933     3282597.67149   2563617.52647  21439832.333    21439837.421
  20724484.911    -2625714.47149  -2034443.13447  20724484.438    20724489.224
  23495549.836    -6150192.05549  -4553596.46845  23495549.619    23495557.653
  23703564.138    -4995005.03049  -3605616.27545  23703563.744    23703571.874
  22597733.281     7858251.56749   6125243.61046  22597732.685    22597740.673
  22112537.877   -16200616.00249 -12605432.18146  22112537.339    22112544.487
  22185514.021   -14016694.85149 -10901370.92346  22185513.688    22185520.690
 03  6  9 19 35  0.0000000  0  9G23G15G21G18G 9G31G17G14G 3
  20996618.096    -9838327.18449  -7651422.95947  20996617.544    20996623.747
  20114599.740   -11325505.32549  -8590137.12548  20114599.003    20114605.147
  21450756.059     3339999.16149   2608345.91347  21450755.451    21450760.615
  20730377.306    -2594749.81649  -2010314.84447  20730376.839    20730381.598
  23487029.787    -6194964.69349  -4588484.17645  23487029.598    23487037.660
  23689422.358    -5069320.41349  -3663524.32245  23689421.994    23689430.068
  22611547.118     7930843.21249   6181808.44046  22611546.481    22611554.499
  22094784.499   -16293910.23049 -12678128.87146  22094783.959    22094791.105
  22179571.794   -14047921.39549 -10925703.29546  22179571.462    22179578.488
 03  6  9 19 35 30.0000000  0  9G23G15G21G18G 9G31G17G14G 3
  20995814.785    -9842548.60749  -7654712.37847  20995814.240    20995820.432
  20112462.437   -11336736.82249  -8598888.94348  20112461.722    20112467.879
  21461743.660     3397739.24449   2653338.14047  21461743.064    21461748.244
  20736314.131    -2563551.76549  -1986004.69047  20736313.659    20736318.409
  23478596.435    -6239282.45749  -4623017.44845  23478596.197    23478604.137
  23675360.100    -5143218.30049  -3721107.05345  23675359.700    23675367.662
  22625414.379     8003715.93949   6238592.29646  22625413.742    22625421.814
  22077093.528   -16386876.31549 -12750569.87546  22077093.027    22077100.135
  22173733.103   -14078604.03649 -10949611.85146  22173732.764    22173739.802
 03  6  9 19 36  0.0000000  0  9G23G15G21G18G 9G31G17G14G 3
  20995053.662    -9846548.33849  -7657829.04547  20995053.117    20995059.295
  20110397.672   -11347587.33249  -8607343.89048  20110396.952    20110403.105
  21472795.767     3455818.16649   2698594.40547  21472795.153    21472800.310
  20742295.298    -2532120.45349  -1961512.76747  20742294.818    20742299.591
  23470250.195    -6283142.30749  -4657193.90245  23470249.954    23470257.824
  23661377.719    -5216695.79449  -3778362.18945  23661377.269    23661385.346
  22639335.165     8076870.18849   6295595.51646  22639334.535    22639342.699
  22059465.574   -16479511.39749 -12822752.94746  22059465.070    22059472.169
  22167998.164   -14108741.24549 -10973095.39146  22167997.824    22168004.848
 03  6  9 19 36 30.0000000  0  9G23G15G21G18G 9G31G17G14G 3
  20994334.510    -9850327.44949  -7660773.80347  20994333.955    20994340.164
  20108405.657   -11358055.52949  -8615500.93248  20108404.931    20108411.089
  21483912.336     3514235.89349   2744114.65947  21483911.717    21483916.861
  20748320.715    -2500456.76949  -1936839.77747  20748320.247    20748325.005
  23461991.624    -6326541.62149  -4691011.49345  23461991.331    23461999.184
  23647475.772    -5289750.53249  -3835287.89745  23647475.264    23647483.467
  22653309.499     8150305.63549   6352817.84346  22653308.880    22653317.172
  22041900.976   -16571813.53449 -12894676.58446  22041900.450    22041907.558
  22162367.213   -14138332.16349 -10996153.25246  22162366.843    22162373.870
 03  6  9 19 37  0.0000000  0  9G23G15G21G18G 9G31G17G14G 3
  20993656.911    -9853888.33349  -7663548.51447  20993656.354    20993662.542
  20106486.303   -11368141.70549  -8623360.29848  20106485.590    20106491.753
  21495093.129     3572991.01149   2789897.82447  21495092.497    21495097.669
  20754389.743    -2468563.74849  -1911988.08247  20754389.265    20754394.057
  23453820.856    -6369479.29649  -4724469.36945  23453820.668    23453828.369
  23633654.419    -5362381.80549  -3891883.65645  23633653.792    23633662.084
  22667336.962     8224020.16549   6410257.64946  22667336.300    22667344.666
  22024399.967   -16663781.47549 -12966339.81246  22024399.436    22024406.520
  22156840.070   -14167377.39249 -11018785.89846  22156839.709    22156846.767
 03  6  9 19 37 30.0000000  0  9G23G15G21G18G 9G31G17G14G 3
  20993021.251    -9857228.70049  -7666151.39547  20993020.684    20993026.870
  20104640.517   -11377841.50049  -8630918.58948  20104639.807    20104645.931
  21506338.609     3632086.22649   2835945.99847  21506337.972    21506343.186
  20760502.827    -2436439.18149  -1886955.96247  20760502.353    20760507.171
  23445738.979    -6411949.69949  -4757563.13745  23445738.763    23445746.415
  23619914.685    -5434584.21749  -3948145.22445  23619914.024    23619922.402
  22681418.018     8298016.54249   6467917.07646  22681417.402    22681425.873
  22006963.525   -16755409.88849 -13037738.47246  22006962.997    22006970.068
  22151417.498   -14195872.96349 -11040990.24546  22151417.173    22151424.221
 03  6  9 19 38  0.0000000  0  9G23G15G21G18G 9G31G17G14G 3
  20992427.063    -9860351.25049  -7668584.55247  20992426.496    20992432.669
  20102868.105   -11387155.55749  -8638176.30248  20102867.395    20102873.552
  21517648.352     3691519.46449   2882257.56347  21517647.742    21517652.984
  20766659.457    -2404085.88949  -1861745.61147  20766658.971    20766663.851
  23437746.185    -6453952.03749  -4790292.17845  23437745.996    23437753.444
  23606256.668    -5506357.38149  -4004072.32045  23606256.069    23606264.373
  22695552.295     8372292.57349   6525794.40246  22695551.707    22695560.245
  21989591.791   -16846698.51149 -13108872.35646  21989591.283    21989598.336
  22146099.410   -14223819.80649 -11062767.01446  22146099.075    22146106.127
 03  6  9 19 38 30.0000000  0  9G23G15G21G18G 9G31G17G14G 3
  20991874.109    -9863257.02849  -7670848.79847  20991873.538    20991879.726
  20101169.297   -11396082.81749  -8645132.62148  20101168.591    20101174.737
  21529022.329     3751290.01149   2928831.96347  21529021.718    21529026.956
  20772859.420    -2371504.86649  -1836357.81047  20772858.949    20772863.816
  23429842.954    -6495483.85849  -4822654.58945  23429842.697    23429850.167
  23592680.724    -5577699.06149  -4059663.18345  23592680.118    23592688.468
  22709739.826     8446848.16649   6583889.56845  22709739.214    22709747.759
  21972285.079   -16937645.37449 -13179739.94046  21972284.584    21972291.629
  22140885.795   -14251217.33349 -11084115.74346  22140885.454    22140892.533
 03  6  9 19 39  0.0000000  0  9G23G15G21G18G 9G31G17G14G 3
  20991362.177    -9865947.22349  -7672945.04647  20991361.623    20991367.791
  20099544.399   -11404621.75549  -8651786.34048  20099543.705    20099549.860
  21540460.577     3811398.34249   2975669.57947  21540459.970    21540465.270
  20779102.454    -2338697.46149  -1810793.59847  20779101.997    20779106.864
  23422029.575    -6536543.05849  -4854648.71945  23422029.296    23422036.798
  23579187.289    -5648607.16749  -4114916.20145  23579186.639    23579195.090
  22723980.404     8521682.39149   6642201.86045  22723979.806    22723988.233
  21955043.860   -17028248.13349 -13250339.39747  21955043.350    21955050.379
  22135776.940   -14278064.62949 -11105035.71246  22135776.571    22135783.687
 03  6  9 19 39 30.0000000  0  9G23G15G21G18G 9G31G17G14G 3
  20990891.154    -9868422.41949  -7674873.76847  20990890.589    20990896.776
  20097993.753   -11412770.65049  -8658136.13248  20097993.029    20097999.182
  21551963.097     3871844.31649   3022770.29547  21551962.517    21551967.825
  20785388.503    -2305664.14249  -1785053.35647  20785388.035    20785392.922
  23414306.705    -6577126.66649  -4886272.25845  23414306.433    23414313.890
  23565776.900    -5719079.06749  -4169829.31745  23565776.242    23565784.674
  22738274.030     8596795.51949   6700731.45645  22738273.441    22738281.869
  21937868.647   -17118504.19749 -13320668.69747  21937868.160    21937875.145
  22130772.993   -14304360.53849 -11125526.03546  22130772.645    22130779.786
 03  6  9 19 40  0.0000000  0  9G23G15G21G18G 9G31G17G14G 3
  20990460.893    -9870683.42149  -7676635.58847  20990460.337    20990466.525
  20096517.479   -11420528.53049  -8664181.23848  20096516.771    20096522.909
  21563529.684     3932626.89349   3070133.30447  21563529.110    21563534.404
  20791717.273    -2272406.21049  -1759138.09547  20791716.804    20791721.670
  23406674.913    -6617231.94149  -4917523.07845  23406674.646    23406682.118
  23552450.004    -5789112.46949  -4224400.75645  23552449.358    23552457.715
  22752620.712     8672187.26349   6759478.17345  22752620.049    22752628.547
  21920759.776   -17208411.33949 -13390726.10947  21920759.294    21920766.259
  22125874.041   -14330104.54549 -11145586.31446  22125873.716    22125880.855
 03  6  9 19 40 30.0000000  0  9G23G15G21G18G 9G31G17G14G 3
  20990071.204    -9872731.41349  -7678231.42547  20990070.636    20990076.808
  20095115.781   -11427894.55949  -8669921.00748  20095115.061    20095121.229
  21575160.443     3993746.67849   3117759.05747  21575159.848    21575165.144
  20798088.652    -2238924.64349  -1733048.57447  20798088.173    20798092.989
  23399134.506    -6656856.75949  -4948399.49945  23399134.237    23399141.766
  23539206.827    -5858705.54849  -4278629.09445  23539206.157    23539214.578
  22767020.305     8747856.53949   6818441.16545  22767019.580    22767028.043
  21903717.749   -17297967.71149 -13460510.20447  21903717.252    21903724.186
  22121080.189   -14355296.07349 -11165216.08446  22121079.875    22121087.079
 03  6  9 19 41  0.0000000  0  9G23G15G21G18G 9G31G17G14G 3
  20989721.850    -9874567.32049  -7679662.00147  20989721.268    20989727.463
  20093788.945   -11434867.09049  -8675354.15148  20093788.230    20093794.421
  21586855.229     4055203.18949   3165647.20647  21586854.641    21586859.960
  20804502.409    -2205220.31149  -1706785.46547  20804501.943    20804506.730
  23391686.010    -6695998.65549  -4978899.63545  23391685.733    23391693.324
  23526047.899    -5927855.82049  -4332512.37745  23526047.316    23526055.594
  22781472.699     8823803.68549   6877620.66345  22781471.945    22781480.384
  21886742.879   -17387170.74849 -13530018.97047  21886742.384    21886749.304
  22116391.766   -14379934.11449 -11184414.56146  22116391.441    22116398.648
 03  6  9 19 41 30.0000000  0  9G23G15G21G18G 9G31G17G14G 3
  20989412.475    -9876192.96049  -7680928.73247  20989411.922    20989418.105
  20092537.034   -11441445.99049  -8680480.57048  20092536.316    20092542.515
  21598613.959     4116995.46849   3213796.98147  21598613.371    21598618.691
  20810958.172    -2171295.32849  -1680350.42647  20810957.694    20810962.457
  23384329.738    -6734656.06149  -5009022.24145  23384329.495    23384337.115
  23512973.534    -5996562.05749  -4386049.66445  23512972.977    23512981.223
  22795977.649     8900027.38849   6937015.67045  22795976.934    22795985.348
  21869835.497   -17476019.28849 -13599251.50747  21869835.008    21869841.901
  22111808.564   -14404018.90049 -11203181.94146  22111808.234    22111815.431
 03  6  9 19 42  0.0000000  0  9G23G15G21G18G 9G31G17G14G 3
  20989143.182    -9877608.16249  -7682031.48547  20989142.619    20989148.820
  20091360.464   -11447628.85949  -8685298.39448  20091359.731    20091365.931
  21610436.742     4179124.39849   3262209.08747  21610436.146    21610441.476
  20817455.848    -2137149.72649  -1653743.47447  20817455.385    20817460.145
  23377066.308    -6772825.39549  -5038764.54045  23377066.074    23377073.654
  23499984.187    -6064821.20449  -4439238.55745  23499983.610    23499991.874
  22810535.314     8976527.60049   6996626.12345  22810534.565    22810542.933
  21852996.171   -17564510.18449 -13668205.35647  21852995.696    21853002.543
  22107330.992   -14427548.88949 -11221517.00046  22107330.663    22107337.800
 03  6  9 19 42 30.0000000  0  9G23G15G21G18G 9G31G17G14G 3
  20988913.619    -9878814.42449  -7682971.43447  20988913.068    20988919.275
  20090259.412   -11453414.90349  -8689807.00948  20090258.683    20090264.907
  21622323.353     4241588.64349   3310882.46047  21622322.768    21622328.092
  20823995.268    -2102784.94549  -1626965.73547  20823994.808    20823999.550
  23369896.090    -6810504.85949  -5068125.11245  23369895.828    23369903.478
  23487080.341    -6132631.35849  -4492077.59545  23487079.813    23487087.974
  22825145.338     9053303.59349   7056451.47745  22825144.691    22825152.975
  21836225.202   -17652641.69049 -13736879.16747  21836224.726    21836231.550
  22102959.000   -14450523.93849 -11239419.64746  22102958.690    22102965.807
 03  6  9 19 43  0.0000000  0  9G23G15G21G18G 9G31G17G14G 3
  20988723.778    -9879812.11949  -7683748.85347  20988723.209    20988729.414
  20089234.223   -11458802.30249  -8694004.98148  20089233.503    20089239.723
  21634273.853     4304388.60749   3359817.44547  21634273.274    21634278.585
  20830576.310    -2068201.29749  -1600017.45247  20830575.842    20830580.620
  23362819.654    -6847691.76649  -5097101.88145  23362819.377    23362827.046
  23474262.452    -6199990.04049  -4544564.83945  23474261.896    23474269.905
  22839807.885     9130355.49649   7116491.83745  22839807.220    22839815.567
  21819523.179   -17740411.12049 -13805270.84147  21819522.709    21819529.503
  22098692.904   -14472942.69849 -11256888.81246  22098692.573    22098699.660
 03  6  9 19 43 30.0000000  0  9G23G15G21G18G 9G31G17G14G 3
  20988573.606    -9880601.30849  -7684363.80047  20988573.033    20988579.259
  20088285.268   -11463789.16649  -8697890.85148  20088284.540    20088290.761
  21646288.391     4367525.22449   3409014.76047  21646287.797    21646293.124
  20837198.999    -2033398.89649  -1572898.70247  20837198.538    20837203.298
  23355837.515    -6884382.78849  -5125692.25645  23355837.330    23355844.913
  23461530.976    -6266894.12649  -4596697.85645  23461530.460    23461538.441
  22854522.970     9207683.73249   7176747.50745  22854522.383    22854530.742
  21802890.624   -17827815.39149 -13873377.97447  21802890.153    21802896.925
  22094532.883   -14494803.74749 -11273923.40246  22094532.543    22094539.663
 03  6  9 19 44  0.0000000  0  9G23G15G21G18G 9G31G17G14G 3
  20988462.408    -9881185.51249  -7684819.02347  20988461.860    20988468.060
  20087412.254   -11468376.81249  -8701465.64348  20087411.534    20087417.753
  21658366.397     4430995.13449   3458471.76847  21658365.785    21658371.115
  20843862.578    -1998381.52749  -1545612.45047  20843862.114    20843866.885
  23348949.663    -6920578.32049  -5153896.53145  23348949.489    23348957.113
  23448885.891    -6333344.32449  -4648477.18945  23448885.354    23448893.358
  22869290.179     9285285.49249   7237216.32345  22869289.600    22869297.963
  21786327.473   -17914855.10749 -13941201.03647  21786327.000    21786333.757
  22090478.559   -14516109.18149 -11290525.04346  22090478.260    22090485.383
 03  6  9 19 44 30.0000000  0  9G23G15G21G18G 9G31G17G14G 3
  20988390.422    -9881563.81349  -7685113.80247  20988389.850    20988396.050
  20086615.723   -11472562.57149  -8704727.27348  20086614.996    20086621.222
  21670508.078     4494799.95849   3508189.76147  21670507.489    21670512.837
  20850567.220    -1963148.43649  -1518158.10547  20850566.743    20850571.516
  23342156.970    -6956274.21049  -5181711.46345  23342156.771    23342164.404
  23436328.011    -6399336.61449  -4699899.71945  23436327.518    23436335.408
  22884109.637     9363161.84949   7297899.08845  22884108.971    22884117.358
  21769834.400   -18001526.42249 -14008737.03647  21769833.898    21769840.636
  22086530.458   -14536856.68749 -11306691.93846  22086530.133    22086537.262
 03  6  9 19 45  0.0000000  0  9G23G15G21G18G 9G31G17G14G 3
  20988357.373    -9881737.46849  -7685249.11547  20988356.833    20988363.011
  20085895.877   -11476345.42049  -8707674.95248  20085895.154    20085901.361
  21682713.345     4558938.86149   3558168.07147  21682712.720    21682718.087
  20857312.654    -1927700.94349  -1490536.69247  20857312.173    20857316.957
  23335459.690    -6991468.72249  -5209135.72445  23335459.467    23335467.011
  23423857.563    -6464869.33649  -4750964.13645  23423857.061    23423864.942
  22898981.144     9441311.68749   7358794.95545  22898980.485    22898988.847
  21753411.791   -18087827.67549 -14075984.67647  21753411.267    21753417.984
  22082688.599   -14557045.98049 -11322423.86446  22082688.283    22082695.377
 03  6  9 19 45 30.0000000  0  9G23G15G21G18G 9G31G17G14G 3
  20988363.144    -9881707.36249  -7685225.65447  20988362.569    20988368.761
  20085252.945   -11479724.16949  -8710307.74948  20085252.219    20085258.413
  21694982.217     4623411.95749   3608406.79547  21694981.626    21694986.963
  20864098.698    -1892040.05149  -1462748.99847  20864098.215    20864103.027
  23328858.240    -7026159.47449  -5236167.44445  23328858.008    23328865.510
  23411474.926    -6529940.37449  -4801668.81945  23411474.404    23411482.336
  22913904.629     9519734.58849   7419903.60545  22913904.034    22913912.281
  21737059.991   -18173756.48949 -14142942.11247  21737059.467    21737066.171
  22078953.028   -14576676.68149 -11337720.52646  22078952.689    22078959.766
 03  6  9 19 46  0.0000000  0  9G23G15G21G18G 9G31G17G14G 3
  20988407.481    -9881474.37849  -7685044.10747  20988406.928    20988413.091
  20084687.113   -11482697.55349  -8712624.67548  20084686.381    20084692.594
  21707314.586     4688218.74749   3658905.53447  21707314.009    21707319.316
  20870925.222    -1856166.53649  -1434795.62047  20870924.729    20870929.551
  23322353.137    -7060344.11649  -5262804.80145  23322352.921    23322360.317
  23399180.509    -6594547.59149  -4852012.06845  23399179.984    23399187.930
  22928880.077     9598430.33349   7481224.86645  22928879.476    22928887.674
  21720779.497   -18259310.65149 -14209607.60747  21720778.978    21720785.672
  22075323.887   -14595748.01949 -11352581.31846  22075323.532    22075330.626
 03  6  9 19 46 30.0000000  0  9G23G15G21G18G 9G31G17G14G 3
  20988490.269    -9881039.30149  -7684705.08647  20988489.731    20988495.868
  20084198.705   -11485264.18849  -8714624.65448  20084197.979    20084204.176
  21719710.461     4753359.04049   3709664.14847  21719709.867    21719715.130
  20877792.020    -1820081.30049  -1406677.26947  20877791.526    20877796.364
  23315944.808    -7094020.24949  -5289045.91545  23315944.558    23315951.938
  23386974.806    -6658688.73149  -4901992.15645  23386974.295    23386982.198
  22943907.273     9677398.54549   7542758.43445  22943906.644    22943914.892
  21704570.707   -18344488.08749 -14275979.54847  21704570.189    21704576.898
  22071801.277   -14614259.55449 -11367005.90146  22071800.910    22071808.037
 03  6  9 19 47  0.0000000  0  9G23G15G21G18G 9G31G17G14G 3
  20988611.288    -9880403.44449  -7684209.61547  20988610.747    20988616.870
  20083787.840   -11487423.28049  -8716307.07048  20083787.114    20083793.307
  21732169.598     4818831.84149   3760681.85947  21732168.993    21732174.288
  20884698.777    -1783786.01049  -1378395.24247  20884698.294    20884703.149
  23309633.586    -7127186.08649  -5314889.40145  23309633.327    23309640.663
  23374858.121    -6722362.25049  -4951607.85945  23374857.623    23374865.468
  22958986.219     9756638.53749   7604503.75945  22958985.565    22958993.912
  21688433.871   -18429287.09249 -14342056.61147  21688433.360    21688440.065
  22068385.184   -14632211.41649 -11380994.38146  22068384.815    22068391.921
 03  6  9 19 47 30.0000000  0  9G23G15G21G18G 9G31G17G14G 3
  20988770.429    -9879567.21349  -7683558.00047  20988769.887    20988776.011
  20083454.810   -11489173.40849  -8717670.81148  20083454.094    20083460.273
  21744691.921     4884636.94449   3811958.51247  21744691.333    21744696.608
  20891645.516    -1747280.70249  -1349949.56247  20891645.035    20891649.913
  23303419.886    -7159839.03149  -5340333.23645  23303419.638    23303426.916
  23362830.910    -6785565.56349  -5000857.15445  23362830.369    23362838.251
  22974116.847     9836150.02349   7666460.65145  22974116.180    22974124.556
  21672369.527   -18513705.36849 -14407837.00647  21672369.021    21672375.711
  22065075.748   -14649602.66949 -11394546.02146  22065075.386    22065082.485
 03  6  9 19 48  0.0000000  0  9G23G15G21G18G 9G31G17G14G 3
  20988967.615    -9878531.15049  -7682750.67547  20988967.060    20988973.158
  20083199.888   -11490513.04549  -8718714.69048  20083199.161    20083205.361
  21757277.610     4950775.00949   3863494.59947  21757277.040    21757282.320
  20898632.053    -1710566.20449  -1321340.87747  20898631.558    20898636.465
  23297304.352    -7191976.42649  -5365375.34745  23297304.122    23297311.357
  23350893.552    -6848296.50849  -5049738.40145  23350893.063    23350900.874
  22989299.022     9915932.55649   7728628.72145  22989298.350    22989306.849
  21656378.069   -18597740.47249 -14473318.82347  21656377.602    21656384.259
  22061873.119   -14666432.48649 -11407660.18447  22061872.773    22061879.873
 03  6  9 19 48 30.0000000  0  9G23G15G21G18G 9G31G17G14G 3
  20989202.363    -9877297.46549  -7681789.36147  20989201.798    20989207.934
  20083023.039   -11491442.38049  -8719438.85448  20083022.323    20083028.508
  21769926.348     5017244.15249   3915288.66847  21769925.754    21769931.053
  20905657.985    -1673644.72249  -1292570.91547  20905657.504    20905662.397
  23291287.003    -7223597.51349  -5390015.13545  23291286.728    23291293.956
  23339046.234    -6910554.28849  -5098250.93845  23339045.745    23339053.638
  23004532.441     9995984.21449   7791006.51045  23004531.764    23004540.292
  21640459.754   -18681391.51249 -14538501.37747  21640459.242    21640465.904
  22058777.235   -14682701.72049 -11420337.53047  22058776.877    22058783.935
 03  6  9 19 49  0.0000000  0  9G23G15G21G18G 9G31G17G14G 3
  20989474.708    -9875866.22549  -7680674.10747  20989474.139    20989480.290
  20082924.633   -11491959.52549  -8719841.82848  20082923.911    20082930.118
  21782638.112     5084044.81149   3967341.06347  21782637.534    21782642.876
  20912723.304    -1636516.50049  -1263639.85047  20912722.833    20912727.685
  23285368.453    -7254699.27749  -5414250.24945  23285368.255    23285375.511
  23327289.448    -6972336.12249  -5146392.59445  23327288.904    23327296.900
  23019817.226    10076305.89449   7853594.72645  23019816.612    23019825.118
  21624615.053   -18764655.69249 -14603382.47747  21624614.541    21624621.204
  22055788.221   -14698409.26749 -11432577.19447  22055787.866    22055794.927
 03  6  9 19 49 30.0000000  0  9G23G15G21G18G 9G31G17G14G 3
  20989784.269    -9874239.32849  -7679406.39647  20989783.705    20989789.861
  20082904.643   -11492064.38049  -8719923.53748  20082903.935    20082910.157
  21795412.631     5151175.19049   4019650.38246  21795412.090    21795417.416
  20919827.588    -1599183.36149  -1234549.10947  20919827.115    20919831.940
  23279548.892    -7285280.92349  -5438080.09545  23279548.734    23279556.032
  23315623.438    -7033641.11749  -5194162.70045  23315622.931    23315631.003
  23035153.022    10156895.57449   7916391.74845  23035152.416    23035160.983
  21608844.159   -18847531.97749 -14667961.32247  21608843.649    21608850.276
  22052905.991   -14713555.74449 -11444379.66847  22052905.641    22052912.651
 03  6  9 19 50  0.0000000  0  9G23G15G21G18G 9G31G17G14G 3
  20990131.331    -9872415.50549  -7677985.23447  20990130.765    20990136.933
  20082963.810   -11491753.58949  -8719681.36748  20082963.084    20082969.296
  21808250.248     5218637.36949   4072218.26246  21808249.673    21808255.137
  20926971.114    -1561644.05249  -1205297.71747  20926970.630    20926975.425
  23273829.081    -7315338.05649  -5461501.21145  23273828.964    23273836.289
  23304049.012    -7094465.05049  -5241557.95445  23304048.533    23304056.665
  23050540.120    10237754.85149   7979398.84945  23050539.514    23050548.122
  21593147.909   -18930016.22349 -14732234.68747  21593147.405    21593153.980
  22050131.007   -14728138.63449 -11455742.98147  22050130.652    22050137.687
 03  6  9 19 50 30.0000000  0  9G23G15G21G18G 9G31G17G14G 3
  20990515.419    -9870397.15249  -7676412.49247  20990514.839    20990521.017
  20083101.972   -11491027.57049  -8719115.64848  20083101.238    20083107.460
  21821150.634     5286429.30649   4125043.07646  21821150.062    21821155.561
  20934153.421    -1523900.88249  -1175887.47847  20934152.957    20934157.731
  23268209.310    -7344870.00349  -5484513.10045  23268209.154    23268216.503
  23292566.278    -7154807.50949  -5288578.02845  23292565.822    23292573.862
  23065978.192    10318881.73049   8042614.46645  23065977.516    23065986.123
  21577526.281   -19012107.94349 -14796202.18447  21577525.820    21577532.351
  22047462.912   -14742159.39349 -11466668.27147  22047462.569    22047469.643
 03  6  9 19 51  0.0000000  0  9G23G15G21G18G 9G31G17G14G 3
  20990936.313    -9868185.28949  -7674688.96547  20990935.748    20990941.912
  20083319.347   -11489885.38449  -8718225.63748  20083318.628    20083324.839
  21834113.709     5354550.41149   4178124.38146  21834113.158    21834118.624
  20941374.284    -1485954.97149  -1146319.25447  20941373.829    20941378.597
  23262689.781    -7373875.04949  -5507114.39945  23262689.605    23262696.997
  23281175.356    -7214666.78049  -5335221.58945  23281174.868    23281182.953
  23081467.041    10400275.51849   8106038.06745  23081466.343    23081475.009
  21561979.717   -19093805.38549 -14859862.45647  21561979.263    21561985.769
  22044901.898   -14755617.61049 -11477155.21547  22044901.552    22044908.653
 03  6  9 19 51 30.0000000  0  9G23G15G21G18G 9G31G17G14G 3
  20991393.963    -9865780.27949  -7672814.93547  20991393.391    20991399.563
  20083616.197   -11488325.31349  -8717010.00348  20083615.482    20083621.700
  21847139.481     5423000.95749   4231462.41046  21847138.920    21847144.384
  20948633.593    -1447807.13549  -1116593.68747  20948633.133    20948637.889
  23257271.043    -7402350.65049  -5529303.16045  23257270.687    23257278.288
  23269876.906    -7274040.41849  -5381486.74245  23269876.460    23269884.490
  23097006.588    10481936.00249   8169669.47845  23097005.915    23097014.667
  21546508.692   -19175105.92049 -14923213.45147  21546508.233    21546514.713
  22042448.080   -14768512.76049 -11487203.40447  22042447.721    22042454.799
 03  6  9 19 52  0.0000000  0  9G23G15G21G18G 9G31G17G14G 3
  20991888.156    -9863183.28749  -7670791.30947  20991887.599    20991893.768
  20083992.723   -11486346.67449  -8715468.21348  20083992.002    20083998.206
  21860227.723     5491780.04149   4285056.44046  21860227.190    21860232.664
  20955931.117    -1409458.45949  -1086711.61647  20955930.641    20955935.432
  23251953.380    -7430295.00649  -5551077.96645  23251953.098    23251960.679
  23258671.220    -7332926.87849  -5427372.25945  23258670.747    23258678.774
  23112596.860    10563862.71649   8233508.34845  23112596.152    23112604.934
  21531113.484   -19256007.97549 -14986253.94747  21531113.041    21531119.498
  22040101.453   -14780844.80849 -11496812.81647  22040101.066    22040108.143
 03  6  9 19 52 30.0000000  0  9G23G15G21G18G 9G31G17G14G 3
  20992418.661    -9860395.48349  -7668619.00247  20992418.091    20992424.271
  20084449.009   -11483948.91849  -8713599.84148  20084448.306    20084454.493
  21873378.412     5560886.96849   4338905.91546  21873377.866    21873383.322
  20963266.603    -1370910.08749  -1056673.94447  20963266.143    20963270.947
  23246737.123    -7457706.67049  -5572437.68345  23246736.859    23246744.455
  23247558.540    -7391324.51049  -5472876.87845  23247558.070    23247566.006
  23128237.390    10646054.22749   8297553.55745  23128236.685    23128245.577
  21515794.477   -19336509.90549 -15048982.65347  21515794.026    21515800.443
  22037861.782   -14792614.14349 -11505983.74947  22037861.406    22037868.505
 03  6  9 19 53  0.0000000  0  9G23G15G21G18G 9G31G17G14G 3
  20992985.376    -9857417.25749  -7666298.30947  20992984.809    20992990.987
  20084985.344   -11481130.47849  -8711403.65448  20084984.624    20084990.826
  21886591.469     5630321.63449   4393010.79646  21886590.888    21886596.349
  20970640.086    -1332162.40549  -1026480.96547  20970639.618    20970644.411
  23241622.670    -7484583.09749  -5593380.32045  23241622.400    23241629.995
  23236539.268    -7449231.07549  -5517998.85045  23236538.819    23236546.718
  23143928.307    10728510.23749   8361804.86445  23143927.672    23143936.664
  21500551.977   -19416609.44449 -15111397.80947  21500551.508    21500557.915
  22035729.365   -14803819.96349 -11514715.57647  22035729.012    22035736.151
 03  6  9 19 53 30.0000000  0  9G23G15G21G18G 9G31G17G14G 3
  20993588.269    -9854249.13649  -7663829.65147  20993587.712    20993593.875
  20085602.028   -11477889.92749  -8708878.56348  20085601.298    20085607.511
  21899866.776     5700083.55749   4447370.67346  21899866.188    21899871.680
  20978051.280    -1293216.02149   -996133.15247  20978050.808    20978055.656
  23236610.596    -7510921.99449  -5613904.11245  23236610.329    23236617.814
  23225613.905    -7506644.48049  -5562736.54645  23225613.432    23225621.311
  23159669.569    10811230.50049   8426262.08845  23159668.915    23159677.952
  21485386.507   -19496304.33549 -15173497.65847  21485386.037    21485392.417
  22033704.270   -14814461.87849 -11523008.00347  22033703.914    22033711.065
 03  6  9 19 54  0.0000000  0  9G23G15G21G18G 9G31G17G14G 3
  20994226.963    -9850892.77649  -7661214.30847  20994226.409    20994232.560
  20086299.050   -11474226.98649  -8706024.33548  20086298.345    20086304.549
  21913204.247     5770172.12149   4501985.07046  21913203.665    21913209.172
  20985500.045    -1254072.53249   -965631.75147  20985499.581    20985504.435
  23231700.996    -7536722.23949  -5634008.17945  23231700.728    23231708.230
  23214782.478    -7563563.54849  -5607089.03545  23214781.991    23214789.890
  23175460.961    10894213.99349   8490924.43345  23175460.263    23175469.334
  21470298.221   -19575593.49749 -15235281.35447  21470297.752    21470304.118
  22031786.406   -14824540.38949 -11530861.41247  22031786.042    22031793.218
 03  6  9 19 54 30.0000000  0  9G23G15G21G18G 9G31G17G14G 3
  20994901.316    -9847349.06949  -7658452.98147  20994900.753    20994906.883
  20087076.702   -11470140.43849  -8702840.01648  20087075.996    20087082.215
  21926603.650     5840586.30849   4556853.20546  21926603.058    21926608.599
  20992986.147    -1214732.83949   -934977.45947  20992985.668    20992990.539
  23226894.239    -7561981.87749  -5653691.00245  23226893.916    23226901.458
  23204045.586    -7619986.43949  -5651054.90045  23204045.074    23204052.969
  23191302.202    10977459.75449   8555791.12745  23191301.596    23191310.574
  21455287.552   -19654474.85449 -15296747.28047  21455287.074    21455293.445
  22029975.826   -14834055.38049 -11538275.72247  22029975.455    22029982.588
 03  6  9 19 55  0.0000000  0  9G23G15G21G18G 9G31G17G14G 3
  20995611.254    -9843618.48949  -7655546.04147  20995610.691    20995616.803
  20087935.184   -11465629.27549  -8699324.83648  20087934.482    20087940.695
  21940065.050     5911326.03249   4611974.99446  21940064.469    21940070.036
  21000509.439    -1175197.70749   -904170.87947  21000508.960    21000513.875
  23222190.744    -7586698.86249  -5672950.97045  23222190.511    23222197.906
  23193403.394    -7675911.17549  -5694632.58745  23193402.931    23193410.842
  23207193.365    11060967.47449   8620861.93145  23207192.714    23207201.647
  21440354.855   -19732946.40849 -15357893.88247  21440354.372    21440360.721
  22028272.493   -14843006.64649 -11545250.76147  22028272.154    22028279.238
 03  6  9 19 55 30.0000000  0  9G23G15G21G18G 9G31G17G14G 3
  20996356.596    -9839701.71949  -7652494.01647  20996356.025    20996362.142
  20088874.684   -11460692.28449  -8695477.83948  20088873.972    20088880.155
  21953588.295     5982390.82149   4667350.08746  21953587.708    21953593.299
  21008069.833    -1135467.59349   -873212.35947  21008069.366    21008074.297
  23217590.908    -7610871.22549  -5691786.55745  23217590.637    23217598.028
  23182856.352    -7731335.85449  -5737820.62645  23182855.963    23182863.883
  23223134.255    11144736.83049   8686136.62845  23223133.699    23223142.491
  21425500.584   -19811005.93449 -15418719.41947  21425500.085    21425506.425
  22026676.426   -14851393.90949 -11551786.32447  22026676.090    22026683.229
 03  6  9 19 56  0.0000000  0  9G23G15G21G18G 9G31G17G14G 3
  20997137.162    -9835599.81749  -7649297.73347  20997136.595    20997142.719
  20089895.379   -11455328.51849  -8691298.29448  20089894.675    20089900.846
  21967173.274     6053780.04149   4722977.97346  21967172.703    21967178.266
  21015667.148    -1095543.68449   -842102.83547  21015666.657    21015671.604
  23213095.090    -7634497.12049  -5710196.31545  23213094.799    23213102.198
  23172404.882    -7786258.93049  -5780617.80145  23172404.438    23172412.301
  23239124.662    11228766.63449   8751614.24945  23239124.139    23239132.896
  21410725.012   -19888651.80749 -15479222.63547  21410724.514    21410730.849
  22025187.684   -14859217.30049 -11557882.50347  22025187.350    22025194.523
 03  6  9 19 56 30.0000000  0  9G23G15G21G18G 9G31G17G14G 3
  20997952.777    -9831313.58949  -7645957.81747  20997952.220    20997958.369
  20090997.496   -11449537.07149  -8686785.48848  20090996.792    20091002.938
  21980819.887     6125493.15849   4778858.25246  21980819.325    21980824.890
  21023301.140    -1055427.01249   -810843.10847  21023300.662    21023305.579
  23208703.536    -7657574.87549  -5728178.97945  23208703.299    23208710.605
  23162049.142    -7840678.59349  -5823022.70545  23162048.707    23162056.589
  23255164.454    11313056.10349   8817294.21045  23255163.906    23255172.777
  21396028.494   -19965882.24249 -15539402.12847  21396028.008    21396034.324
  22023806.246   -14866476.84149 -11563539.31847  22023805.916    22023813.098
 03  6  9 19 57  0.0000000  0  9G23G15G21G18G 9G31G17G14G 3
  20998803.290    -9826844.15449  -7642475.14147  20998802.731    20998808.896
  20092181.095   -11443317.34549  -8681938.96248  20092180.383    20092186.540
  21994528.023     6197529.43349   4834990.34946  21994527.435    21994533.012
  21030971.647    -1015118.40449   -779433.81947  21030971.162    21030976.059
  23204416.566    -7680103.05249  -5745733.37645  23204416.277    23204423.527
  23151789.529    -7894593.35049  -5865034.20045  23151789.040    23151796.880
  23271253.667    11397604.68149   8883176.06945  23271253.047    23271262.015
  21381411.298   -20042695.85849 -15599256.83247  21381410.807    21381417.108
  22022532.071   -14873172.74149 -11568756.93347  22022531.758    22022538.901
 03  6  9 19 57 30.0000000  0  9G23G15G21G18G 9G31G17G14G 3
  20999688.556    -9822192.03249  -7638850.11147  20999688.008    20999694.156
  20093446.424   -11436667.96549  -8676757.64148  20093445.707    20093451.864
  22008297.520     6269888.36149   4891373.84746  22008296.933    22008302.509
  21038678.564     -974618.38949   -747875.38147  21038678.076    21038682.983
  23200234.499    -7702079.76749  -5762858.07045  23200234.192    23200241.473
  23141626.338    -7948001.29049  -5906650.75045  23141625.876    23141633.637
  23287391.981    11482411.88649   8949259.45245  23287391.414    23287400.457
  21366873.864   -20119090.33249 -15658784.93247  21366873.371    21366879.656
  22021365.213   -14879304.84049 -11573535.22147  22021364.906    22021372.011
 03  6  9 19 58  0.0000000  0  9G23G15G21G18G 9G31G17G14G 3
  21000608.402    -9817358.20849  -7635083.49747  21000607.832    21000614.018
  20094793.663   -11429588.15349  -8671240.92248  20094792.964    20094799.112
  22022128.310     6342569.30449   4948008.26246  22022127.748    22022133.293
  21046421.665     -933928.29449   -716168.83947  21046421.166    21046426.056
  23196157.746    -7723503.44349  -5779551.83845  23196157.474    23196164.646
  23131559.939    -8000900.79949  -5947871.13645  23131559.485    23131567.254
  23303579.437    11567476.60949   9015543.50345  23303578.828    23303587.936
  21352416.470   -20195064.17149 -15717985.26247  21352415.980    21352422.262
  22020305.609   -14884873.38149 -11577874.38347  22020305.300    22020312.396
 03  6  9 19 58 30.0000000  0  9G23G15G21G18G 9G31G17G14G 3
  21001562.632    -9812343.57649  -7631175.98947  21001562.071    21001568.259
  20096222.988   -11422077.06349  -8665388.13548  20096222.295    20096228.447
  22036020.243     6415571.73749   5004893.18746  22036019.681    22036025.242
  21054200.753     -893048.93349   -684314.80347  21054200.250    21054205.148
  23192186.484    -7744372.28149  -5795813.23245  23192186.263    23192193.350
  23121590.535    -8053290.49649  -5988694.25945  23121590.027    23121597.776
  23319815.654    11652798.19149   9082027.69345  23319815.038    23319824.193
  21338039.446   -20270615.57749 -15776856.42147  21338038.983    21338045.210
  22019353.088   -14889878.69649 -11581774.65447  22019352.779    22019359.952
 03  6  9 19 59  0.0000000  0  9G23G15G21G18G 9G31G17G14G 3
  21002551.198    -9807148.60749  -7627127.96047  21002550.647    21002556.834
  20097734.587   -11414133.50549  -8659198.36448  20097733.888    20097740.059
  22049973.275     6488895.08649   5062028.19646  22049972.701    22049978.259
  21062015.765     -851980.90049   -652313.75947  21062015.270    21062020.171
  23188321.128    -7764684.53549  -5811640.94945  23188320.919    23188328.026
  23111718.509    -8105168.33949  -6029118.54045  23111717.951    23111725.745
  23336100.636    11738376.34649   9148711.80945  23336099.974    23336109.283
  21323743.211   -20345742.79549 -15835397.04747  21323742.730    21323748.923
  22018507.840   -14894320.70449 -11585235.99347  22018507.534    22018514.714
 03  6  9 19 59 30.0000000  0  9G23G15G21G18G 9G31G17G14G 3
  21003573.925    -9801774.13949  -7622940.06747  21003573.379    21003579.550
  20099328.670   -11405756.44549  -8652670.80148  20099327.975    20099334.156
  22063987.222     6562538.73349   5119412.77246  22063986.660    22063992.237
  21069866.474     -810725.16849   -620166.45747  21069865.965    21069870.893
  23184562.011    -7784438.42549  -5827033.58045  23184561.812    23184568.909
  23101944.165    -8156532.68449  -6069142.69445  23101943.717    23101951.401
  23352434.305    11824209.99949   9215595.02045  23352433.676    23352443.094
  21309528.025   -20420443.79949 -15893605.56347  21309527.551    21309533.728
  22017769.770   -14898199.32049 -11588258.33047  22017769.465    22017776.652
 03  6  9 20  0  0.0000000  0  9G23G15G21G18G 9G31G17G14G 3
  21004630.991    -9796219.30249  -7618611.62647  21004630.437    21004636.648
  20101005.776   -11396943.34549  -8645803.46448  20101005.064    20101011.271
  22078062.376     6636503.95649   5177047.92246  22078061.836    22078067.440
  21077753.132     -769280.56549   -587871.97547  21077752.636    21077757.567
  23180909.915    -7803630.47649  -5841988.41145  23180909.690    23180916.734
  23092268.182    -8207380.12749  -6108764.08045  23092267.696    23092275.404
  23368816.820    11910299.97749   9282677.95245  23368816.185    23368825.693
  21295394.638   -20494715.16049 -15951479.28547  21295394.156    21295400.299
  22017139.215   -14901512.97049 -11590840.42847  22017138.912    22017146.130
 03  6  9 20  0 30.0000000  0  9G23G15G21G18G 9G31G17G14G 3
  21005721.085    -9790490.80249  -7614147.86047  21005720.522    21005726.745
  20102764.876   -11387699.20349  -8638600.25048  20102764.186    20102770.370
  22092197.423     6710783.93949   5234928.34346  22092196.880    22092202.573
  21085674.355     -727654.15949   -555435.82947  21085673.872    21085678.813
  23177363.787    -7822265.41649  -5856509.13545  23177363.486    23177370.583
  23082689.727    -8257715.21649  -6147986.21745  23082689.207    23082696.977
  23385246.714    11996639.43249   9349955.28045  23385246.111    23385255.733
  21281342.169   -20568561.33649 -16009021.69847  21281341.664    21281347.786
  22016615.008   -14904268.06749 -11592987.29147  22016614.685    22016621.865
 03  6  9 20  1  0.0000000  0  9G23G15G21G18G 9G31G17G14G 3
  21006845.274    -9784583.05849  -7609544.42547  21006844.704    21006850.950
  20104607.391   -11378016.84649  -8631055.57048  20104606.690    20104612.864
  22106393.484     6785384.52249   5293058.57646  22106392.933    22106398.679
  21093631.265     -685840.29949   -522853.61647  21093630.783    21093635.740
  23173925.267    -7840335.04149  -5870589.35045  23173924.946    23173932.071
  23073210.280    -8307530.01649  -6186802.93845  23073209.800    23073217.477
  23401725.236    12083234.48649   9417431.77645  23401724.573    23401734.317
  21267372.112   -20641974.05349 -16066226.35147  21267371.615    21267377.738
  22016198.219   -14906458.33949 -11594694.03247  22016197.893    22016205.096
 03  6  9 20  1 30.0000000  0  9G23G15G21G18G 9G31G17G14G 3
  21008002.978    -9778499.31549  -7604803.85147  21008002.443    21008008.656
  20106533.043   -11367897.60349  -8623170.45948  20106532.347    20106538.519
  22120650.073     6860303.03349   5351436.54546  22120649.513    22120655.297
  21101623.291     -643842.03249   -490127.70747  21101622.811    21101627.791
  23170594.231    -7857840.11949  -5884229.65545  23170593.852    23170600.964
  23063829.695    -8356825.13149  -6225214.71545  23063829.223    23063836.919
  23418252.014    12170082.18349   9485105.16345  23418251.272    23418260.975
  21253484.385   -20714953.96249 -16123093.74947  21253483.919    21253490.070
  22015888.464   -14908086.29949 -11595962.60247  22015888.088    22015895.340
 03  6  9 20  2  0.0000000  0  9G23G15G21G18G 9G31G17G14G 3
  21009193.955    -9772240.78149  -7599927.07147  21009193.408    21009199.614
  20108541.903   -11357341.08649  -8614944.61548  20108541.207    20108547.379
  22134966.893     6935538.23249   5410061.28446  22134966.322    22134972.161
  21109650.178     -601660.31349   -457258.85847  21109649.723    21109654.679
  23167370.711    -7874779.61749  -5897429.25445  23167370.342    23167377.438
  23054548.269    -8405599.47849  -6263220.69045  23054547.788    23054555.496
  23434826.512    12257181.28349   9552974.42045  23434825.718    23434835.538
  21239679.358   -20787499.71949 -16179622.84847  21239678.896    21239685.020
  22015685.536   -14909152.76449 -11596793.65247  22015685.188    22015692.455
 03  6  9 20  2 30.0000000  0  9G23G15G21G18G 9G31G17G14G 3
  21010418.129    -9765807.59349  -7594914.19847  21010417.561    21010423.756
  20110634.200   -11346346.12449  -8606377.12648  20110633.498    20110639.658
  22149343.980     7011089.83049   5468932.57346  22149343.408    22149349.259
  21117711.933     -559295.68949   -424247.47947  21117711.492    21117716.454
  23164255.334    -7891151.54849  -5910186.60545  23164254.900    23164261.991
  23045366.259    -8453850.97849  -6300819.25745  23045365.745    23045373.558
  23451448.708    12344530.89649   9621038.88345  23451448.030    23451457.765
  21225957.354   -20859609.22449 -16235812.01847  21225956.896    21225962.969
  22015589.562   -14909657.18449 -11597186.74047  22015589.235    22015596.494
 03  6  9 20  3  0.0000000  0  9G23G15G21G18G 9G31G17G14G 3
  21011675.351    -9759200.91749  -7589766.14147  21011674.790    21011680.978
  20112810.024   -11334912.16649  -8597467.56448  20112809.322    20112815.481
  22163781.030     7086956.80149   5528049.59446  22163780.494    22163786.344
  21125808.180     -516749.61549   -391094.72247  21125807.718    21125812.689
  23161248.061    -7906954.75849  -5922500.78745  23161247.612    23161254.669
  23036283.965    -8501578.57349  -6338009.58645  23036283.523    23036291.333
  23468118.552    12432130.29549   9689297.99545  23468117.819    23468127.514
  21212318.659   -20931281.00249 -16291660.10147  21212318.198    21212324.227
  22015600.431   -14909600.34949 -11597142.48847  22015600.107    22015607.371
 03  6  9 20  3 30.0000000  0  9G23G15G21G18G 9G31G17G14G 3
  21012965.479    -9752421.37649  -7584483.38447  21012964.917    21012971.080
  20115069.604   -11323037.94049  -8588214.93648  20115068.898    20115075.078
  22178277.973     7163138.49649   5587411.84646  22178277.418    22178283.319
  21133938.940     -474022.24249   -357800.68447  21133938.489    21133943.470
  23158349.310    -7922187.49349  -5934370.42445  23158348.909    23158356.030
  23027301.775    -8548780.56149  -6374790.36145  23027301.241    23027309.017
  23484835.737    12519978.78749   9757751.19745  23484835.007    23484844.767
  21198763.508   -21002513.51249 -16347165.89847  21198763.032    21198769.069
  22015718.042   -14908982.54049 -11596661.11747  22015717.726    22015724.970
 03  6  9 20  4  0.0000000  0  9G23G15G21G18G 9G31G17G14G 3
  21014288.575    -9745468.47349  -7579065.54047  21014288.001    21014294.174
  20117413.356   -11310721.55949  -8578617.76648  20117412.655    20117418.848
  22192834.977     7239635.69449   5647019.95746  22192834.440    22192840.340
  21142104.253     -431113.28149   -324365.15147  21142103.816    21142108.781
  23155559.617    -7936847.13249  -5945793.51445  23155559.300    23155566.403
  23018420.046    -8595454.31249  -6411159.50745  23018419.530    23018427.293
  23501600.457    12608077.07649   9826399.04145  23501599.810    23501609.483
  21185292.487   -21073303.92049 -16402327.20047  21185292.038    21185298.082
  22015942.554   -14907802.74949 -11595741.83247  22015942.250    22015949.513
 03  6  9 20  4 30.0000000  0  9G23G15G21G18G 9G31G17G14G 3
  21015643.702    -9738347.25149  -7573516.54047  21015643.133    21015649.275
  20119840.603   -11297966.35949  -8568678.66748  20119839.905    20119846.093
  22207451.137     7316443.55749   5706870.15246  22207450.572    22207456.498
  21150303.141     -388027.95649   -290792.18847  21150302.690    21150307.669
  23152878.486    -7950936.61549  -5956772.32545  23152878.246    23152885.280
  23009638.332    -8641602.56049  -6447119.17445  23009637.779    23009645.657
  23518411.581    12696419.41249   9895237.04345  23518410.933    23518420.733
  21171905.125   -21143654.76449 -16457145.98947  21171904.665    21171910.674
  22016273.153   -14906065.74949 -11594388.37247  22016272.831    22016280.078
 03  6  9 20  5  0.0000000  0  9G23G15G21G18G 9G31G17G14G 3
  21017031.611    -9731053.81649  -7567833.34547  21017031.032    21017037.198
  20122352.348   -11284767.07849  -8558393.52948  20122351.636    20122357.838
  22222127.072     7393565.70649   5766965.22946  22222126.512    22222132.435
  21158536.389     -344762.10549   -257078.56047  21158535.940    21158540.924
  23150306.994    -7964450.02049  -5967302.26345  23150306.746    23150313.808
  23000957.798    -8687219.30349  -6482664.68745  23000957.158    23000965.039
  23535269.906    12785009.71549   9964268.27245  23535269.212    23535279.129
  21158602.606   -21213559.88549 -16511617.45847  21158602.135    21158608.096
  22016710.576   -14903767.38949 -11592597.48447  22016710.238    22016717.478
 03  6  9 20  5 30.0000000  0  9G23G15G21G18G 9G31G17G14G 3
  21018451.795    -9723590.66049  -7562017.90147  21018451.219    21018457.408
  20124948.440   -11271124.59749  -8547763.03748  20124947.738    20124953.949
  22236862.393     7470999.72849   5827303.33046  22236861.801    22236867.756
  21166803.432     -301318.57649   -223226.48047  21166802.977    21166807.976
  23147844.970    -7977387.74649  -5977383.59745  23147844.801    23147851.761
  22992378.312    -8732304.99749  -6517796.39145  22992377.718    22992385.487
  23552175.040    12873845.72649  10033490.96045  23552174.399    23552184.282
  21145384.829   -21283019.50549 -16565741.78547  21145384.365    21145390.302
  22017254.362   -14900909.81249 -11590370.84147  22017254.022    22017261.268
 03  6  9 20  6  0.0000000  0  9G23G15G21G18G 9G31G17G14G 3
  21019904.126    -9715958.53849  -7556070.80047  21019903.564    21019909.733
  20127628.992   -11257038.32349  -8536786.73348  20127628.303    20127634.510
  22251656.861     7548744.77049   5887883.78546  22251656.269    22251662.249
  21175104.152     -257698.07849   -189236.50347  21175103.681    21175108.692
  23145492.757    -7989748.55449  -5987015.38345  23145492.569    23145499.475
  22983900.062    -8776858.33449  -6552513.27645  22983899.478    22983907.210
  23569126.696    12962926.36749  10102904.26445  23569126.024    23569135.869
  21132252.142   -21352032.10249 -16619517.78947  21132251.667    21132257.587
  22017904.485   -14897493.41649 -11587708.75847  22017904.162    22017911.413
 03  6  9 20  6 30.0000000  0  9G23G15G21G18G 9G31G17G14G 3
  21021388.742    -9708156.83649  -7549991.55447  21021388.176    21021394.357
  20130394.413   -11242505.94049  -8525462.81248  20130393.708    20130399.922
  22266510.646     7626801.48049   5948707.10846  22266510.025    22266516.074
  21183438.651     -213900.04949   -155108.20247  21183438.191    21183443.193
  23143250.891    -8001529.74649  -5996195.52345  23143250.661    23143257.651
  22975523.683    -8820876.43749  -6586813.09245  22975523.086    22975530.886
  23586124.956    13052251.97849  10172508.45745  23586124.156    23586134.073
  21119205.101   -21420594.65549 -16672943.10447  21119204.629    21119210.518
  22018661.134   -14893517.40849 -11584610.61247  22018660.828    22018668.064
 03  6  9 20  7  0.0000000  0  9G23G15G21G18G 9G31G17G14G 3
  21022904.952    -9700189.30549  -7543783.09547  21022904.376    21022910.553
  20133244.301   -11227529.76449  -8513793.07848  20133243.595    20133249.832
  22281423.044     7705166.47149   6009770.64346  22281422.452    22281428.518
  21191806.273     -169927.96849   -120844.26047  21191805.808    21191810.825
  23141119.021    -8012732.92149  -6004925.26545  23141118.787    23141125.753
  22967248.828    -8864361.03949  -6620697.20346  22967248.245    22967256.027
  23603169.086    13141818.94249  10242300.73045  23603168.267    23603178.275
  21106243.376   -21488708.73949 -16726018.96447  21106242.892    21106248.772
  22019523.608   -14888985.31249 -11581079.14847  22019523.281    22019530.517
 03  6  9 20  7 30.0000000  0  9G23G15G21G18G 9G31G17G14G 3
  21024452.912    -9692054.65549  -7537444.41247  21024452.354    21024458.512
  20136179.101   -11212107.28249  -8501775.57948  20136178.394    20136184.643
  22296394.285     7783840.47449   6071074.96746  22296393.697    22296399.780
  21200207.219     -125780.70049    -86443.81447  21200206.742    21200211.786
  23139097.719    -8023355.03849  -6013202.23745  23139097.426    23139104.383
  22959076.162    -8907308.78349  -6654162.97146  22959075.583    22959083.331
  23620259.353    13231628.31049  10312281.87145  23620258.565    23620268.568
  21093367.656   -21556370.95549 -16778742.71947  21093367.176    21093373.059
  22020492.162   -14883895.72949 -11577113.28047  22020491.821    22020499.083
 03  6  9 20  8  0.0000000  0  9G23G15G21G18G 9G31G17G14G 3
  21026032.530    -9683753.76749  -7530976.19347  21026031.971    21026038.130
  20139198.983   -11196237.70349  -8489409.69048  20139198.283    20139204.511
  22311424.177     7862822.82949   6132619.55446  22311423.603    22311429.734
  21208641.319      -81459.28049    -51907.66947  21208640.853    21208645.890
  23137187.094    -8033395.05349  -6021025.61945  23137186.869    23137193.808
  22951005.778    -8949718.65549  -6687209.62146  22951005.240    22951012.951
  23637395.557    13321679.14149  10382451.16845  23637394.682    23637404.744
  21080578.150   -21623579.79249 -16831113.19847  21080577.690    21080583.581
  22021566.666   -14878249.19349 -11572713.42047  22021566.307    22021573.601
 03  6  9 20  8 30.0000000  0  9G23G15G21G18G 9G31G17G14G 3
  21027643.562    -9675287.78849  -7524379.33347  21027643.016    21027649.155
  20142304.079   -11179920.43049  -8476694.94948  20142303.373    20142309.605
  22326512.506     7942112.26349   6194403.44246  22326511.917    22326518.043
  21217108.361      -36964.76549    -17236.64147  21217107.902    21217112.953
  23135387.511    -8042852.00749  -6028394.66645  23135387.305    23135394.223
  22943038.042    -8991589.49549  -6719836.25446  22943037.495    22943045.201
  23654577.620    13411970.34149  10452807.76445  23654576.877    23654586.806
  21067875.189   -21690334.09149 -16883129.49047  21067874.724    21067880.622
  22022747.024   -14872046.53249 -11567880.21947  22022746.690    22022753.987
 03  6  9 20  9  0.0000000  0  9G23G15G21G18G 9G31G17G14G 3
  21029285.888    -9666657.40549  -7517654.36347  21029285.329    21029291.478
  20145494.475   -11163154.89049  -8463630.90548  20145493.775    20145500.015
  22341659.198     8021708.20949   6256426.15146  22341658.592    22341664.764
  21225608.250        7702.42649     17568.94247  21225607.797    21225612.849
  23133699.079    -8051724.54649  -6035308.32745  23133698.874    23133705.799
  22935173.128    -9032920.16049  -6752041.96846  22935172.521    22935180.254
  23671805.089    13502500.62549  10523350.64945  23671804.391    23671814.283
  21055258.972   -21756632.46249 -16934790.51547  21055258.508    21055264.404
  22024033.055   -14865288.50149 -11562614.26547  22024032.729    22024040.026
 03  6  9 20  9 30.0000000  0  9G23G15G21G18G 9G31G17G14G 3
  21030959.361    -9657863.30449  -7510801.82447  21030958.810    21030964.943
  20148770.230   -11145940.67849  -8450217.25748  20148769.527    20148775.790
  22356863.985     8101609.61649   6318686.88046  22356863.395    22356869.628
  21234140.851       52541.34749     52508.33647  21234140.390    21234145.450
  23132122.039    -8060011.66849  -6041765.82045  23132121.875    23132128.814
  22927411.193    -9073709.34749  -6783825.75446  22927410.585    22927418.349
  23689077.832    13593269.16849  10594079.19345  23689077.153    23689087.177
  21042729.804   -21822473.49849 -16986095.17747  21042729.342    21042735.208
  22025424.655   -14857975.69149 -11556916.01647  22025424.336    22025431.632
 03  6  9 20 10  0.0000000  0  9G23G15G21G18G 9G31G17G14G 3
  21032663.952    -9648905.75049  -7503821.91547  21032663.380    21032669.523
  20152131.630   -11128276.62849  -8436453.08348  20152130.930    20152137.193
  22372126.903     8181816.22049   6381185.42246  22372126.318    22372132.545
  21242706.082       97551.73349     87581.33647  21242705.611    21242710.667
  23130656.739    -8067712.00849  -6047766.08145  23130656.520    23130663.532
  22919752.535    -9113955.47249  -6815186.38746  22919751.936    22919759.828
  23706395.817    13684275.22549  10664992.80845  23706395.213    23706405.177
  21030288.038   -21887855.29149 -17037041.98447  21030287.575    21030293.414
  22026921.794   -14850108.38749 -11550785.69847  22026921.490    22026928.808
 03  6  9 20 10 30.0000000  0  9G23G15G21G18G 9G31G17G14G 3
  21034399.389    -9639785.90249  -7496715.54647  21034398.819    21034404.965
  20155578.669   -11110162.45949  -8422338.16648  20155577.974    20155584.228
  22387447.602     8262326.59549   6443920.67746  22387447.003    22387453.288
  21251303.713      142732.43649    122787.05847  21251303.239    21251308.318
  23129303.211    -8074824.89649  -6053308.59045  23129302.987    23129310.038
  22912197.426    -9153657.75949  -6846123.23846  22912196.816    22912204.742
  23723758.812    13775517.91849  10736090.83345  23723758.184    23723768.354
  21017933.824   -21952777.09549 -17087630.36147  21017933.337    21017939.167
  22028524.195   -14841687.73949 -11544224.19147  22028523.890    22028531.214
 03  6  9 20 11  0.0000000  0  9G23G15G21G18G 9G31G17G14G 3
  21036165.528    -9630504.77249  -7489483.50047  21036164.976    21036171.119
  20159111.428   -11091597.68349  -8407872.12548  20159110.708    20159116.985
  22402825.962     8343139.84849   6506891.93346  22402825.347    22402831.659
  21259933.500      188082.29649    158124.58147  21259933.035    21259938.147
  23128061.588    -8081349.44349  -6058392.64345  23128061.356    23128068.420
  22904745.957    -9192815.43449  -6876635.71646  22904745.345    22904753.256
  23741166.531    13866995.54649  10807371.90945  23741165.993    23741176.252
  21005667.400   -22017237.47949 -17137859.18847  21005666.890    21005672.730
  22030231.766   -14832714.57249 -11537232.15947  22030231.448    22030238.818
 03  6  9 20 11 30.0000000  0  9G23G15G21G18G 9G31G17G14G 3
  21037962.319    -9621062.57849  -7482125.94547  21037961.752    21037967.905
  20162730.155   -11072581.23949  -8393054.13248  20162729.433    20162735.719
  22418261.812     8424255.38749   6570098.74946  22418261.221    22418267.581
  21268595.542      233601.46349    193594.03947  21268595.078    21268600.184
  23126932.246    -8087284.13049  -6063017.07245  23126932.038    23126939.109
  22897398.398    -9231426.85549  -6906722.53946  22897397.871    22897405.718
  23758618.918    13958707.65149  10878835.69245  23758618.280    23758628.588
  20993489.082   -22081234.61349 -17187727.03947  20993488.590    20993494.421
  22032044.423   -14823189.19649 -11529809.83147  22032044.083    22032051.503
 03  6  9 20 12  0.0000000  0  9G23G15G21G18G 9G31G17G14G 3
  21039789.365    -9611461.46549  -7474644.56547  21039788.787    21039794.968
  20166434.641   -11053114.04349  -8377884.91348  20166433.938    20166440.240
  22433754.743     8505670.93449   6633539.31146  22433754.185    22433760.560
  21277289.314      279287.32249    229193.38647  21277288.869    21277293.947
  23125915.109    -8092629.59249  -6067182.36645  23125914.873    23125921.919
  22890154.815    -9269492.39649  -6936384.00046  22890154.296    22890162.109
  23776115.495    14050652.09749  10950480.53145  23776114.818    23776125.265
  20981398.845   -22144768.96649 -17237234.28547  20981398.380    20981404.214
  22033961.678   -14813114.07349 -11521959.12947  22033961.356    22033968.788
 03  6  9 20 12 30.0000000  0  9G23G15G21G18G 9G31G17G14G 3
  21041647.048    -9601699.25749  -7467037.65247  21041646.491    21041652.676
  20170225.580   -11033192.65349  -8362361.77148  20170224.874    20170231.166
  22449305.198     8587388.55749   6697215.26146  22449304.610    22449310.976
  21286015.233      325142.18249    264924.41547  21286014.768    21286019.849
  23125010.767    -8097382.01349  -6070885.55045  23125010.528    23125017.577
  22883015.829    -9307008.03449  -6965616.96146  22883015.288    22883023.158
  23793656.801    14142830.88049  11022307.94245  23793656.124    23793666.500
  20969397.554   -22207836.10149 -17286377.46347  20969397.079    20969402.915
  22035984.009   -14802486.93949 -11513678.29247  22035983.686    22035991.119
 03  6  9 20 13  0.0000000  0  9G23G15G21G18G 9G31G17G14G 3
  21043534.878    -9591778.54349  -7459307.22747  21043534.304    21043540.507
  20174102.745   -11012818.27149  -8346485.64848  20174102.030    20174108.325
  22464912.565     8669405.27149   6761124.28146  22464911.964    22464918.352
  21294772.857      371163.55649    300785.20347  21294772.396    21294777.473
  23124219.115    -8101542.34449  -6074127.37045  23124218.896    23124225.914
  22875981.395    -9343974.64549  -6994422.12046  22875980.848    22875988.658
  23811241.968    14235240.58149  11094315.30545  23811241.380    23811251.763
  20957485.026   -22270436.80249 -17335157.18847  20957484.545    20957490.358
  22038110.822   -14791310.53349 -11504969.45247  22038110.513    22038117.961
 03  6  9 20 13 30.0000000  0  9G23G15G21G18G 9G31G17G14G 3
  21045452.839    -9581699.45049  -7451453.39247  21045452.277    21045458.504
  20178066.296   -10991989.79049  -8330255.68848  20178065.576    20178071.856
  22480576.748     8751720.73849   6825266.08646  22480576.141    22480582.539
  21303562.090      417351.27349    336775.60847  21303561.641    21303566.727
  23123540.470    -8105109.02849  -6076906.59646  23123540.196    23123547.256
  22869051.687    -9380390.72749  -7022798.29246  22869051.135    22869058.888
  23828870.921    14327880.90949  11166502.38945  23828870.306    23828880.872
  20945661.627   -22332569.05749 -17383571.88947  20945661.131    20945666.931
  22040342.078   -14779585.24249 -11495832.91246  22040341.749    22040349.214
 03  6  9 20 14  0.0000000  0  9G23G15G21G18G 9G31G17G14G 3
  21047400.729    -9571463.24849  -7443477.13047  21047400.168    21047406.377
  20182116.184   -10970707.63649  -8313672.21448  20182115.462    20182121.716
  22496297.510     8834333.44649   6889639.51346  22496296.887    22496303.287
  21312382.703      463703.76849    372894.41647  21312382.255    21312387.356
  23122974.706    -8108082.16449  -6079223.31446  23122974.428    23122981.494
  22862226.745    -9416255.88949  -7050745.16646  22862226.230    22862233.945
  23846543.488    14420750.00249  11238867.71545  23846542.931    23846553.287
  20933927.465   -22394232.32449 -17431621.14047  20933926.984    20933932.775
  22042677.581   -14767312.30749 -11486269.62946  22042677.252    22042684.700
 03  6  9 20 14 30.0000000  0  9G23G15G21G18G 9G31G17G14G 3
  21049378.492    -9561069.99149  -7435378.48947  21049377.919    21049384.133
  20186252.706   -10948970.21049  -8296733.98148  20186251.979    20186258.227
  22512074.860     8917243.43649   6954244.59646  22512074.215    22512080.600
  21321234.751      510221.38349    409141.88847  21321234.307    21321239.391
  23122522.267    -8110459.76649  -6081075.98746  23122522.021    23122528.992
  22855507.014    -9451568.19449  -7078261.25046  22855506.492    22855514.267
  23864259.588    14513848.14749  11311411.54545  23864258.997    23864269.539
  20922282.925   -22455424.47749 -17479303.29147  20922282.435    20922288.258
  22045117.267   -14754491.88749 -11476279.73946  22045116.923    22045124.376
 03  6  9 20 15  0.0000000  0  9G23G15G21G18G 9G31G17G14G 3
  21051385.982    -9550520.68049  -7427158.24647  21051385.409    21051391.633
  20190475.842   -10926777.47249  -8279440.95948  20190475.115    20190481.347
  22527908.519     9000449.28749   7019080.21946  22527907.914    22527914.232
  21330117.976      556903.08049    445517.21647  21330117.527    21330122.624
  23122183.207    -8112241.51549  -6082464.34846  23122182.976    23122189.932
  22848892.605    -9486327.15449  -7105346.15846  22848892.121    22848899.804
  23882018.948    14607173.40449  11384132.32045  23882018.323    23882029.003
  20910728.184   -22516144.83349 -17526617.81047  20910727.694    20910733.532
  22047660.864   -14741125.37849 -11465864.32546  22047660.562    22047668.031
 03  6  9 20 15 30.0000000  0  9G23G15G21G18G 9G31G17G14G 3
  21053423.080    -9539815.79649  -7418816.78447  21053422.519    21053428.720
  20194785.747   -10904128.80949  -8261792.68348  20194785.021    20194791.274
  22543798.283     9083950.07349   7084145.63946  22543797.663    22543803.940
  21339032.276      603748.04449    482019.76147  21339031.826    21339036.925
  23121957.739    -8113426.38849  -6083387.62946  23121957.552    23121964.498
  22842383.730    -9520531.74249  -7131999.08646  22842383.247    22842390.917
  23899821.353    14700724.82249  11457029.31345  23899820.638    23899831.456
  20899263.544   -22576391.97749 -17573563.59547  20899263.061    20899268.860
  22050308.196   -14727213.76549 -11455024.16446  22050307.880    22050315.348
 03  6  9 20 16  0.0000000  0  9G23G15G21G18G 9G31G17G14G 3
  21055489.606    -9528956.21249  -7410354.77647  21055489.038    21055495.229
  20199182.550   -10881023.62749  -8243788.67247  20199181.827    20199188.085
  22559743.985     9167744.75249   7149440.08046  22559743.365    22559749.689
  21347977.527      650755.47249    518648.90347  21347977.063    21347982.158
  23121846.006    -8114013.83049  -6083845.38246  23121845.799    23121852.749
  22835980.444    -9554181.22249  -7158219.47046  22835979.920    22835987.609
  23917666.550    14794501.51549  11530101.86145  23917666.014    23917676.728
  20887889.075   -22636164.95349 -17620139.89547  20887888.596    20887894.366
  22053059.065   -14712757.96449 -11443759.95946  22053058.775    22053066.248
 03  6  9 20 16 30.0000000  0  9G23G15G21G18G 9G31G17G14G 3
  21057585.474    -9517942.36249  -7401772.56747  21057584.907    21057591.101
  20203666.258   -10857461.50249  -8225428.60447  20203665.553    20203671.827
  22575745.444     9251832.56249   7214962.91046  22575744.847    22575751.176
  21356953.636      697925.26649    555404.55947  21356953.189    21356958.280
  23121848.084    -8114003.00149  -6083836.94746  23121847.828    23121854.856
  22829683.012    -9587274.39849  -7184006.37246  22829682.520    22829690.202
  23935554.584    14888502.43249  11603349.10245  23935553.871    23935564.468
  20876605.165   -22695462.23049 -17666345.53047  20876604.697    20876610.434
  22055913.419   -14697758.67049 -11432072.26646  22055913.109    22055920.586
 03  6  9 20 17  0.0000000  0  9G23G15G21G18G 9G31G17G14G 3
  21059710.548    -9506775.10749  -7393070.81547  21059709.976    21059716.143
  20208236.971   -10833442.11349  -8206712.22447  20208236.269    20208242.573
  22591802.438     9336212.32449   7280713.24746  22591801.841    22591808.264
  21365960.444      745256.24349    592285.81347  21365959.984    21365965.086
  23121964.118    -8113393.44849  -6083361.97845  23121963.877    23121970.856
  22823491.563    -9619810.61749  -7209359.27646  22823491.055    22823498.738
  23953485.034    14982726.65449  11676770.37445  23953484.127    23953494.756
  20865411.901   -22754282.94449 -17712179.80947  20865411.426    20865417.178
  22058870.941   -14682217.10549 -11419962.00847  22058870.631    22058878.111
 03  6  9 20 17 30.0000000  0  9G23G15G21G18G 9G31G17G14G 3
  21061864.708    -9495455.04749  -7384249.99347  21061864.145    21061870.308
  20212894.820   -10808965.03549  -8187639.19947  20212894.105    20212900.416
  22607914.793     9420882.98249   7346690.25746  22607914.196    22607920.692
  21374997.840      792747.91449    629292.29347  21374997.377    21375002.502
  23122194.230    -8112184.27449  -6082419.75246  23122193.998    23122200.971
  22817406.342    -9651788.86649  -7234277.39746  22817405.829    22817413.550
  23971457.640    15077173.03749  11750364.72145  23971456.776    23971467.561
  20854309.616   -22812625.77149 -17757641.71147  20854309.152    20854314.875
  22061931.444   -14666134.40949 -11407430.09747  22061931.113    22061938.599
 03  6  9 20 18  0.0000000  0  9G23G15G21G18G 9G31G17G14G 3
  21064047.914    -9483982.45249  -7375310.31647  21064047.343    21064053.493
  20217639.936   -10784029.46449  -8168208.90847  20217639.230    20217645.542
  22624082.433     9505843.99549   7412893.50946  22624081.854    22624088.360
  21384065.706      840399.81349    666423.62647  21384065.230    21384070.349
  23122538.554    -8110374.70549  -6081009.70145  23122538.240    23122545.315
  22811427.406    -9683208.20649  -7258760.01946  22811426.888    22811434.627
  23989472.331    15171840.54449  11824131.37845  23989471.554    23989482.246
  20843298.467   -22870489.65549 -17802730.40847  20843297.985    20843303.691
  22065094.762   -14649511.42149 -11394477.17847  22065094.413    22065101.923
 03  6  9 20 18 30.0000000  0  9G23G15G21G18G 9G31G17G14G 3
  21066259.998    -9472357.95749  -7366252.26947  21066259.422    21066265.581
  20222472.316   -10758635.15349  -8148421.16247  20222471.594    20222477.923
  22640305.130     9591094.25149   7479322.16446  22640304.513    22640311.051
  21393163.997      888211.59549    703679.54047  21393163.521    21393168.652
  23122997.239    -8107964.24549  -6079131.41645  23122996.982    23123004.011
  22805554.953    -9714067.89349  -7282806.52946  22805554.503    22805562.196
  24007528.926    15266727.92849  11898069.36045  24007528.214    24007538.976
  20832378.705   -22927873.26549 -17847444.86747  20832378.215    20832383.905
  22068360.667   -14632349.01849 -11381103.93647  22068360.352    22068367.875
 03  6  9 20 19  0.0000000  0  9G23G15G21G18G 9G31G17G14G 3
  21068500.814    -9460582.35949  -7357076.48247  21068500.231    21068506.415
  20227392.105   -10732781.64549  -8128275.59147  20227391.388    20227397.730
  22656582.617     9676632.57349   7545975.29846  22656582.054    22656588.616
  21402292.558      936182.21149    741059.22247  21402292.071    21402297.199
  23123570.427    -8104952.24749  -6076784.39645  23123570.125    23123577.210
  22799789.225    -9744367.10749  -7306416.30246  22799788.765    22799796.456
  24025627.129    15361834.09849  11972177.83645  24025626.384    24025637.336
  20821550.503   -22984775.60249 -17891784.30247  20821550.021    20821555.697
  22071729.036   -14614648.39049 -11367311.28847  22071728.690    22071736.258
 03  6  9 20 19 30.0000000  0  9G23G15G21G18G 9G31G17G14G 3
  21070770.093    -9448656.91049  -7347783.92947  21070769.520    21070775.714
  20232399.231   -10706468.98749  -8107772.23947  20232398.512    20232404.883
  22672914.674     9762457.63949   7612851.83846  22672914.109    22672920.752
  21411451.027      984310.35049    778561.64647  21411450.571    21411455.695
  23124257.997    -8101338.73149  -6073968.65145  23124257.740    23124264.834
  22794130.206    -9774105.63049  -7329589.20046  22794129.763    22794137.385
  24043766.750    15457157.52249  12046455.59745  24043766.077    24043777.033
  20810813.992   -23041196.10849 -17935748.29347  20810813.514    20810819.174
  22075199.443   -14596411.35149 -11353100.66147  22075199.128    22075206.719
 03  6  9 20 20  0.0000000  0  9G23G15G21G18G 9G31G17G14G 3
  21073067.996    -9436581.28749  -7338374.35747  21073067.429    21073073.642
  20237493.967   -10679695.99249  -8086910.18547  20237493.245    20237499.625
  22689301.239     9848568.96949   7679951.45246  22689300.664    22689307.351
  21420639.538     1032596.41549    816187.12947  21420639.080    21420644.235
  23125060.358    -8097122.31849  -6070683.11945  23125060.084    23125067.238
  22788578.163    -9803281.99949  -7352324.04546  22788577.666    22788585.321
  24061947.716    15552697.90549  12120902.43345  24061946.870    24061957.990
  20800169.524   -23097133.00049 -17979335.43647  20800169.043    20800174.691
  22078771.928   -14577638.10549 -11338472.21647  22078771.584    22078779.179
 03  6  9 20 20 30.0000000  0  9G23G15G21G18G 9G31G17G14G 3
  21075394.355    -9424356.22549  -7328848.34147  21075393.798    21075400.000
  20242676.351   -10652462.56349  -8065689.35847  20242675.647    20242682.031
  22705741.983     9934965.70149   7747273.45246  22705741.382    22705748.225
  21429858.043     1081039.70549    853935.12247  21429857.578    21429862.728
  23125977.457    -8092302.75049  -6066927.62245  23125977.189    23125984.312
  22783133.132    -9831895.43549  -7374620.23446  22783132.686    22783140.366
  24080169.627    15648453.95049  12195517.28845  24080168.895    24080180.047
  20789617.274   -23152585.33949 -18022545.01347  20789616.808    20789622.461
  22082446.218   -14558329.93649 -11323426.94847  22082445.870    22082453.487
 03  6  9 20 21  0.0000000  0  9G23G15G21G18G 9G31G17G14G 3
  21077749.006    -9411982.50849  -7319206.49547  21077748.428    21077754.638
  20247946.370   -10624768.52749  -8044109.61147  20247945.649    20247952.049
  22722236.767    10021646.25049   7814816.62146  22722236.223    22722243.044
  21439106.330     1129639.60049    891805.14547  21439105.866    21439110.988
  23127009.394    -8086879.63749  -6062701.81645  23127009.085    23127016.308
  22777795.343    -9859945.62049  -7396477.52846  22777794.911    22777802.654
  24098432.290    15744424.15049  12270299.01445  24098431.532    24098442.903
  20779157.376   -23207552.36849 -18065376.42747  20779156.899    20779162.541
  22086222.019   -14538488.28949 -11307965.98447  22086221.676    22086229.321
 03  6  9 20 21 30.0000000  0  9G23G15G21G18G 9G31G17G14G 3
  21080131.877    -9399460.29949  -7309448.93847  21080131.349    21080137.525
  20253304.218   -10596612.93249  -8022170.20647  20253303.500    20253309.903
  22738785.552    10108610.09649   7882580.53346  22738785.026    22738791.850
  21448384.359     1178395.85249    929797.00747  21448383.883    21448389.020
  23128156.327    -8080852.12549  -6058005.04945  23128156.051    23128163.323
  22772564.999    -9887431.25749  -7417894.92746  22772564.512    22772572.296
  24116735.685    15840608.00049  12345247.23045  24116734.871    24116746.169
  20768790.103   -23262032.73949 -18107828.62647  20768789.616    20768795.231
  22090099.221   -14518113.75249 -11292089.77947  22090098.893    22090106.533
 03  6  9 20 22  0.0000000  0  9G23G15G21G18G 9G31G17G14G 3
  21082542.722    -9386791.33449  -7299577.02547  21082542.180    21082548.355
  20258749.719   -10567996.83649  -7999871.96847  20258749.000    20258755.414
  22755387.820    10195855.18149   7950563.59946  22755387.293    22755394.149
  21457691.796     1227306.53149    967909.20847  21457691.329    21457696.428
  23129418.195    -8074220.71149  -6052837.70345  23129417.997    23129425.185
  22767441.964    -9914352.98849  -7438872.90746  22767441.548    22767449.242
  24135079.394    15937003.46649  12420360.33745  24135078.761    24135090.067
  20758515.417   -23316026.33749 -18149901.51847  20758514.919    20758520.538
  22094077.390   -14497208.73549 -11275800.21247  22094077.029    22094084.681
 03  6  9 20 22 30.0000000  0  9G23G15G21G18G 9G31G17G14G 3
  21084981.490    -9373975.59149  -7289590.74047  21084980.941    21084987.133
  20264283.028   -10538919.26349  -7977214.14247  20264282.289    20264288.711
  22772043.581    10283381.15849   8018765.51446  22772043.073    22772049.959
  21467028.638     1276371.62449   1006141.72547  21467028.146    21467033.225
  23130795.207    -8066984.58149  -6047199.15345  23130794.934    23130802.153
  22762426.553    -9940709.49049  -7459410.45446  22762426.100    22762433.790
  24153463.102    16033609.69349  12495637.66245  24153462.406    24153473.937
  20748333.699   -23369531.52849 -18191593.83747  20748333.198    20748338.817
  22098156.324   -14475773.92349 -11259097.82447  22098155.975    22098163.644
 03  6  9 20 23  0.0000000  0  9G23G15G21G18G 9G31G17G14G 3
  21087448.106    -9361013.46649  -7279490.39147  21087447.544    21087453.745
  20269904.218   -10509379.77849  -7954196.39247  20269903.498    20269909.902
  22788752.602    10371187.01349   8087185.50646  22788752.065    22788758.970
  21476394.760     1325590.84049   1044494.33847  21476394.272    21476399.347
  23132287.294    -8059143.28849  -6041089.07245  23132287.022    23132294.291
  22757518.777    -9966499.97249  -7479506.95446  22757518.298    22757526.102
  24171886.686    16130425.29749  12571078.13344  24171886.021    24171897.782
  20738245.095   -23422547.42749 -18232904.89347  20738244.592    20738250.185
  22102335.882   -14453810.38549 -11241983.44847  22102335.541    22102343.254
 03  6  9 20 23 30.0000000  0  9G23G15G21G18G 9G31G17G14G 3
  21089942.433    -9347905.82849  -7269276.65347  21089941.857    21089948.043
  20275613.368   -10479378.41949  -7930818.73047  20275612.635    20275619.022
  22805514.531    10459270.99149   8155822.25246  22805513.981    22805520.904
  21485790.012     1374963.17549   1082966.25747  21485789.537    21485794.605
  23133894.596    -8050696.65449  -6034507.28045  23133894.318    23133901.606
  22752718.775    -9991724.34349  -7499162.33446  22752718.261    22752726.075
  24190350.025    16227449.46549  12646681.08845  24190349.179    24190361.167
  20728249.700   -23475073.40149 -18273834.18447  20728249.192    20728254.774
  22106615.797   -14431319.74949 -11224458.34247  22106615.438    22106623.155
 03  6  9 20 24  0.0000000  0  9G23G15G21G18G 9G31G17G14G 3
  21092464.352    -9334652.98149  -7258949.76447  21092463.801    21092469.994
  20281410.446   -10448914.61549  -7907080.72247  20281409.712    20281416.114
  22822329.240    10547632.37249   8224675.15446  22822328.680    22822335.649
  21495214.407     1424488.46649   1121557.37247  21495213.923    21495218.967
  23135617.236    -8041644.18449  -6027453.40545  23135616.976    23135624.170
  22748026.654   -10016381.70849  -7518375.88646  22748026.119    22748033.954
  24208852.978    16324681.26149  12722445.84645  24208851.950    24208863.976
  20718347.778   -23527108.24849 -18314380.77447  20718347.287    20718352.850
  22110995.749   -14408303.08649 -11206523.34747  22110995.386    22111003.137
 03  6  9 20 24 30.0000000  0  9G23G15G21G18G 9G31G17G14G 3
  21095013.793    -9321255.77849  -7248510.39247  21095013.226    21095019.418
  20287295.532   -10417988.36649  -7882982.38347  20287294.798    20287301.190
  22839196.567    10636270.08449   8293743.36946  22839195.944    22839202.908
  21504667.752     1474166.07649   1160267.17147  21504667.269    21504672.308
  23137455.158    -8031985.90449  -6019927.48645  23137454.893    23137462.096
  22743442.444   -10040471.75849  -7537147.37746  22743441.923    22743449.798
  24227394.960    16422119.00149  12798371.07245  24227394.153    24227406.021
  20708539.461   -23578651.34749 -18354544.19347  20708538.947    20708544.515
  22115475.531   -14384762.00249 -11188179.71247  22115475.165    22115482.927
 03  6  9 20 25  0.0000000  0  9G23G15G21G18G 9G31G17G14G 3
  21097590.645    -9307714.38849  -7237958.67547  21097590.082    21097596.287
  20293268.676   -10386599.35349  -7858523.43347  20293267.943    20293274.329
  22856116.289    10725183.08449   8363026.08046  22856115.650    22856122.591
  21514149.936     1523995.32249   1199095.12747  21514149.464    21514154.529
  23139408.572    -8021720.90349  -6011928.80245  23139408.251    23139415.490
  22738966.360   -10063993.75949  -7555476.23746  22738965.851    22738973.695
  24245975.951    16519761.76049  12874456.05045  24245975.360    24245987.286
  20698824.883   -23629701.53349 -18394323.52147  20698824.362    20698829.938
  22120054.856   -14360697.63449 -11169428.32847  22120054.515    22120062.307
 03  6  9 20 25 30.0000000  0  9G23G15G21G18G 9G31G17G14G 3
  21100194.854    -9294029.33449  -7227295.01147  21100194.279    21100200.504
  20299329.934   -10354747.17149  -7833703.57547  20299329.207    20299335.629
  22873088.172    10814370.33249   8432522.48946  22873087.501    22873094.510
  21523660.962     1573976.01649   1238041.09247  21523660.490    21523665.567
  23141477.349    -8010849.09549  -6003457.29645  23141477.088    23141484.274
  22734598.514   -10086947.15149  -7573362.03346  22734597.995    22734605.841
  24264595.610    16617608.07249  12950699.59145  24264595.030    24264607.297
  20689204.242   -23680258.05049 -18433718.17547  20689203.742    20689209.310
  22124733.518   -14336111.20749 -11150270.15247  22124733.196    22124740.965
 03  6  9 20 26  0.0000000  0  8G23G15G21G18G 9G31G14G 3
  21102827.419    -9280195.08149  -7216515.08747  21102826.857    21102833.068
  20305480.547   -10322425.51649  -7808517.90547  20305479.809    20305486.246
  22890113.100    10903836.50449   8502236.23246  22890112.434    22890119.502
  21533201.771     1624113.36149   1277109.11947  21533201.295    21533206.392
  23143662.845    -7999364.23349  -5994508.07045  23143662.596    23143669.777
  22730340.080   -10109325.49249  -7590799.74646  22730339.573    22730347.384
  20679678.930   -23730313.82749 -18472722.64647  20679678.417    20679683.970
  22129512.403   -14310998.20149 -11130701.66747  22129512.088    22129519.860
 03  6  9 20 26 30.0000000  0  8G23G15G21G18G 9G31G14G 3
  21105486.837    -9266219.89049  -7205625.33947  21105486.276    21105492.489
  20311719.101   -10289641.72749  -7782972.12747  20311718.390    20311724.836
  22907189.559    10993572.88349   8572160.53046  22907188.893    22907195.953
  21542770.903     1674399.38549   1316293.00847  21542770.420    21542775.568
  23145963.476    -7987274.15849  -5985087.25445  23145963.263    23145970.457
  22726189.674   -10131136.02149  -7607794.99646  22726189.177    22726197.022
  20670247.565   -23779875.80649 -18511342.33647  20670247.056    20670252.576
  22134389.796   -14285367.59849 -11110729.85247  22134389.481    22134397.262
 03  6  9 20 27  0.0000000  0  8G23G15G21G18G 9G31G14G 3
  21108172.632    -9252105.99649  -7194627.50747  21108172.047    21108178.264
  20318045.274   -10256397.54249  -7757067.59047  20318044.560    20318051.015
  22924316.844    11083576.86649   8642293.37146  22924316.226    22924323.259
  21552367.896     1724831.86349   1355591.01847  21552367.406    21552372.588
  23148379.055    -7974580.03549  -5975195.74445  23148378.881    23148386.002
  22722147.115   -10152379.83249  -7624348.63846  22722146.635    22722154.529
  20660910.006   -23828944.85049 -18549577.92247  20660909.490    20660915.011
  22139365.179   -14259222.45149 -11090357.08647  22139364.866    22139372.624
 03  6  9 20 27 30.0000000  0  8G23G15G21G18G 9G31G14G 3
  21110885.403    -9237850.36049  -7183519.22547  21110884.829    21110891.059
  20324459.779   -10222689.17949  -7730801.35847  20324459.070    20324465.520
  22941495.549    11173851.07049   8712636.76546  22941494.983    22941502.029
  21561993.320     1775413.69249   1395005.40847  21561992.843    21561997.992
  23150910.292    -7961278.26149  -5964830.73145  23150910.078    23150917.273
  22718213.233   -10173053.06949  -7640457.68646  22718212.699    22718220.578
  20651667.046   -23877516.71249 -18587426.09247  20651666.529    20651672.051
  22144438.825   -14232560.74849 -11069581.80847  22144438.504    22144446.256
 03  6  9 20 28  0.0000000  0  8G23G15G21G18G 9G31G14G 3
  21113624.736    -9223454.96249  -7172302.03647  21113624.162    21113630.402
  20330962.397   -10188517.76849  -7704174.31147  20330961.688    20330968.137
  22958725.157    11264392.57049   8783188.44546  22958724.596    22958731.602
  21571646.843     1826142.99649   1434534.71447  21571646.360    21571651.463
  23153556.866    -7947370.41549  -5953993.45445  23153556.596    23153563.776
  22714387.662   -10193156.88149  -7656123.02146  22714387.157    22714394.955
  20642518.631   -23925591.97349 -18624887.29947  20642518.122    20642523.614
  22149610.208   -14205385.29749 -11048406.21347  22149609.864    22149617.628
 03  6  9 20 28 30.0000000  0  8G23G15G21G18G 9G31G14G 3
  21116390.717    -9208919.55549  -7160975.75147  21116390.147    21116396.411
  20337553.309   -10153882.56749  -7677185.86847  20337552.595    20337559.036
  22976005.414    11355200.70049   8853947.88046  22976004.892    22976011.951
  21581328.443     1877020.03249   1474179.13347  21581327.937    21581333.058
  23156318.964    -7932855.65049  -5942683.26245  23156318.635    23156325.933
  22710670.591   -10212690.16449  -7671343.78146  22710670.110    22710677.904
  20633464.996   -23973168.95149 -18661960.23447  20633464.490    20633469.991
  22154879.160   -14177696.90949 -11026830.92047  22154878.836    22154886.633
 03  6  9 20 29  0.0000000  0  8G23G15G21G18G 9G31G14G 3
  21119183.266    -9194244.42549  -7149540.59447  21119182.704    21119188.983
  20344232.484   -10118783.27649  -7649835.79547  20344231.781    20344238.222
  22993336.349    11446274.74949   8924914.52446  22993335.845    22993342.890
  21591038.062     1928044.34649   1513938.31647  21591037.566    21591042.719
  23159196.641    -7917733.52949  -5930899.80245  23159196.302    23159203.581
  22707062.223   -10231652.35249  -7686119.53646  22707061.768    22707069.582
  20624506.319   -24020247.05749 -18698644.44147  20624505.812    20624511.289
  22160245.463   -14149497.07649 -11004857.10447  22160245.122    22160252.947
 03  6  9 20 29 30.0000000  0  8G23G15G21G18G 9G31G14G 3
  21122002.321    -9179430.14749  -7137997.00247  21122001.762    21122008.032
  20350999.980   -10083219.98849  -7622124.16447  20350999.276    20351005.714
  23010717.595    11537613.16249   8996087.16646  23010717.072    23010724.207
  21600775.507     1979214.99749   1553811.52847  21600775.015    21600780.188
  23162189.831    -7902004.25749  -5918643.22945  23162189.590    23162196.789
  22703562.553   -10250043.53349  -7700450.34146  22703562.061    22703569.878
  20615642.618   -24066825.87149 -18734939.58447  20615642.108    20615647.591
  22165708.737   -14120787.66749 -10982486.20747  22165708.409    22165716.255
 03  6  9 20 30  0.0000000  0  8G23G15G21G18G 9G31G14G 3
  21124847.948    -9164476.38549  -7126344.72447  21124847.402    21124853.662
  20357855.993   -10047191.63949  -7594050.14947  20357855.290    20357861.723
  23028149.124    11629215.69949   9067465.61546  23028148.544    23028155.722
  21610540.980     2030532.73249   1593799.34547  21610540.464    21610545.640
  23165298.704    -7885667.07749  -5905912.96045  23165298.457    23165305.652
  22700171.767   -10267862.46649  -7714335.25046  22700171.248    22700179.106
  20606874.250   -24112903.82149 -18770844.44747  20606873.768    20606879.212
  22171268.874   -14091569.07449 -10959718.55647  22171268.580    22171276.451
 03  6  9 20 30 30.0000000  0  8G23G15G21G18G 9G31G14G 3
  21127720.152    -9149382.89849  -7114583.57447  21127719.584    21127725.851
  20364800.584   -10010697.63549  -7565613.29047  20364799.892    20364806.335
  23045630.758    11721081.86249   9139049.47946  23045630.172    23045637.399
  21620334.496     2081997.81349   1633901.98647  21620333.994    21620339.193
  23168523.340    -7868721.60149  -5892708.70145  23168523.095    23168530.283
  22696889.998   -10285108.19849  -7727773.51646  22696889.520    22696897.320
  20598201.509   -24158479.33249 -18806357.79647  20598201.042    20598206.450
  22176925.769   -14061842.20949 -10936554.84847  22176925.474    22176933.337
 03  6  9 20 31  0.0000000  0  8G23G15G21G18G 9G31G14G 3
  21130618.086    -9134154.10749  -7102716.98647  21130617.518    21130623.760
  20371833.055    -9973741.87649  -7536816.61347  20371832.344    20371838.785
  23063161.637    11813206.51549   9210834.77146  23063161.037    23063168.223
  21630155.158     2133605.78149   1674115.96547  21630154.656    21630159.909
  23171863.062    -7851171.36449  -5879033.20345  23171862.823    23171870.032
  22693716.670   -10301784.36149  -7740767.93546  22693716.157    22693723.990
  20589623.753   -24203555.66949 -18841482.17647  20589623.261    20589628.645
  22182678.340   -14031612.55649 -10912999.35546  22182678.012    22182685.962
 03  6  9 20 31 30.0000000  0  8G23G15G21G18G 9G31G14G 3
  21133542.360    -9118787.12449  -7090742.71847  21133541.784    21133548.027
  20378954.067    -9936320.85849  -7507657.40847  20378953.354    20378959.813
  23080742.066    11905591.60249   9282822.98246  23080741.484    23080748.711
  21640003.498     2185359.22249   1714443.29647  21640003.018    21640008.253
  23175318.480    -7833013.21849  -5864884.00845  23175318.231    23175325.357
  22690652.376   -10317887.55049  -7753315.89846  22690651.819    22690659.714
  20581141.695   -24248129.05749 -18876214.65847  20581141.203    20581146.590
  22188526.906   -14000878.48149 -10889050.81346  22188526.572    22188534.553
 03  6  9 20 32  0.0000000  0  8G23G15G21G18G 9G31G14G 3
  21136492.719    -9103282.86449  -7078661.49447  21136492.161    21136498.368
  20386163.482    -9898435.25049  -7478136.19047  20386162.763    20386169.231
  23098371.684    11998235.34649   9355012.73946  23098371.090    23098378.378
  21649879.403     2237257.41149   1754883.41147  21649878.911    21649884.185
  23178889.404    -7814248.10249  -5850261.85845  23178889.129    23178896.192
  22687697.037   -10333418.18449  -7765417.72746  22687696.475    22687704.369
  20572755.380   -24292199.25149 -18910555.04047  20572754.898    20572760.300
  22194471.040   -13969642.25949 -10864710.99146  22194470.688    22194478.660
 03  6  9 20 32 30.0000000  0  8G23G15G21G18G 9G31G14G 3
  21139469.122    -9087641.94549  -7066473.77147  21139468.550    21139474.743
  20393461.330    -9860085.01949  -7448252.92447  20393460.611    20393467.079
  23116050.277    12091136.67749   9427403.21945  23116049.741    23116057.121
  21659782.769     2289299.69749   1795435.82047  21659782.285    21659787.520
  23182575.790    -7794876.14549  -5835166.85345  23182575.537    23182582.631
  22684850.648   -10348376.13849  -7777073.29446  22684850.085    22684857.983
  20564464.892   -24335765.85549 -18944503.01247  20564464.418    20564469.801
  22200510.441   -13937905.24249 -10839980.93946  22200510.096    22200518.120
 03  6  9 20 33  0.0000000  0  8G23G15G21G18G 9G31G14G 3
  21142471.097    -9071866.37549  -7054181.12047  21142470.512    21142476.725
  20400847.256    -9821271.74749  -7418008.84147  20400846.538    20400853.023
  23133777.463    12184292.76049   9499992.22645  23133776.859    23133784.291
  21669713.114     2341484.09249   1836098.96947  21669712.630    21669717.863
  23186377.300    -7774899.22549  -5819600.44045  23186377.066    23186384.167
  22682112.990   -10362762.70749  -7788283.63246  22682112.431    22682120.310
  20556270.055   -24378829.93949 -18978059.40647  20556269.571    20556274.966
  22206644.455   -13905670.94749 -10814863.39646  22206644.140    22206652.228
 03  6  9 20 33 30.0000000  0  8G23G15G21G18G 9G31G14G 3
  21145499.320    -9055952.85749  -7041780.98647  21145498.736    21145504.977
  20408321.969    -9781991.90149  -7387401.19247  20408321.253    20408327.729
  23151553.455    12277705.66449   9572781.32545  23151552.883    23151560.388
  21679671.078     2393813.50149   1876875.10147  21679670.586    21679675.839
  23190294.669    -7754313.59849  -5803559.70845  23190294.353    23190301.552
  22679484.812   -10376574.32849  -7799045.95346  22679484.209    22679492.117
  20548171.641   -24421387.11649 -19011220.81147  20548171.167    20548176.536
  22212873.521   -13872937.37449 -10789356.80046  22212873.188    22212881.313
 03  6  9 20 34  0.0000000  0  8G23G15G21G18G 9G31G14G 3
  21148553.257    -9039904.33549  -7029275.66147  21148552.672    21148558.932
  20415885.073    -9742247.85349  -7356431.83747  20415884.347    20415890.832
  23169377.700    12371371.99149   9645767.89945  23169377.154    23169384.619
  21689656.121     2446285.34149   1917762.22647  21689655.654    21689660.871
  23194327.250    -7733121.96049  -5787046.76745  23194326.981    23194334.185
  22676965.550   -10389813.31949  -7809362.08346  22676964.964    22676972.819
  20540169.411   -24463439.26149 -19043988.68247  20540168.927    20540174.260
  22219196.852   -13839708.75549 -10763464.45746  22219196.510    22219204.594
 03  6  9 20 34 30.0000000  0  8G23G15G21G18G 9G31G14G 3
  21151632.888    -9023720.88549  -7016665.20347  21151632.320    21151638.572
  20423536.492    -9702039.47449  -7325100.67147  20423535.750    20423542.237
  23187249.982    12465290.84049   9718951.24845  23187249.501    23187256.912
  21699668.287     2498899.44449   1958760.20047  21699667.783    21699673.041
  23198475.141    -7711324.64249  -5770061.86145  23198474.850    23198482.035
  22674555.251   -10402479.32049  -7819231.72246  22674554.712    22674562.593
  20532263.354   -24504985.85349 -19076362.62047  20532262.850    20532268.168
  22225614.086   -13805986.38749 -10737187.38647  22225613.737    22225621.815
 03  6  9 20 35  0.0000000  0  8G23G15G21G18G 9G31G14G 3
  21154738.024    -9007403.31549  -7003950.23147  21154737.460    21154743.714
  20431276.275    -9661366.79249  -7293407.69847  20431275.542    20431282.036
  23205170.034    12559460.46749   9792330.00645  23205169.525    23205177.013
  21709707.310     2551654.98149   1999868.38747  21709706.813    21709712.114
  23202738.267    -7688922.05649  -5752605.32445  23202737.988    23202745.182
  22672253.973   -10414572.64149  -7828655.12146  22672253.446    22672261.363
  20524453.529   -24546026.44949 -19108342.27647  20524453.027    20524458.378
  22232124.889   -13771772.45349 -10710527.26547  22232124.540    22232132.618
 03  6  9 20 35 30.0000000  0  8G23G15G21G18G 9G31G14G 3
  21157868.617    -8990952.10249  -6991131.11547  21157868.043    21157874.307
  20439104.307    -9620230.31549  -7261353.32647  20439103.583    20439110.102
  23223137.509    12653879.49749   9865903.11845  23223137.017    23223144.525
  21719773.141     2604551.44749   2041086.39547  21719772.664    21719777.972
  23207116.409    -7665914.71349  -5734677.54145  23207116.158    23207123.392
  22670061.677   -10426093.49949  -7837632.43846  22670061.123    22670068.984
  20516740.048   -24586560.88449 -19139927.51647  20516739.547    20516744.902
  22238728.814   -13737068.87149 -10683485.60547  22238728.469    22238736.574
 03  6  9 20 36  0.0000000  0  8G23G15G21G18G 9G31G14G 3
  21161024.605    -8974367.39149  -6978207.97147  21161024.008    21161030.264
  20447020.611    -9578629.86949  -7228937.42747  20447019.873    20447026.409
  23241152.194    12748546.65749   9939669.56945  23241151.635    23241159.320
  21729865.779     2657588.59349   2082414.02147  21729865.337    21729870.671
  23211609.623    -7642302.73249  -5716278.60245  23211609.367    23211616.663
  22667978.358   -10437041.65949  -7846163.50946  22667977.766    22667985.637
  20509123.038   -24626588.41449 -19171117.77147  20509122.540    20509127.902
  22245425.655   -13701877.23749 -10656063.64346  22245425.273    22245433.425
 03  6  9 20 36 30.0000000  0  8G23G15G21G18G 9G31G14G 3
  21164205.996    -8957648.95249  -6965180.62347  21164205.425    21164211.690
  20455025.305    -9536564.90349  -7196159.57847  20455024.561    20455031.130
  23259213.920    12843461.15649  10013628.74945  23259213.411    23259221.088
  21739985.287     2710766.66249   2123851.44847  21739984.822    21739990.160
  23216218.011    -7618085.77949  -5697408.26745  23216217.756    23216224.994
  22666004.058   -10447416.52549  -7854247.85746  22666003.522    22666011.397
  20501602.664   -24666108.08949 -19201912.29847  20501602.166    20501607.528
  22252215.051   -13666198.82549 -10628262.37846  22252214.692    22252222.886
 03  6  9 20 37  0.0000000  0  8G23G15G21G18G 9G31G14G 3
  21167412.771    -8940797.36549  -6952049.52947  21167412.195    21167418.460
  20463118.324    -9494035.85149  -7163020.08147  20463117.588    20463124.180
  23277322.491    12938621.69849  10087779.63545  23277321.996    23277329.775
  21750131.493     2764084.98349   2165398.16247  21750131.017    21750136.283
  23220941.319    -7593264.65449  -5678067.14445  23220941.027    23220948.319
  22664138.790   -10457218.42349  -7861885.74146  22664138.253    22664146.261
  20494178.992   -24705119.57049 -19232310.83047  20494178.505    20494183.850
  22259096.698   -13630035.95249 -10600083.61446  22259096.328    22259104.562
 03  6  9 20 37 30.0000000  0  8G23G15G21G18G 9G31G14G 3
  21170644.826    -8923812.90649  -6938814.89647  21170644.238    21170650.523
  20471299.654    -9451042.73749  -7129518.99447  20471298.925    20471305.536
  23295477.653    13034027.19649  10162121.39645  23295477.137    23295485.009
  21760304.311     2817543.22349   2207053.90247  21760303.845    21760309.094
  23225779.598    -7567839.50449  -5658255.36045  23225779.248    23225786.583
  22662382.579   -10466447.44049  -7869077.21846  22662382.080    22662390.042
  20486852.125   -24743622.42949 -19262313.03447  20486851.628    20486856.970
  22266070.242   -13593390.00149 -10571528.42446  22266069.900    22266078.144
 03  6  9 20 38  0.0000000  0  8G23G15G21G18G 9G31G14G 3
  21173901.979    -8906696.60249  -6925477.52947  21173901.403    21173907.681
  20479569.181    -9407586.11849  -7095656.72847  20479568.460    20479575.096
  23313679.036    13129675.60549  10236652.43645  23313678.545    23313686.488
  21770503.526     2871140.49749   2248817.98647  21770503.074    21770508.308
  23230732.576    -7541811.64149  -5637973.91745  23230732.238    23230739.559
  22660735.305   -10475104.19449  -7875822.78446  22660734.790    22660742.765
  20479622.004   -24781616.86049 -19291919.05847  20479621.533    20479626.848
  22273135.262   -13556263.40549 -10542598.70146  22273134.919    22273143.203
 03  6  9 20 38 30.0000000  0  8G23G15G21G18G 9G31G14G 3
  21177184.230    -8889448.31249  -6912037.31647  21177183.661    21177189.909
  20487926.965    -9363665.82349  -7061433.16447  20487926.254    20487932.900
  23331926.518    13225566.08749  10311372.12545  23331926.073    23331934.044
  21780729.185     2924876.51549   2290690.18147  21780728.725    21780733.989
  23235800.274    -7515180.80149  -5617222.63845  23235800.050    23235807.276
  22659196.925   -10483188.47349  -7882122.26546  22659196.445    22659204.435
  20472488.806   -24819102.10949 -19321128.31947  20472488.311    20472493.624
  22280291.411   -13518657.63049 -10513295.60246  22280291.085    22280299.402
 03  6  9 20 39  0.0000000  0  8G23G15G21G18G 9G31G14G 3
  21180491.513    -8872068.57849  -6898494.67847  21180490.941    21180497.187
  20496372.898    -9319282.42449  -7026848.73147  20496372.167    20496378.834
  23350219.692    13321696.81449  10386279.01545  23350219.190    23350227.251
  21790981.148     2978750.98249   2332670.24547  21790980.668    21790985.963
  23240982.519    -7487947.80949  -5596002.14345  23240982.292    23240989.669
  22657767.433   -10490700.59949  -7887975.91246  22657766.944    22657774.941
  20465452.495   -24856078.02549 -19349940.70247  20465452.002    20465457.296
  22287538.411   -13480574.63949 -10483620.64846  22287538.108    22287546.428
 03  6  9 20 39 30.0000000  0  8G23G15G21G18G 9G31G14G 3
  21183823.677    -8854557.95649  -6884850.04147  21183823.094    21183829.331
  20504906.848    -9274436.21649  -6991903.67147  20504906.129    20504912.793
  23368558.295    13418066.30949  10461371.93645  23368557.783    23368565.939
  21801259.348     3032763.22649   2374757.67847  21801258.882    21801264.208
  23246279.245    -7460113.42649  -5574313.04245  23246279.036    23246286.366
  22656446.798   -10497640.79449  -7893383.89946  22656446.288    22656454.283
  20458513.181   -24892544.38249 -19378356.01947  20458512.686    20458517.977
  22294875.821   -13442016.70649 -10453575.60646  22294875.499    22294883.853
